[[{"header":{"parameterUnit":"m.s-1","parameterCategory":1,"la1":30.6,"la2":29.2853,"lo1":-89.7004,"lo2":-87.6739,"dy":0.0162,"dx":0.0183,"nx":112,"ny":82,"refTime":"2023-09-24T12:00:00:Z","depth":0,"parameterNumber":2,"parameterNumberName":"U-component_of_WINDS"},"data":[0.0,0.0,0.0,0.0,0.0,0.0,0.0,0.0,0.0,0.0,0.0,0.0,0.0,0.0,0.0,0.0,0.0,0.0,0.0,0.0,0.0,0.0,0.0,0.0,0.0,0.0,0.0,0.0,0.0,0.0,0.0,0.0,0.0,0.0,0.0,0.0,0.0,0.0,0.0,0.0,0.0,0.0,0.0,0.0,0.0,0.0,0.0,0.0,0.0,0.0,0.0,0.0,0.0,0.0,0.0,0.0,0.0,0.0,0.0,0.0,0.0,0.0,0.0,0.0,0.0,0.0,0.0,0.0,0.0,0.0,0.0,0.0,0.0,0.0,0.0,0.0,0.0,0.0,0.0,0.0,0.0,0.0,0.0,0.0,0.0,0.0,0.0,0.0,0.0,0.0,1.8722,2.4204,2.6891,2.8301,2.8301,2.8301,2.6601,2.2542,0.0,0.0,0.0,0.0,0.0,0.0,0.0,0.0,0.0,0.0,0.0,0.0,0.0,0.0,0.0,0.0,0.0,0.0,0.0,0.0,0.0,0.0,0.0,0.0,0.0,0.0,0.0,0.0,0.0,0.0,0.0,0.0,0.0,0.0,0.0,0.0,0.0,0.0,0.0,0.0,0.0,0.0,0.0,0.0,0.0,0.0,0.0,0.0,0.0,0.0,0.0,0.0,0.0,0.0,0.0,0.0,0.0,0.0,0.0,0.0,0.0,0.0,0.0,0.0,0.0,0.0,0.0,0.0,0.0,0.0,0.0,0.0,0.0,0.0,0.0,0.0,0.0,0.0,0.0,0.0,0.0,0.0,0.0,0.0,0.0,0.0,0.0,0.0,0.0,0.0,0.0,0.0,0.0,0.0,0.0,0.0,0.0,0.0,0.0,0.0,0.0,0.0,0.0,0.0,2.0716,2.6324,2.7737,2.8301,2.8301,2.8301,2.6324,2.1689,0.0,0.0,0.0,0.0,0.0,0.0,0.0,0.0,0.0,0.0,0.0,0.0,0.0,0.0,0.0,0.0,0.0,0.0,0.0,0.0,0.0,0.0,0.0,0.0,0.0,0.0,0.0,0.0,0.0,0.0,0.0,0.0,0.0,0.0,0.0,0.0,0.0,0.0,0.0,0.0,0.0,0.0,0.0,0.0,0.0,0.0,0.0,0.0,0.0,0.0,0.0,0.0,0.0,0.0,0.0,0.0,0.0,0.0,0.0,0.0,0.0,0.0,0.0,0.0,0.0,0.0,0.0,0.0,0.0,0.0,0.0,0.0,0.0,0.0,0.0,0.0,0.0,0.0,0.0,0.0,0.0,0.0,0.0,0.0,0.0,0.0,0.0,0.0,0.0,0.0,0.0,0.0,0.0,0.0,0.0,0.0,0.0,0.0,0.0,0.0,0.0,0.0,0.0,2.0239,2.4542,2.712,2.7638,2.7799,2.7799,2.7664,2.5581,2.0867,2.102,0.0,0.0,0.0,0.0,0.0,0.0,0.0,0.0,0.0,0.0,0.0,0.0,0.0,0.0,0.0,0.0,0.0,0.0,0.0,0.0,0.0,0.0,0.0,0.0,0.0,0.0,0.0,0.0,0.0,0.0,0.0,0.0,0.0,0.0,0.0,0.0,0.0,0.0,0.0,0.0,0.0,0.0,0.0,0.0,0.0,0.0,0.0,0.0,0.0,0.0,0.0,0.0,0.0,0.0,0.0,0.0,0.0,0.0,0.0,0.0,0.0,0.0,0.0,0.0,0.0,0.0,0.0,0.0,0.0,0.0,0.0,0.0,0.0,0.0,0.0,0.0,0.0,0.0,0.0,0.0,0.0,0.0,0.0,0.0,0.0,0.0,0.0,0.0,0.0,0.0,0.0,0.0,0.0,0.0,0.0,0.0,0.0,0.0,0.0,0.0,0.0,0.0,2.351,2.6675,2.733,2.7395,2.7395,2.7395,2.7058,2.4879,2.0213,1.9962,0.0,0.0,0.0,0.0,0.0,0.0,0.0,0.0,0.0,0.0,0.0,0.0,0.0,0.0,0.0,0.0,0.0,0.0,0.0,0.0,0.0,0.0,0.0,0.0,0.0,0.0,0.0,0.0,0.0,0.0,0.0,0.0,0.0,0.0,0.0,0.0,0.0,0.0,0.0,0.0,0.0,0.0,0.0,0.0,0.0,0.0,0.0,0.0,0.0,0.0,0.0,0.0,0.0,0.0,0.0,0.0,0.0,0.0,0.0,0.0,0.0,0.0,0.0,0.0,0.0,0.0,0.0,0.0,0.0,0.0,0.0,0.0,0.0,0.0,0.0,0.0,0.0,0.0,0.0,0.0,0.0,0.0,0.0,0.0,0.0,0.0,0.0,0.0,0.0,0.0,0.0,0.0,0.0,0.0,0.0,0.0,0.0,0.0,0.0,0.0,0.0,0.0,2.1858,2.4557,2.7117,2.7395,2.7395,2.7395,2.6814,2.4512,2.0008,1.932,0.0,0.0,0.0,0.0,0.0,0.0,0.0,0.0,0.0,0.0,0.0,0.0,0.0,0.0,0.0,0.0,0.0,0.0,0.0,0.0,0.0,0.0,0.0,0.0,0.0,0.0,0.0,0.0,0.0,0.0,0.0,0.0,0.0,0.0,0.0,0.0,0.0,0.0,0.0,0.0,0.0,0.0,0.0,0.0,0.0,0.0,0.0,0.0,0.0,0.0,0.0,0.0,0.0,0.0,0.0,0.0,0.0,0.0,0.0,0.0,0.0,0.0,0.0,0.0,0.0,0.0,0.0,0.0,0.0,0.0,0.0,0.0,0.0,0.0,0.0,0.0,0.0,0.0,0.0,0.0,0.0,0.0,0.0,0.0,0.0,0.0,0.0,0.0,0.0,0.0,0.0,0.0,0.0,0.0,0.0,0.0,0.0,0.0,0.0,0.0,0.0,0.0,2.3604,2.6807,2.7849,2.796,2.796,2.796,2.7584,2.5109,1.985,0.0,0.0,0.0,0.0,0.0,0.0,0.0,0.0,0.0,0.0,0.0,0.0,0.0,0.0,0.0,0.0,0.0,0.0,0.0,0.0,0.0,0.0,0.0,0.0,0.0,0.0,0.0,0.0,0.0,0.0,0.0,0.0,0.0,0.0,0.0,0.0,0.0,0.0,0.0,0.0,0.0,0.0,0.0,0.0,0.0,0.0,0.0,0.0,0.0,0.0,0.0,0.0,0.0,0.0,0.0,0.0,0.0,0.0,0.0,0.0,0.0,0.0,0.0,0.0,0.0,0.0,0.0,0.0,0.0,0.0,0.0,0.0,0.0,0.0,0.0,0.0,0.0,0.0,0.0,0.0,0.0,0.0,0.0,0.0,0.0,0.0,0.0,0.0,0.0,0.0,0.0,0.0,0.0,0.0,0.0,0.0,0.0,0.0,0.0,0.0,0.0,0.0,1.9572,2.4677,2.8301,2.8301,2.8301,2.8301,2.8301,2.7951,2.531,1.9658,0.0,0.0,0.0,0.0,0.0,0.0,0.0,0.0,0.0,0.0,0.0,0.0,0.0,0.0,0.0,0.0,0.0,0.0,0.0,0.0,0.0,0.0,0.0,0.0,0.0,0.0,0.0,0.0,0.0,0.0,0.0,0.0,0.0,0.0,0.0,0.0,0.0,0.0,0.0,0.0,0.0,0.0,0.0,0.0,0.0,0.0,0.0,0.0,0.0,0.0,0.0,0.0,0.0,0.0,0.0,0.0,0.0,0.0,0.0,0.0,0.0,0.0,0.0,0.0,0.0,0.0,0.0,0.0,0.0,0.0,0.0,0.0,0.0,0.0,0.0,0.0,0.0,0.0,0.0,0.0,0.0,0.0,0.0,0.0,0.0,0.0,0.0,0.0,0.0,0.0,0.0,0.0,0.0,0.0,0.0,0.0,0.0,0.0,0.0,0.0,0.0,0.0,1.9081,2.4461,2.8301,2.8301,2.8301,2.8301,2.8301,2.7672,2.4955,0.0,0.0,0.0,0.0,0.0,0.0,0.0,0.0,0.0,0.0,0.0,0.0,0.0,0.0,0.0,0.0,0.0,0.0,0.0,0.0,0.0,0.0,0.0,0.0,0.0,0.0,0.0,0.0,0.0,0.0,0.0,0.0,0.0,0.0,0.0,0.0,0.0,0.0,0.0,0.0,0.0,0.0,0.0,0.0,0.0,0.0,0.0,0.0,0.0,0.0,0.0,0.0,0.0,0.0,0.0,0.0,0.0,0.0,0.0,0.0,0.0,0.0,0.0,0.0,0.0,0.0,0.0,0.0,0.0,0.0,0.0,0.0,0.0,0.0,0.0,0.0,0.0,0.0,0.0,0.0,0.0,0.0,0.0,0.0,0.0,0.0,0.0,0.0,0.0,0.0,0.0,0.0,0.0,0.0,0.0,0.0,0.0,0.0,0.0,0.0,0.0,0.0,0.0,1.8366,2.3625,2.7314,2.7125,2.7098,2.7098,2.7098,2.6931,2.443,1.8822,0.0,0.0,0.0,0.0,0.0,0.0,0.0,0.0,0.0,0.0,0.0,0.0,0.0,0.0,0.0,0.0,0.0,0.0,0.0,0.0,0.0,0.0,0.0,0.0,0.0,0.0,0.0,0.0,0.0,0.0,0.0,0.0,0.0,0.0,0.0,0.0,0.0,0.0,0.0,0.0,0.0,0.0,0.0,0.0,0.0,0.0,0.0,0.0,0.0,0.0,0.0,0.0,0.0,0.0,0.0,0.0,0.0,0.0,0.0,0.0,0.0,0.0,0.0,0.0,0.0,0.0,0.0,0.0,0.0,0.0,0.0,0.0,0.0,0.0,0.0,0.0,0.0,0.0,0.0,0.0,0.0,0.0,0.0,0.0,0.0,0.0,0.0,0.0,0.0,0.0,0.0,0.0,0.0,0.0,0.0,0.0,0.0,0.0,0.0,0.0,0.0,0.0,1.7748,2.3066,2.6772,2.6636,2.6609,2.6609,2.6609,2.6609,2.4614,2.0007,0.0,0.0,0.0,0.0,0.0,0.0,0.0,0.0,0.0,0.0,0.0,0.0,0.0,0.0,0.0,0.0,0.0,0.0,0.0,0.0,0.0,0.0,0.0,0.0,0.0,0.0,0.0,0.0,0.0,0.0,0.0,0.0,0.0,0.0,0.0,0.0,0.0,0.0,0.0,0.0,0.0,0.0,0.0,0.0,0.0,0.0,0.0,0.0,0.0,0.0,0.0,0.0,0.0,0.0,0.0,0.0,0.0,0.0,0.0,0.0,0.0,0.0,0.0,0.0,0.0,0.0,0.0,0.0,0.0,0.0,0.0,0.0,0.0,0.0,0.0,0.0,0.0,0.0,0.0,0.0,0.0,0.0,0.0,0.0,0.0,0.0,0.0,0.0,0.0,0.0,0.0,0.0,0.0,0.0,0.0,0.0,0.0,0.0,0.0,0.0,0.0,0.0,1.7151,2.2576,2.6418,2.6364,2.6364,2.6291,2.6182,2.6209,2.4889,2.1716,0.0,0.0,0.0,0.0,0.0,0.0,0.0,0.0,0.0,0.0,0.0,0.0,0.0,0.0,0.0,0.0,0.0,0.0,0.0,0.0,0.0,0.0,0.0,0.0,0.0,0.0,0.0,0.0,0.0,0.0,0.0,0.0,0.0,0.0,0.0,0.0,0.0,0.0,0.0,0.0,0.0,0.0,0.0,0.0,0.0,0.0,0.0,0.0,0.0,0.0,0.0,0.0,0.0,0.0,0.0,0.0,0.0,0.0,0.0,0.0,0.9397,0.7452,0.0,0.0,0.0,0.0,0.0,0.0,0.0,0.0,0.0,0.0,0.0,0.0,0.0,0.0,0.0,0.0,0.0,0.0,0.0,0.0,0.0,0.0,0.0,0.0,0.0,0.0,0.0,0.0,0.0,0.0,0.0,0.0,0.0,0.0,0.0,0.0,0.0,0.0,0.0,0.0,1.6103,2.1382,2.5,2.4518,2.449,2.4083,2.3143,2.3255,2.1861,1.8279,1.756,0.0,0.0,0.0,0.0,0.0,0.0,0.0,0.0,0.0,0.0,0.0,0.0,0.0,0.0,0.0,0.0,0.0,0.0,0.0,0.0,0.0,0.0,0.0,0.0,0.0,0.0,0.0,0.0,0.0,0.0,0.0,0.0,0.0,0.0,0.0,0.0,0.0,0.0,0.0,0.0,0.0,0.0,0.0,0.0,0.0,0.0,0.0,0.0,0.0,0.0,0.0,0.0,0.0,0.0,0.0,0.0,0.0,0.0,0.0,1.0012,0.9317,0.0,0.0,0.0,0.0,0.0,0.0,0.0,0.0,0.0,0.0,0.0,0.0,0.0,0.0,0.0,0.0,0.0,0.0,0.0,0.0,0.0,0.0,0.0,0.0,0.0,0.0,0.0,0.0,0.0,0.0,0.0,0.0,0.0,0.0,0.0,0.0,0.0,0.0,0.0,0.0,1.5752,2.0768,2.4044,2.3131,2.3034,2.2523,2.1273,2.1301,2.0584,1.8658,1.7421,0.0,0.0,0.0,0.0,0.0,0.0,0.0,0.0,0.0,0.0,0.0,0.0,0.0,0.0,0.0,0.0,0.0,0.0,0.0,0.0,0.0,0.0,0.0,0.0,0.0,0.0,0.0,0.0,0.0,0.0,0.0,0.0,0.0,0.0,0.0,0.0,0.0,0.0,0.0,0.0,0.0,0.0,0.0,0.0,0.0,0.0,0.0,0.0,0.0,0.0,0.0,0.0,0.0,0.983,1.019,1.019,1.0288,1.0272,1.0224,1.1069,1.1756,1.2148,1.0381,0.0,0.0,0.0,0.0,0.0,0.0,0.0,0.0,0.0,0.0,0.0,0.0,0.0,0.0,0.0,0.0,0.0,0.0,0.0,0.0,0.0,0.0,1.277,1.3897,1.3585,1.3115,1.3277,0.0,0.0,0.0,0.0,0.0,0.0,0.0,0.0,0.0,0.0,0.0,1.5339,1.9982,2.2909,2.1837,2.1723,2.1219,1.9949,1.9891,1.9833,1.9629,1.768,1.6471,0.0,0.0,0.0,0.0,0.0,0.0,0.0,0.0,0.0,0.0,0.0,0.0,0.0,0.0,0.0,0.0,0.0,0.0,0.0,0.0,0.0,0.0,0.0,0.0,0.0,0.0,0.0,0.0,0.0,0.0,0.0,0.0,0.4109,0.541,0.0,0.0,0.0,0.0,0.0,0.0,0.0,0.0,0.0,0.0,0.0,0.0,0.0,0.7581,0.8165,0.9667,1.0682,1.1203,1.2689,1.339,1.339,1.3582,1.3646,1.3572,1.2408,0.0,1.1796,1.1787,0.0,0.0,0.0,0.0,0.0,0.0,0.0,0.0,0.0,0.0,0.0,0.0,0.0,0.0,0.0,0.0,0.0,0.0,0.0,0.0,0.0,0.0,1.5753,1.5933,1.4999,1.4419,1.5576,1.3083,1.0983,1.2219,1.1334,1.0389,0.0,0.0,0.0,0.0,0.0,0.0,1.3848,1.7962,2.0773,2.0337,2.0277,1.9796,1.8568,1.8677,1.8343,1.7299,1.6941,1.6387,1.5586,1.5857,0.0,0.0,0.0,0.0,0.0,0.0,0.0,0.0,0.0,0.0,0.0,0.0,0.0,0.0,0.0,0.0,0.0,0.0,0.0,0.0,0.0,0.0,0.0,0.0,0.0,0.0,0.0,0.0,0.0,0.3642,0.4182,0.5539,0.4585,0.3498,0.0,0.0,0.0,0.0,0.0,0.0,0.0,0.0,0.0,0.4958,0.6411,0.747,0.8025,1.0332,1.1653,1.1961,1.3433,1.4175,1.4185,1.427,1.4307,1.4267,1.3713,1.3409,1.3258,1.2427,1.2015,1.178,0.0,0.0,0.0,0.0,0.7817,0.8419,0.8233,0.9505,1.1196,1.1184,0.0,0.0,0.0,0.0,0.0,0.0,0.0,1.2617,1.3529,1.482,1.605,1.6571,1.6221,1.5978,1.6582,1.4681,1.3068,1.365,1.2761,1.163,1.069,1.1033,0.0,0.0,0.0,1.5199,1.4978,1.8046,1.9901,1.9064,1.9003,1.8496,1.7249,1.7249,1.7064,1.656,1.6529,1.6333,1.5918,1.6158,1.5606,0.0,0.0,0.0,0.0,0.0,0.0,0.0,0.0,0.0,0.0,0.0,0.0,0.0,0.0,0.0,0.0,0.0,0.0,0.0,0.0,0.0,0.0,0.0,0.0,0.0,0.0,0.0,0.0,0.42,0.4389,0.5819,0.5007,0.405,0.0,0.0,0.0,0.0,0.0,0.0,0.4057,0.4385,0.4811,0.5302,0.6823,0.7831,0.8224,1.0469,1.1619,1.168,1.315,1.3847,1.3847,1.4282,1.4436,1.4446,1.4606,1.4682,1.4561,1.3286,1.2655,1.2465,1.2055,1.1109,0.991,0.9452,0.9583,0.9944,0.9673,1.1034,1.2838,1.2616,1.2483,1.2328,1.1687,0.0,0.0,0.0,0.0,1.3105,1.4424,1.5083,1.5607,1.6304,1.6451,1.6451,1.6451,1.534,1.4469,1.5019,1.4237,1.3071,1.1779,1.2384,0.0,1.0902,1.3556,1.5688,1.5659,1.7755,1.8908,1.7991,1.7898,1.7505,1.6547,1.6495,1.6495,1.6495,1.6495,1.6495,1.6495,1.6495,1.6151,1.544,0.0,0.0,0.0,0.0,0.0,0.0,0.0,0.0,0.0,0.0,0.0,0.0,0.0,0.0,0.0,0.0,0.0,0.0,0.0,0.0,0.0,0.0,0.0,0.0,0.0,0.0,0.0,0.0,0.0,0.6542,0.6194,0.0,0.0,0.0,0.0,0.3787,0.3782,0.4092,0.4717,0.603,0.709,0.779,0.918,0.9956,0.9962,1.0109,1.0186,1.0224,1.1835,1.2588,1.2628,1.4183,1.487,1.487,1.488,1.4889,1.488,1.4809,1.4735,1.4586,1.3069,1.2413,1.2135,1.048,1.0913,1.2261,1.1819,1.3002,1.4721,1.4368,1.3205,1.15,0.9203,0.8692,0.0,0.0,1.0155,1.19,1.1679,1.3277,1.4958,1.4987,1.4996,1.4996,1.4996,1.4241,1.4209,1.6434,1.5613,1.4568,1.4644,0.0,1.3974,1.2411,1.3613,1.4619,1.4497,1.6046,1.713,1.7066,1.7066,1.7033,1.6969,1.6969,1.6969,1.6969,1.6969,1.6969,1.6969,1.6969,1.6947,1.6894,1.5765,0.0,0.0,0.0,0.0,0.0,0.0,0.0,0.0,0.0,0.0,0.0,0.0,0.0,0.0,0.0,0.0,0.0,0.0,0.0,0.0,0.0,0.0,0.0,0.0,0.0,0.0,0.0,0.0,0.5428,0.5334,0.0,0.4899,0.4824,0.4725,0.4588,0.4968,0.5346,0.5671,0.5925,0.6189,0.6447,0.6732,0.691,0.6941,0.7876,0.8497,0.8776,1.0025,1.0766,1.1068,1.2349,1.2906,1.2972,1.3866,1.4277,1.4277,1.4277,1.4277,1.4193,1.3401,1.2929,1.2605,1.2004,1.2163,1.2686,1.2491,1.3106,1.3958,1.4048,1.3669,1.2995,1.1925,1.1674,1.1768,1.1893,1.2526,1.3253,1.3575,1.4286,1.4898,1.4898,1.4898,1.4898,1.4898,1.4632,1.4634,1.5502,1.5047,1.458,1.4693,1.55,1.5603,1.4022,1.5137,1.6127,1.6073,1.6625,1.7001,1.7001,1.7001,1.7001,1.7001,1.7001,1.7001,1.7001,1.7001,1.7001,1.7001,1.7001,1.7001,1.7001,1.6592,1.5341,0.0,0.0,0.0,0.0,0.0,0.0,0.0,0.0,0.0,0.0,0.0,0.0,0.0,0.0,0.0,0.0,0.0,0.0,0.0,0.0,0.0,0.0,0.0,0.0,0.0,0.3883,0.4611,0.4855,0.4864,0.4999,0.5295,0.5163,0.5113,0.5185,0.5619,0.5866,0.5825,0.5598,0.5454,0.5454,0.5281,0.522,0.5271,0.6221,0.6845,0.7145,0.8472,0.9552,1.0332,1.1547,1.2091,1.2161,1.3623,1.3949,1.3506,1.4035,1.4201,1.4059,1.3706,1.3391,1.3161,1.3161,1.3161,1.3161,1.3161,1.3161,1.3268,1.3621,1.3654,1.349,1.3268,1.3202,1.3277,1.3699,1.3839,1.3989,1.459,1.4774,1.4774,1.4774,1.4774,1.4774,1.4774,1.4484,1.4414,1.503,1.4856,1.4552,1.4297,1.5143,1.5286,1.3605,1.4518,1.5262,1.4966,1.5685,1.6198,1.6198,1.6467,1.6742,1.6969,1.6087,1.5919,1.6937,1.6265,1.6255,1.7109,1.6297,1.5846,1.5888,1.5186,1.4191,1.2908,0.0,0.0,0.0,0.0,0.0,0.0,0.0,0.0,0.0,0.0,0.0,0.0,0.0,0.0,0.0,0.0,0.0,0.0,0.0,0.0,0.0,0.0,0.0,0.363,0.4062,0.4576,0.4984,0.4998,0.5326,0.6078,0.5797,0.5576,0.5579,0.5579,0.5451,0.5129,0.5154,0.5188,0.5188,0.5295,0.5369,0.5366,0.5379,0.5386,0.5423,0.7249,0.8917,1.0407,1.1891,1.2542,1.2597,1.4208,1.405,1.2778,1.4334,1.4762,1.4454,1.4042,1.3892,1.3892,1.3892,1.3892,1.3892,1.3825,1.3383,1.2889,1.3285,1.3153,1.2815,1.2815,1.2856,1.2955,1.3562,1.3713,1.3856,1.4377,1.4489,1.4489,1.4489,1.4489,1.4489,1.4489,1.3672,1.346,1.5227,1.52,1.4636,1.3859,1.3691,1.3091,1.135,1.1816,0.0,1.1188,1.319,1.4692,1.4692,1.5422,1.6225,1.6958,1.425,1.3817,1.684,1.4941,1.485,1.7324,1.5043,1.3769,1.381,1.1772,1.1957,1.448,0.0,0.0,0.0,0.0,0.0,0.0,0.0,0.0,0.0,0.0,0.0,0.0,0.0,0.0,0.0,0.0,0.0,0.0,0.0,0.0,0.0,0.4641,0.5004,0.4377,0.476,0.5193,0.5396,0.5206,0.5163,0.5376,0.5315,0.5272,0.5298,0.5301,0.5326,0.5314,0.4907,0.4655,0.4635,0.4466,0.4377,0.4302,0.4876,0.5301,0.5546,0.6079,0.6672,0.7438,0.8599,0.9759,1.0873,1.2312,1.3341,1.3977,1.4146,1.4156,1.4045,1.3942,1.3764,1.3527,1.3527,1.3527,1.336,1.2186,1.2417,1.3256,1.3358,1.3493,1.3595,1.3595,1.3798,1.4077,1.4222,1.4274,1.4317,1.448,1.4489,1.4489,1.4489,1.4489,1.4489,1.4489,1.4267,1.421,1.4699,1.4706,1.4937,1.6039,1.5978,1.5718,1.5512,1.542,1.542,1.5451,1.6074,1.6496,1.6496,1.5278,1.5216,1.7,1.4911,1.465,1.7355,1.6923,1.688,1.7571,1.6955,1.6571,1.6601,1.4431,1.3558,0.0,0.0,0.0,0.0,0.0,0.0,0.0,0.0,0.0,0.0,0.0,0.0,0.0,0.0,0.0,0.0,0.0,0.0,0.0,0.0,0.0,0.0,0.4889,0.5139,0.4752,0.4903,0.5164,0.5415,0.5007,0.4855,0.5181,0.5112,0.5046,0.5055,0.5087,0.5088,0.5028,0.4679,0.4482,0.4398,0.4281,0.418,0.4111,0.4585,0.5286,0.6089,0.6298,0.7187,0.8693,0.9338,1.0121,1.1015,1.2513,1.3299,1.3553,1.413,1.4292,1.4101,0.0,0.0,0.0,0.0,1.3402,1.3261,1.2349,1.2631,1.3402,1.3402,1.354,1.3677,1.3677,1.3436,1.321,1.3459,1.3099,1.2833,1.3666,1.3861,1.399,1.457,1.4701,1.4701,1.4701,1.4391,1.4221,1.4639,1.4382,0.0,1.624,1.5766,1.5005,1.4461,1.4658,1.479,1.4658,1.5678,1.6391,1.6391,1.5615,1.5704,1.7278,1.5059,0.0,0.0,0.0,1.6284,1.6284,1.6386,0.0,0.0,0.0,1.3828,1.4799,1.369,0.0,0.0,1.3839,1.2916,0.0,0.0,0.0,0.0,0.0,0.0,0.0,0.0,0.0,0.0,0.0,0.0,0.0,0.0,0.0,0.0,0.5053,0.5261,0.5091,0.4987,0.4965,0.5152,0.4601,0.4494,0.5231,0.5055,0.4918,0.485,0.4941,0.487,0.4517,0.4455,0.0,0.0,0.0,0.4793,0.4898,0.5024,0.5835,0.724,0.7726,0.9404,1.2115,1.2123,1.2229,1.2454,1.3821,1.3757,1.2766,1.444,1.4935,1.4571,1.378,1.3467,1.3459,1.3336,1.341,1.3553,1.3437,0.0,0.0,1.3663,1.3697,1.3732,1.3732,1.2896,1.2044,1.2619,1.1902,1.1328,1.3101,1.3552,1.3867,1.5053,1.5328,1.5328,1.5328,1.4634,1.4268,1.5158,1.4616,1.4384,1.5669,1.4486,1.2895,1.1417,1.2142,1.2609,1.1945,1.408,1.5623,1.5623,1.6172,0.0,1.7727,1.5108,1.4692,1.7686,1.5958,1.483,1.483,1.5054,1.4345,1.2562,1.2709,1.3951,1.6259,1.6367,1.736,1.9017,1.4718,1.3889,0.0,0.0,0.0,0.0,0.0,0.0,0.0,0.0,0.0,0.0,0.0,0.0,0.0,0.0,0.0,0.4674,0.6116,0.7161,0.6842,0.6851,0.6381,0.5111,0.4601,0.4453,0.4649,0.4913,0.4919,0.4605,0.4896,0.4905,0.4517,0.43,0.4726,0.5886,0.6036,0.6668,0.7864,0.8528,0.9228,0.9931,1.0365,0.0,1.2162,1.1858,1.2567,1.403,1.4018,1.4731,1.5893,1.594,1.5757,1.5356,1.4223,1.3798,1.369,1.2905,1.3419,1.4428,1.3617,1.417,1.5241,1.5241,1.5423,1.565,1.565,1.5696,0.0,1.6266,1.6195,1.6135,1.6845,1.7021,1.7116,1.7359,1.7418,1.7418,1.7418,1.7283,1.7184,1.7369,1.7247,1.7229,1.7478,1.5929,1.4859,1.5424,1.5462,1.574,1.6499,1.7192,1.7656,1.7656,1.6384,1.6338,1.8246,1.6274,1.602,1.866,1.8439,1.8174,1.8174,1.8223,1.8058,1.7672,1.7722,1.797,1.8492,1.8499,1.8742,1.906,1.8149,1.7973,0.0,0.0,0.0,0.0,0.0,0.0,0.0,0.0,0.0,0.0,0.0,0.507,0.5828,0.0,0.4981,0.5641,0.5858,0.6268,0.7228,0.7121,0.6743,0.6229,0.5128,0.4762,0.5559,0.5877,0.625,0.6809,0.7066,0.7127,0.6914,0.7061,0.7458,0.8178,0.8559,0.8977,0.9506,0.9948,1.0559,1.1408,1.1593,1.2261,1.3304,1.3081,1.3527,1.4424,1.4239,1.4683,1.5578,1.5393,1.5209,1.5007,1.4383,1.4281,1.4413,1.3652,1.3912,1.4537,1.4022,1.4375,1.5061,1.5061,1.5467,1.5947,1.5947,1.5894,1.5843,1.6053,1.563,1.5313,1.6154,1.6403,1.6574,1.7289,1.7453,1.7453,1.7453,1.7453,1.7453,1.7453,1.7453,1.7453,1.7453,1.6623,1.6264,1.7211,1.7391,1.7606,1.817,1.85,1.8647,1.8647,1.7767,1.7649,1.8752,1.7854,1.7729,1.9028,1.9118,1.9118,1.9118,1.9226,1.9344,1.9499,1.958,1.9698,1.9854,1.9854,1.9854,1.9854,1.9854,1.9725,0.0,0.0,0.0,0.0,0.0,0.0,0.0,0.5563,0.5686,0.5375,0.5582,0.6089,0.6994,0.6221,0.5874,0.7173,0.6439,0.6341,0.8109,0.7986,0.7931,0.8518,0.6667,0.5925,0.7341,0.7558,0.8188,0.9459,0.9663,0.9708,0.9577,0.9981,1.0335,1.0549,1.0978,1.119,1.1103,1.1141,1.1705,1.2723,1.2723,1.3409,1.4761,1.4687,1.4687,1.4761,1.4761,1.4761,1.4761,1.4761,1.4761,1.4724,1.4649,1.4948,1.5357,1.4794,1.4555,1.46,1.4894,1.4985,1.5022,1.5171,1.5692,1.6249,1.6249,1.5927,1.5556,1.5624,1.488,1.4294,1.5499,1.5786,1.6075,1.7219,1.746,1.746,1.746,1.746,1.746,1.746,1.7499,1.7529,1.7529,1.7595,1.7724,1.7959,1.8268,1.855,1.867,1.8968,1.9183,1.9183,1.9226,1.9269,1.9312,1.9365,1.9387,1.9387,1.9387,1.9387,1.9387,1.9607,1.9827,2.0022,2.0177,2.0371,2.0604,2.0604,2.0604,2.0604,2.0604,2.0399,0.5449,0.5385,0.5222,0.4946,0.6018,0.7195,0.0,0.832,0.8923,0.7494,0.8261,0.8789,0.7575,0.8328,0.9126,0.912,1.0446,1.1562,1.1805,1.1979,1.2316,1.2829,1.0242,0.8765,0.973,1.0104,1.0413,1.0786,1.1138,1.11,1.0578,1.0435,1.094,1.2092,1.2029,1.2593,1.3911,1.3932,1.4282,1.4923,1.4923,1.5316,1.5989,1.5637,1.5675,1.5989,1.5989,1.5989,1.5989,1.5989,1.5989,1.5951,1.5599,1.5943,1.6487,1.5554,1.5194,1.5361,1.6641,1.7046,1.716,1.7891,1.8184,1.827,1.827,1.8218,1.823,1.8605,1.8614,1.8626,1.9197,1.934,1.9372,1.9548,1.958,1.958,1.958,1.958,1.958,1.958,1.9713,1.9824,1.9824,2.0032,1.9692,1.8224,1.8029,1.8295,1.8962,1.929,1.9456,1.9456,1.9687,1.9892,2.0081,2.0285,2.0442,2.0442,2.0442,2.0442,2.0442,2.0464,2.0496,2.0518,2.055,2.0572,2.0604,2.0604,2.0604,2.0604,2.0604,2.0572,0.6465,0.672,0.6787,0.5585,0.734,0.9083,0.7975,0.8801,0.9644,0.9188,0.9423,0.9812,0.9942,0.994,1.0128,1.0765,1.1077,1.1667,1.293,1.3034,1.3512,1.4945,1.2524,1.0624,1.0236,1.1305,1.1935,1.1727,1.2769,1.3307,1.3057,1.3185,1.3521,1.4056,1.4342,1.4665,1.5089,1.5455,1.5625,1.5633,1.6014,1.6303,1.6546,1.6381,1.632,1.6409,1.6796,1.6904,1.6796,1.7146,1.7309,1.727,1.7114,1.727,1.7418,1.6254,1.6218,1.6832,1.7414,1.772,1.7853,1.8203,1.863,1.9027,1.9027,1.9376,1.9801,1.9955,1.9994,2.0071,2.0264,2.0302,2.0302,2.0302,2.0302,2.0302,2.0302,2.0302,2.0302,2.0302,2.0388,2.0414,2.0414,2.0539,2.0347,1.9635,1.9506,1.962,1.9935,2.0059,2.0151,2.0151,2.0237,2.0345,2.0453,2.055,2.0604,2.0604,2.0604,2.0604,2.0604,2.0604,2.0669,2.0759,2.0759,2.0834,2.1014,2.1014,2.1014,2.1014,2.1014,2.1293,0.7363,0.7804,0.8075,0.7166,0.9119,1.0927,0.9665,1.0326,1.1206,1.1094,1.1229,1.1565,1.2117,1.1942,1.1981,1.2795,1.2388,1.2495,1.403,1.4115,1.4488,1.5885,1.4336,1.2423,1.0665,1.1969,1.3032,1.336,1.4451,1.5157,1.5268,1.5503,1.5759,1.5987,1.6371,1.6478,1.6276,1.6727,1.6798,1.6494,1.695,1.718,1.718,1.718,1.7099,1.6964,1.7462,1.7601,1.7462,1.7925,1.811,1.811,1.811,1.8228,1.8308,1.7419,1.741,1.7891,1.8125,1.8299,1.8464,1.87,1.9172,1.9654,1.9654,2.0085,2.0604,2.0604,2.0604,2.0604,2.0604,2.0604,2.0604,2.0604,2.0604,2.0604,2.0604,2.0604,2.0604,2.0604,2.0647,2.069,2.069,2.0755,2.0798,2.0798,2.0798,2.0755,2.0615,2.0604,2.0604,2.0604,2.0658,2.069,2.069,2.0755,2.0798,2.0798,2.0798,2.0798,2.0798,2.0798,2.0874,2.1007,2.1007,2.1093,2.1316,2.1251,2.13,2.1541,2.1464,2.1991,0.766,0.7983,0.8212,0.9837,1.1361,1.2562,1.2958,1.4135,1.4754,1.3452,1.4397,1.4982,1.3527,1.4612,1.5704,1.5594,1.5722,1.5858,1.5922,1.6077,1.6057,1.5662,1.5725,1.4565,1.1453,1.2107,1.372,1.6183,1.6244,1.633,1.6703,1.6555,1.6856,1.7709,1.7564,1.7627,1.8012,1.8061,1.8061,1.8021,1.807,1.807,1.807,1.807,1.807,1.8061,1.807,1.807,1.8061,1.811,1.811,1.811,1.811,1.8582,1.9251,1.9241,1.873,1.8218,1.8966,1.9251,1.9408,2.0241,2.0526,2.0565,2.0565,2.0565,2.0604,2.0604,2.0604,2.0604,2.0604,2.0604,2.0604,2.0604,2.0604,2.0604,2.0604,2.0604,2.0604,2.0604,2.0737,2.0888,2.0888,2.1093,2.1295,2.1295,2.1295,2.1133,2.0658,2.0604,2.0604,2.0604,2.0759,2.0888,2.0888,2.1114,2.1295,2.1295,2.1295,2.1295,2.1295,2.1295,2.1265,2.1305,2.1305,2.1305,2.1316,2.1028,2.1318,2.2072,2.1861,2.2629,0.802,0.9664,1.1349,1.0899,1.2882,1.4725,1.3839,1.4612,1.545,1.5257,1.5001,1.4396,1.3097,1.3728,1.4317,1.3959,1.4186,1.495,1.6525,1.5399,1.5201,1.7227,1.5475,1.4708,1.625,1.5672,1.4992,1.4484,1.6424,1.773,1.7846,1.7657,1.7691,1.8005,1.7914,1.7952,1.811,1.849,1.8717,1.8717,1.9143,1.9373,1.9373,1.9373,1.9304,1.9175,1.9564,1.9664,1.9612,2.0045,2.0227,2.0227,2.0227,2.0387,2.0628,2.0628,2.0467,2.0246,2.0319,2.049,2.0668,2.0959,2.1079,2.1079,2.1079,2.1079,2.1079,2.1079,2.1079,2.1079,2.1079,2.1079,2.1079,2.1079,2.1079,2.1079,2.1079,2.1079,2.1079,2.1079,2.1103,2.1147,2.1147,2.1082,2.0974,2.0863,2.1111,2.1222,2.11,2.1079,2.1079,2.1079,2.1144,2.1082,2.092,2.0985,2.0963,2.0852,2.0842,2.0842,2.0842,2.0842,2.0842,2.0842,2.0842,2.1118,2.162,2.1738,2.2168,2.2957,2.308,2.3708,0.9717,1.1735,1.357,1.2988,1.4883,1.6548,1.5212,1.57,1.6436,1.6522,1.5901,1.5008,1.3879,1.4123,1.4387,1.4102,1.4367,1.5316,1.7292,1.6286,1.6056,1.7949,1.619,1.5687,1.7794,1.7597,1.6515,1.4565,1.6432,1.7691,1.7806,1.7827,1.8183,1.8966,1.8976,1.9055,1.9254,1.9634,1.9836,1.9836,2.0261,2.0455,2.0455,2.0455,2.0061,1.9429,2.0434,2.0448,1.9825,2.0884,2.1316,2.1316,2.1316,2.1316,2.1316,2.1316,2.1316,2.1295,2.1093,2.1147,2.1316,2.1316,2.1316,2.1316,2.1316,2.1316,2.1316,2.1316,2.1316,2.1316,2.1316,2.1316,2.1295,2.1168,2.1147,2.1125,2.1079,2.1068,2.1068,2.1068,2.1068,2.1068,2.1068,2.0928,2.0737,2.0626,2.0863,2.1068,2.1068,2.1068,2.1068,2.1068,2.1068,2.0993,2.0791,2.078,2.0755,2.0615,2.0604,2.0604,2.0604,2.068,2.0723,2.0723,2.0998,2.1278,2.1603,2.2199,2.2784,2.343,2.3818,2.4508,1.2473,1.395,1.4792,1.5943,1.7196,1.7857,1.6889,1.7308,1.7712,1.7102,1.7005,1.6648,1.557,1.5536,1.5712,1.5791,1.6129,1.685,1.8162,1.8455,1.8344,1.7882,1.7842,1.7479,1.6552,1.7973,1.8212,1.6477,1.6479,1.6679,1.6998,1.733,1.8463,2.0586,2.0627,2.083,2.1316,2.1316,2.1316,2.1316,2.1316,2.1276,2.1295,2.1295,2.0421,1.8961,2.0554,2.0378,1.904,2.0626,2.1295,2.1295,2.1284,2.1295,2.1295,2.1284,2.1243,2.1243,2.1243,2.1295,2.1316,2.1316,2.1305,2.1295,2.1295,2.1295,2.1243,2.1243,2.1243,2.1243,2.1243,2.1243,2.1179,2.0942,2.0888,2.0823,2.0647,2.0604,2.0604,2.0604,2.0604,2.0604,2.0583,2.0583,2.0583,2.0572,2.0572,2.0583,2.0604,2.0604,2.0604,2.0604,2.0604,2.0604,2.0604,2.0604,2.0604,2.0604,2.0604,2.0604,2.0604,2.078,2.0899,2.0899,2.1715,2.1889,2.1438,2.2588,2.3302,2.3584,2.4158,2.5011,1.2296,1.4077,1.6241,1.6732,1.6972,1.6945,1.6436,1.7075,1.7329,1.5784,1.5478,1.4795,1.2581,1.2576,1.3231,1.4181,1.4395,1.5206,1.7467,1.6911,1.6763,1.8156,1.8285,1.8695,1.9894,2.0405,2.0008,1.8496,1.9375,2.0072,2.0135,2.0214,2.0541,2.1103,2.1114,2.1195,2.1316,2.1316,2.1316,2.1316,2.1316,2.1179,2.0996,2.0996,2.0673,2.0173,2.0593,2.0539,2.0183,2.0604,2.0885,2.0985,2.0852,2.0885,2.0974,2.0852,2.0788,2.0788,2.0788,2.1025,2.1316,2.1316,2.1147,2.0996,2.0996,2.0917,2.0788,2.0788,2.0788,2.0788,2.0788,2.0788,2.0766,2.0701,2.069,2.0669,2.0615,2.0604,2.0604,2.0604,2.0604,2.055,2.0339,2.0307,2.0242,2.0097,2.0227,2.0361,2.0583,2.0604,2.0604,2.0604,2.0604,2.0604,2.0604,2.0604,2.0604,2.0604,2.0604,2.0604,2.0604,2.078,2.0899,2.0899,2.1951,2.2676,2.3187,2.4369,2.5284,2.5961,2.6346,2.6693,1.4686,1.6148,1.7714,1.7297,1.7612,1.7688,1.6451,1.7103,1.742,1.5462,1.5274,1.4825,1.2936,1.2756,1.3351,1.4687,1.4879,1.5587,1.7689,1.7354,1.7409,1.8796,1.8901,1.952,2.1147,2.1316,2.0956,2.0135,2.0337,2.0461,2.0344,2.0461,2.0737,2.1265,2.1316,2.1222,2.1114,2.1114,2.106,2.1003,2.1003,2.0888,2.0748,2.0748,2.0324,1.9558,2.0281,2.0183,1.9569,2.0302,2.068,2.0737,2.0647,2.068,2.0737,2.0647,2.0604,2.0604,2.0604,2.0777,2.1003,2.1003,2.0906,2.0748,2.0748,2.0701,2.0604,2.0604,2.0604,2.0604,2.0604,2.0604,2.0572,2.0436,2.0404,2.0421,2.0313,2.0291,2.0324,2.0432,2.0404,2.0436,2.05,2.0511,2.0511,2.0518,2.0597,2.0727,2.0895,2.082,2.0716,2.0716,2.0852,2.0917,2.0917,2.0917,2.0917,2.0917,2.0917,2.0917,2.0917,2.1494,2.1827,2.1827,2.3201,2.4017,2.4219,2.5511,2.6235,2.6447,2.7025,2.7376,1.7667,1.8551,1.8855,1.774,1.8509,1.9011,1.6877,1.7361,1.7729,1.575,1.5689,1.5711,1.475,1.4438,1.4781,1.6171,1.6417,1.6847,1.8018,1.8581,1.9001,1.9247,1.9402,1.9962,2.1168,2.1176,2.1154,2.1305,2.0317,1.9623,1.9398,1.9623,2.0188,2.12,2.1241,2.1082,2.0856,2.0856,2.0759,2.0604,2.0604,2.0583,2.055,2.055,1.9752,1.8412,1.9881,1.9687,1.8444,1.9914,2.0529,2.055,2.0518,2.0529,2.055,2.0628,2.0628,2.0639,2.0704,2.0726,2.0726,2.0615,2.0583,2.055,2.055,2.0529,2.0507,2.0507,2.0507,2.0507,2.0507,2.0507,2.0464,2.0253,2.021,2.0177,2.0054,2.0054,2.014,2.0317,2.0361,2.0479,2.0888,2.0953,2.1028,2.1243,2.1308,2.1319,2.1319,2.1103,2.0953,2.0953,2.1147,2.1327,2.1319,2.1319,2.1381,2.1402,2.1495,2.1576,2.1576,2.2653,2.3282,2.3282,2.4902,2.5489,2.4982,2.6347,2.6755,2.6293,2.7088,2.7563,1.687,1.7571,1.8649,1.842,1.8571,1.8649,1.8134,1.8071,1.7654,1.5964,1.5484,1.518,1.4613,1.4782,1.5419,1.6683,1.7047,1.7043,1.6518,1.8125,1.9024,1.8108,1.8896,1.9962,2.1168,2.0382,2.0221,2.12,2.1122,2.0974,2.0924,2.0974,2.0963,2.0974,2.082,2.0701,2.0658,2.0658,2.0637,2.0604,2.0604,2.0457,2.0274,2.0274,2.0005,1.9601,1.9881,1.9849,1.9601,1.9892,2.013,2.0253,2.0086,2.013,2.0313,2.0698,2.0852,2.0908,2.1306,2.1439,2.1327,2.0776,2.0436,2.0274,2.0274,2.0134,2.0011,2.0011,2.0011,2.0011,2.0011,2.0011,2.0054,2.0177,2.021,2.0307,2.0651,2.0877,2.1079,2.1082,2.1093,2.1125,2.12,2.1211,2.1273,2.1276,2.1437,2.1556,2.1556,2.1362,2.1211,2.1211,2.1254,2.1351,2.1545,2.1556,2.1642,2.1877,2.2552,2.2966,2.2966,2.408,2.4723,2.4723,2.5949,2.655,2.6432,2.7475,2.7894,2.7822,2.7989,2.8058,1.7882,1.8418,1.9295,1.8957,1.9069,1.889,1.7444,1.7438,1.7107,1.4945,1.4591,1.4611,1.4382,1.4541,1.5285,1.7063,1.7461,1.7615,1.781,1.8778,1.9284,1.8713,1.9155,1.9725,2.0296,1.9833,1.9736,2.0307,2.0242,2.0436,2.105,2.0974,2.0895,2.0727,2.0658,2.0539,2.0382,2.0382,2.0356,2.0227,2.0227,2.0237,2.021,2.021,2.0285,2.0432,2.0432,1.9946,1.9187,2.0227,2.0081,1.9344,2.0253,2.0701,2.0809,2.1046,2.1125,2.1158,2.1377,2.1464,2.1402,2.1054,2.0895,2.077,2.077,2.0723,2.0626,2.0626,2.0626,2.0626,2.0626,2.0626,2.0658,2.0737,2.077,2.0834,2.105,2.119,2.1308,2.1437,2.1459,2.1534,2.1782,2.1825,2.1868,2.1997,2.2105,2.2169,2.2169,2.2072,2.1965,2.1846,2.1933,2.2051,2.2159,2.2633,2.2941,2.3094,2.3898,2.4404,2.4404,2.5409,2.6002,2.6002,2.7015,2.7545,2.7545,2.7968,2.8179,2.8179,2.8179,2.8179,1.9087,1.9468,1.9929,1.9385,1.9618,1.9365,1.7113,1.6999,1.6754,1.4417,1.4099,1.4288,1.4589,1.4654,1.5343,1.7453,1.7626,1.7873,1.8961,1.9165,1.9273,1.9478,1.9499,1.9596,1.9854,1.965,1.9585,1.979,1.9548,1.9854,2.078,2.0701,2.0604,2.0604,2.0604,2.0518,2.0285,2.0285,2.0221,2.0108,2.0108,2.0237,2.0447,2.0447,2.064,2.0985,2.0985,2.0037,1.8613,2.0511,2.0188,1.8656,2.0554,2.1316,2.1327,2.1451,2.1513,2.1535,2.1633,2.1665,2.1676,2.1607,2.1437,2.1316,2.1316,2.1316,2.1316,2.1316,2.1316,2.1316,2.1316,2.1316,2.1327,2.134,2.1426,2.1502,2.1502,2.1545,2.1631,2.1814,2.1846,2.1965,2.2299,2.2406,2.2471,2.2654,2.2686,2.2772,2.2988,2.2988,2.2998,2.2982,2.2997,2.2988,2.2988,2.3849,2.4395,2.4395,2.5208,2.5708,2.5708,2.6613,2.708,2.708,2.7799,2.8179,2.8179,2.8179,2.8179,2.8179,2.8179,2.8179,1.9459,1.9756,1.9887,1.9827,1.9984,1.9913,1.9017,1.8076,1.7098,1.5978,1.4923,1.4589,1.5881,1.6118,1.6549,1.7852,1.7368,1.7055,1.7776,1.8078,1.8541,1.9402,1.9499,1.9919,2.1046,2.0134,1.9854,2.0716,2.0565,2.0518,2.0626,2.0615,2.0604,2.0604,2.0604,2.0593,2.0572,2.0572,2.0669,2.0802,2.0802,2.0942,2.1179,2.1179,2.12,2.1243,2.1243,2.0296,1.8885,2.0615,2.0324,1.8918,2.0658,2.1316,2.1378,2.1962,2.2203,2.227,2.2713,2.2825,2.2827,2.261,2.1976,2.1316,2.1316,2.1316,2.1316,2.1316,2.1316,2.1316,2.1316,2.1316,2.133,2.1534,2.1922,2.2192,2.2192,2.2406,2.2557,2.2579,2.2589,2.26,2.2643,2.2654,2.2654,2.2675,2.2686,2.3031,2.3849,2.3978,2.4267,2.5032,2.4426,2.3978,2.3978,2.478,2.5281,2.5281,2.6146,2.6656,2.6656,2.7545,2.8065,2.8065,2.815,2.8179,2.8179,2.8179,2.8179,2.8179,2.8179,2.8179,1.8167,1.9047,2.0102,2.0281,2.0457,2.0188,1.8476,1.7819,1.7077,1.5297,1.4514,1.4406,1.5088,1.5354,1.5838,1.7066,1.6947,1.7238,1.8813,1.8972,1.9348,2.0436,2.0565,2.0479,2.0231,1.9779,1.9596,1.9795,1.9731,1.9962,2.0572,2.0604,2.0604,2.0604,2.0734,2.077,2.077,2.096,2.1039,2.1125,2.1125,2.1254,2.148,2.148,2.1642,2.1911,2.1911,2.0479,1.8347,2.1017,2.0554,1.8412,2.1082,2.2126,2.2179,2.2434,2.2552,2.2584,2.2738,2.2803,2.2814,2.274,2.2428,2.2126,2.2126,2.2126,2.2126,2.2126,2.2126,2.2126,2.2126,2.2126,2.2148,2.2234,2.2406,2.2546,2.2546,2.2611,2.2686,2.2686,2.2686,2.2686,2.2686,2.316,2.3548,2.3548,2.4009,2.4469,2.4823,2.4866,2.5037,2.5367,2.5068,2.4866,2.4866,2.572,2.6231,2.6231,2.7122,2.7722,2.7863,2.8247,2.8511,2.8684,2.8684,2.8684,2.8684,2.8684,2.8684,2.8684,2.8684,2.8684,1.7639,1.8896,2.0371,2.0647,2.0522,1.9876,1.7927,1.7335,1.6624,1.4611,1.4326,1.4451,1.4476,1.4813,1.5373,1.6408,1.6645,1.7292,1.9008,1.918,1.9499,2.0619,2.0748,2.0565,2.007,1.9962,1.9876,1.9752,1.9741,2.0102,2.0834,2.0982,2.096,2.082,2.106,2.1222,2.1222,2.1394,2.1564,2.1588,2.1588,2.1491,2.1319,2.1739,2.1889,2.1836,2.2256,2.0881,1.8681,2.1513,2.1017,1.8735,2.1577,2.2859,2.3074,2.2816,2.2902,2.3074,2.2816,2.2686,2.2686,2.2686,2.2902,2.3117,2.3117,2.2902,2.2686,2.2686,2.2686,2.2686,2.2686,2.2686,2.2772,2.3074,2.3117,2.3193,2.3451,2.3494,2.3494,2.3494,2.3494,2.3494,2.3494,2.4052,2.4481,2.4481,2.5025,2.5519,2.5903,2.5915,2.6081,2.6412,2.6467,2.6302,2.5958,2.6858,2.7465,2.7465,2.8063,2.8511,2.8724,2.8738,2.8831,2.8988,2.9001,2.9001,2.9001,2.9001,2.9001,2.9001,2.9001,2.8945,1.8444,1.9676,2.0647,2.0845,1.9989,1.8882,1.7904,1.6839,1.5653,1.4439,1.4609,1.4884,1.4563,1.4981,1.5579,1.6192,1.6548,1.6947,1.7636,1.7949,1.8455,1.9402,1.9521,1.9973,2.1187,2.1039,2.0985,2.1284,2.1295,2.1362,2.1599,2.1825,2.178,2.1327,2.1758,2.1996,2.1996,2.1996,2.2083,2.2278,2.2278,2.1706,2.0658,2.2029,2.1953,2.0701,2.2072,2.1728,2.0317,2.1997,2.1696,2.035,2.2029,2.329,2.3978,2.3031,2.329,2.3935,2.3031,2.2686,2.2686,2.2686,2.3333,2.4106,2.4106,2.3462,2.2686,2.2686,2.2686,2.2686,2.2686,2.2686,2.2945,2.3849,2.4106,2.4321,2.5196,2.5367,2.5367,2.5367,2.5367,2.5367,2.5367,2.5367,2.5409,2.5409,2.5409,2.5848,2.7035,2.7203,2.765,2.8831,2.8945,2.8478,2.7271,2.8295,2.8988,2.8988,2.8988,2.8988,2.8988,2.8988,2.8988,2.9001,2.9001,2.9001,2.9001,2.9001,2.9001,2.9001,2.9001,2.8727,1.6463,1.7475,1.8479,1.867,1.8409,1.7807,1.656,1.6138,1.5574,1.4045,1.4406,1.4856,1.4385,1.49,1.5663,1.6459,1.6484,1.7066,1.8954,1.9101,1.9467,2.0587,2.0716,2.0867,2.1243,2.0647,2.0593,2.1448,2.091,2.0931,2.1814,2.2083,2.2083,2.1782,2.2062,2.2223,2.2223,2.2374,2.2492,2.2568,2.2568,2.1868,2.0647,2.2082,2.1953,2.068,2.2104,2.2209,2.1463,2.3036,2.3116,2.242,2.331,2.4181,2.4866,2.3966,2.4224,2.494,2.464,2.4555,2.4555,2.4555,2.4726,2.4994,2.4994,2.4769,2.4555,2.4555,2.4555,2.4555,2.4555,2.4555,2.4598,2.4909,2.4994,2.5068,2.5324,2.5409,2.5409,2.5409,2.5409,2.547,2.5694,2.6247,2.6696,2.6927,2.7485,2.8,2.8395,2.8421,2.8578,2.8945,2.9219,2.9087,2.8491,2.8761,2.9001,2.9001,2.9001,2.9081,2.9339,2.9339,2.9432,2.9588,2.9633,2.9633,2.9633,2.9633,2.9455,2.9144,2.9144,2.9397,1.5526,1.6603,1.754,1.768,1.7313,1.6689,1.5795,1.5329,1.4779,1.3803,1.4631,1.5248,1.4353,1.5152,1.5906,1.5788,1.6355,1.7206,1.8263,1.8673,1.9101,1.9844,2.0339,2.0823,2.1351,2.0867,2.0895,2.1685,2.1297,2.133,2.2062,2.2331,2.2395,2.2256,2.2395,2.246,2.246,2.2611,2.2686,2.2686,2.2686,2.1974,2.0647,2.2406,2.2452,2.1189,2.2941,2.3515,0.0,2.4212,2.4371,2.4154,2.4446,2.5123,2.5805,2.4909,2.5165,2.5903,2.5659,2.5597,2.5621,2.573,2.597,2.6315,2.6659,2.6124,2.5409,2.5409,2.5409,2.5409,2.5409,2.5482,2.5683,2.5995,2.6198,2.6358,2.6714,2.6745,2.6745,2.6745,2.6745,2.6807,2.7027,2.7541,2.7952,2.8165,2.864,2.9041,2.9192,2.9205,2.9245,2.9308,2.9539,2.9566,2.9348,2.9322,2.9322,2.9322,2.9322,2.9415,2.9633,2.9646,2.9726,2.9913,2.9913,2.9913,2.9913,2.9734,2.951,2.9182,2.8822,2.9349,0.0,1.6624,1.7431,1.7431,1.6463,1.5472,1.5451,1.4439,0.0,1.3836,1.5238,1.599,1.4558,1.5726,1.6362,1.4602,1.6237,1.7335,1.6257,1.7098,1.7819,1.77,1.8864,2.0134,2.1373,2.1599,2.176,2.2017,2.2265,2.2448,2.2448,2.2739,2.2902,2.2902,2.2902,2.2816,2.2686,2.2772,2.2718,2.2535,2.2761,2.2087,2.0613,2.3071,2.3407,2.2128,2.4431,2.5452,2.5495,2.5495,2.5549,2.5604,2.5562,2.6098,2.6847,2.5897,2.6153,2.6885,2.6321,2.6104,2.6141,2.6409,2.7065,2.7928,2.8727,2.7426,2.5683,2.5683,2.5683,2.5683,2.5683,2.5909,2.6321,2.7142,2.7562,2.8016,2.8814,2.9001,2.9001,2.9001,2.9001,2.9001,2.9028,2.9028,2.9028,2.9055,2.9055,2.9161,2.9486,2.9513,2.9619,2.9887,2.9913,2.9913,2.9913,2.9913,2.9913,2.9913,2.9913,2.9913,2.9913,2.9913,2.9913,2.9913,2.9913,2.9869,2.9869,2.9407,2.9182,2.9092,2.8146,2.8719,1.4434,0.0,1.502,1.502,1.4622,1.4191,0.0,1.3857,1.3911,1.4514,1.5737,1.6417,1.5445,1.6865,1.762,1.5853,1.6764,1.7626,1.7346,1.8326,1.8745,1.7796,1.9736,2.0899,2.0356,2.1416,2.2149,2.2202,2.3154,2.3673,2.3673,2.436,2.4769,2.4769,2.4769,2.4084,2.2729,2.3419,2.2852,2.1111,2.3576,2.3091,2.0086,2.3521,2.4334,2.305,2.468,2.5793,2.6486,2.6486,2.7008,2.7757,2.7058,2.75,2.8399,2.7475,2.7736,2.8455,2.8334,2.8274,2.8287,2.8352,2.8509,2.8727,2.8958,2.8591,2.8169,2.8169,2.8169,2.8169,2.8169,2.8221,2.8317,2.8534,2.8644,2.8727,2.8945,2.9001,2.9001,2.9001,2.9001,2.9068,2.9339,2.9379,2.9459,2.9673,2.9713,2.974,2.9806,2.982,2.9847,2.9913,2.9913,2.9913,2.9913,2.9913,2.9913,2.9913,2.9913,2.9913,2.9913,2.9913,2.9913,2.9913,2.9913,2.9734,2.9362,2.9272,2.8822,2.8056,2.783,2.8526,1.4094,1.4191,1.432,1.4898,1.4331,1.3803,1.4331,1.3954,1.3814,1.4977,1.5772,1.6147,1.5845,1.6565,1.6944,1.6115,1.6398,1.7377,1.9193,1.999,2.0179,1.9537,2.0131,2.0602,2.0689,2.2432,2.3605,2.3707,2.4314,2.4695,2.4695,2.5153,2.5409,2.5409,2.5409,2.494,2.3955,2.4438,2.3506,2.124,2.4027,2.3753,2.0881,2.4409,2.562,2.4911,2.5157,2.6134,2.7575,2.6602,2.7205,2.8718,2.8229,2.8408,2.8958,2.8465,2.8596,2.9015,2.9192,2.9325,2.9402,2.9402,2.9402,2.9402,2.9402,2.9402,2.9348,2.9068,2.9001,2.9001,2.9001,2.9095,2.9245,2.9245,2.9295,2.9402,2.9402,2.9402,2.9402,2.9402,2.9402,2.9455,2.9659,2.9686,2.974,2.9887,2.9913,2.9913,2.9913,2.9913,2.9913,2.9913,3.0034,3.0114,3.0114,3.0247,3.0207,2.994,2.9913,2.9913,2.9913,2.9913,2.9913,2.9913,2.9822,2.9617,2.9391,2.9066,2.8615,2.8065,2.7836,2.8648,1.4062,1.4116,1.444,1.5842,1.4841,1.3942,1.5453,1.4445,1.3822,1.5994,1.6285,1.6241,1.67,1.6819,1.6706,1.623,1.6235,1.7603,2.1261,2.1919,2.2098,2.2242,2.1311,2.109,2.2155,2.402,2.5222,2.5397,2.5537,2.5623,2.5623,2.575,2.5835,2.5835,2.5835,2.5835,2.5835,2.5708,2.4447,2.2136,2.4649,2.4618,2.2444,2.5616,2.7072,2.7037,2.6107,2.6838,2.8508,2.6744,2.7221,2.9068,2.9068,2.9095,2.9135,2.9135,2.9135,2.9161,2.9459,2.9713,2.9913,2.9913,2.9913,2.9913,2.9913,2.9913,2.9775,2.9268,2.9135,2.9135,2.9135,2.9366,2.9553,2.9553,2.974,2.9913,2.9913,2.9913,2.9913,2.9913,2.9913,2.9913,2.9913,2.9913,2.9913,2.9913,2.9913,2.9913,2.9913,2.9913,2.994,2.998,3.0207,3.0426,3.0467,3.0648,3.0581,3.0087,3.0047,3.0047,3.0047,3.0047,3.0002,2.9912,2.9755,2.9612,2.9429,2.8783,2.8477,2.8383,2.7998,2.8638,1.3734,1.3739,1.4151,1.6433,1.5384,1.4271,1.6252,1.5138,1.4941,1.9355,1.9301,1.8834,2.0093,2.1528,2.1279,1.7387,1.8368,2.0396,2.2703,2.3899,2.4819,2.5543,2.6103,2.6096,2.5323,2.5323,2.5361,2.5409,2.6146,2.6571,2.6571,2.7334,2.7757,2.7757,2.7757,2.7757,2.7757,2.6995,2.5409,2.3133,2.627,2.652,2.4354,2.7077,2.8323,2.8323,2.8382,2.8598,2.8908,2.8585,2.8855,2.9419,2.9419,2.9566,2.978,2.978,2.978,2.9793,2.9833,2.9887,2.9913,2.9913,2.9913,2.9913,2.9913,2.9913,2.99,2.9806,2.978,2.978,2.978,2.982,2.9847,2.9847,2.9887,2.9913,2.9913,2.9913,2.9913,2.9913,2.9913,2.9913,2.9913,2.9913,2.9913,2.9913,2.9913,2.9913,2.9913,2.9913,3.0007,3.0306,3.0386,3.0507,3.0702,3.0768,3.0755,3.0662,3.0662,3.0662,3.0662,3.0662,3.0432,2.9971,2.9964,2.9528,2.8694,2.8545,2.829,2.7905,2.7811,2.7951,1.3702,1.3846,1.468,1.8032,1.6241,1.4707,1.877,1.664,1.5534,2.1667,1.9449,1.7406,2.0702,2.0642,2.0011,1.9881,2.3243,2.6279,2.7454,2.7473,2.7527,2.79,2.6843,2.5859,2.5302,2.7095,2.8307,2.8307,2.9592,3.0385,3.0385,3.0759,3.0565,2.9635,2.9593,2.9132,2.8234,2.7928,2.6509,2.4111,2.7015,2.718,2.5011,2.7603,2.8801,2.8748,2.7808,2.8074,2.9161,2.8074,2.8419,2.9713,2.9713,2.9793,2.9913,2.9913,2.9913,2.9913,2.9913,2.9913,2.9913,2.9913,2.9913,2.9913,2.9913,2.9913,2.9953,3.0114,3.0047,2.9913,2.9913,2.9913,2.9913,2.9913,2.9913,2.9967,3.0114,3.0154,3.0154,3.0154,3.0154,3.01,2.994,2.9913,2.9913,2.9913,2.9913,2.998,3.014,3.0154,3.0274,3.0568,3.0641,3.0715,3.0996,3.1022,3.0955,3.0808,3.0795,3.0657,3.0379,3.0379,3.0148,2.9626,2.95,2.9155,2.8734,2.8611,2.8448,2.8246,2.8246,2.8246,1.3663,1.3836,1.4839,1.8632,1.664,1.5244,2.1069,1.7976,1.6078,2.3811,2.0495,1.7726,2.2679,2.0621,1.932,2.2771,2.6865,3.0258,3.2028,3.1428,3.0958,3.1428,2.9038,2.7339,2.7339,2.9829,3.1395,3.1395,3.2659,3.3233,3.2823,3.2782,3.2,3.0247,3.0249,2.9621,2.8299,2.8551,2.7674,2.5635,2.7713,2.7738,2.6092,2.8177,2.9095,2.9028,2.7539,2.7912,2.9486,2.787,2.8284,2.9913,2.9913,2.9913,2.9913,2.9913,2.9913,2.9913,2.9913,2.9913,2.9927,2.9993,3.002,3.0034,3.01,3.0127,3.0167,3.0394,3.0301,3.0127,3.0127,3.0127,3.0127,3.0127,3.0127,3.0181,3.0453,3.0453,3.04,3.04,3.0346,3.0181,2.9953,2.9913,2.9913,2.9913,2.998,3.01,3.0373,3.0467,3.0614,3.0862,3.0835,3.0889,3.1102,3.1136,3.1129,3.0902,3.0955,3.081,3.0404,3.0264,2.9971,2.9492,2.919,2.8971,2.8829,2.8667,2.862,2.862,2.862,2.862,1.3409,1.334,1.3849,1.6703,1.5923,1.5973,2.188,1.8526,1.6813,2.6121,2.4867,2.3648,2.8808,2.5522,2.2911,2.567,2.6423,2.873,3.4479,3.5229,3.5857,3.7722,3.6313,3.5194,3.5194,3.3994,3.3192,3.3192,3.3315,3.27,3.1079,3.0996,3.0205,2.8431,2.863,2.8692,2.8577,2.8815,2.8761,2.8305,2.8761,2.8895,2.8745,2.9259,2.9446,2.9459,2.9562,2.9708,2.9873,2.9695,2.9735,2.9913,2.9913,2.9913,2.9913,2.9913,2.9913,2.9913,2.9913,2.9913,2.9967,3.0234,3.0373,3.0426,3.0648,3.0728,3.0728,3.0755,3.0742,3.0728,3.0728,3.0728,3.0728,3.0728,3.0728,3.0728,3.0755,3.06,3.04,3.04,3.014,2.994,2.9913,2.9913,2.9913,2.9913,3.0154,3.0386,3.04,3.0641,3.0875,3.1122,3.0955,3.0795,3.0822,3.1076,3.1176,3.1149,3.145,3.161,3.1563,3.1088,3.06,3.0064,2.9625,2.9111,2.8644,2.8608,2.862,2.862,2.862,2.862,1.3872,1.404,1.5243,1.9977,1.8104,1.6785,2.3346,2.1095,2.0301,2.979,2.5901,2.1101,2.2024,2.4525,2.6772,2.7793,3.0287,3.3282,3.6624,3.6368,3.612,3.6895,3.5227,3.4131,3.4343,3.4527,3.4292,3.3463,3.4416,3.4254,3.2494,3.2571,3.1861,3.0127,3.1487,3.1151,2.8871,3.1411,3.1512,2.9152,2.9259,2.9312,2.9325,2.9619,2.9753,2.9753,2.9873,2.9913,2.9913,2.9913,2.9913,2.9913,2.9913,2.9913,2.9913,2.9913,2.9913,2.994,3.0127,3.0194,3.0247,3.0528,3.0635,3.0648,3.0755,3.0795,3.0822,3.1009,3.1062,3.1022,3.0835,3.0795,3.0795,3.0795,3.0795,3.0795,3.0795,3.0702,3.0627,3.044,3.0319,3.014,2.9953,3.0074,3.0194,3.0194,3.0448,3.0702,3.0875,3.0835,3.0902,3.1196,3.0969,3.0715,3.0587,3.0795,3.0955,3.0955,3.141,3.1379,3.0747,3.0509,2.9997,2.9184,2.9004,2.8812,2.862,2.862,2.862,2.862,2.862,2.862,1.4426,1.4742,1.6186,2.1332,1.9063,1.7617,2.553,2.3379,2.2015,3.0241,2.8171,2.4249,2.206,2.6043,2.9731,2.9993,3.2609,3.5473,3.7855,3.7391,3.6815,3.6815,3.5508,3.4718,3.5009,3.5371,3.544,3.5049,3.575,3.5656,3.4458,3.4718,3.408,3.2333,3.3245,3.283,3.0921,3.2555,3.2412,3.0478,2.9916,2.9619,2.9633,2.982,2.9913,2.9913,2.9913,2.9913,2.9913,2.9913,2.9913,2.9913,2.9913,2.9913,2.9927,3.002,3.006,3.01,3.044,3.0547,3.0587,3.0835,3.0929,3.0942,3.1036,3.1076,3.1116,3.1303,3.137,3.1316,3.1116,3.1076,3.1076,3.1076,3.1076,3.1049,3.0942,3.0862,3.0702,3.0467,3.0333,3.0181,3.0074,3.0266,3.044,3.0533,3.0742,3.0996,3.1196,3.1049,3.0942,3.0955,3.0768,3.0541,3.0293,3.0488,3.0662,3.0662,3.1116,3.1101,3.0333,3.0092,2.9668,2.8965,2.8728,2.862,2.862,2.862,2.862,2.862,2.862,2.862,1.5078,1.5332,1.6313,1.9669,1.8218,1.8521,2.836,2.499,2.131,2.6811,3.2338,3.5155,3.1837,3.1298,3.1606,3.2375,3.2511,3.3965,3.8016,3.86,3.86,3.86,3.86,3.86,3.86,3.7032,3.6752,3.846,3.7379,3.6594,3.6594,3.6977,3.6375,3.4656,3.3125,3.3205,3.497,3.1633,3.087,3.2646,3.0825,2.9913,2.9913,2.9913,2.9913,2.9913,2.9913,2.9913,2.9913,2.9913,2.9913,2.9913,2.9913,2.9913,2.9953,3.0293,3.04,3.0453,3.0702,3.0795,3.0849,3.1129,3.1176,3.1289,3.1583,3.1711,3.1711,3.1711,3.1711,3.1711,3.1711,3.1711,3.1711,3.1711,3.1711,3.1583,3.1289,3.0996,3.0702,3.0467,3.0114,3.0007,3.036,3.0413,3.0507,3.0755,3.1036,3.1223,3.1176,3.1176,3.0996,3.0467,3.04,3.0234,2.994,3.0181,3.04,3.04,3.0621,3.0795,3.0795,3.0083,2.9721,2.9721,2.9001,2.862,2.862,2.862,2.862,2.862,2.862,2.862,1.8536,1.7715,1.7041,2.083,2.0773,2.05,2.3247,2.407,2.5278,2.9102,3.1547,3.1896,2.8121,3.2126,3.5244,3.2902,3.492,3.7213,3.8429,3.86,3.86,3.86,3.8343,3.838,3.8966,3.8308,3.7761,3.7643,3.7249,3.6515,3.5266,3.5509,3.5407,3.4896,3.5934,3.5508,3.3421,3.5012,3.4097,3.0736,3.1523,3.1182,2.9913,2.9913,2.9913,2.9913,2.9913,2.9913,2.9913,2.9913,2.9913,2.9913,2.9913,3.0047,3.0234,3.0373,3.0533,3.0702,3.0996,3.1089,3.1142,3.1436,3.153,3.1557,3.1684,3.1711,3.1711,3.1711,3.1711,3.1711,3.1711,3.1711,3.1711,3.1711,3.1711,3.1577,3.1022,3.0849,3.0648,3.014,3.014,3.0306,3.0386,3.0702,3.0996,3.1089,3.1169,3.1076,3.0675,3.0667,3.0474,3.0087,3.0047,3.0007,2.9927,2.9993,3.0047,3.0047,3.0327,3.0537,3.0576,3.0387,3.0153,3.0001,2.9756,2.9471,2.9148,2.9148,2.8956,2.862,2.862,2.862,2.0708,2.0058,1.9904,2.4775,2.3853,2.2038,2.3094,2.4702,2.7263,3.193,3.334,3.3038,3.0814,3.4576,3.7301,3.5248,3.6991,3.86,3.86,3.86,3.86,3.86,3.8527,3.8655,3.915,3.8491,3.8108,3.8283,3.7736,3.7281,3.6946,3.7259,3.7403,3.7403,3.7981,3.7198,3.4972,3.5711,3.436,3.1003,3.139,3.1003,2.9913,2.9913,2.9913,2.9913,2.9913,2.9913,2.9913,2.9913,2.9913,2.9927,3.0047,3.0207,3.044,3.0621,3.0808,3.1009,3.1303,3.1396,3.1436,3.161,3.1711,3.1711,3.1711,3.1711,3.1711,3.1711,3.1711,3.1711,3.1711,3.1711,3.1711,3.1711,3.1711,3.1543,3.1062,3.0875,3.0688,3.0327,3.0314,3.048,3.0662,3.0996,3.1263,3.1383,3.1208,3.0962,3.0608,3.0345,3.014,2.9922,2.9913,2.9913,2.9913,3.002,3.01,3.01,3.0368,3.0603,3.0788,3.058,3.0423,3.0247,3.0172,2.9937,2.9663,2.9663,2.9423,2.8908,2.8908,2.8812,2.2169,2.2279,2.3665,2.9325,2.6482,2.3271,2.6917,2.6951,2.8128,3.4866,3.6346,3.66,3.7318,3.7757,3.816,3.8545,3.86,3.86,3.86,3.86,3.8618,3.8655,3.8966,3.9223,3.9296,3.82,3.8206,3.986,3.8801,3.8803,4.0487,4.0901,4.1018,4.085,3.9203,3.816,3.78,3.4388,3.2602,3.2425,3.0736,2.9913,2.9913,2.9913,2.9913,2.9913,2.9913,2.9913,2.9913,2.9913,2.9927,2.998,3.0293,3.044,3.0547,3.1036,3.1203,3.1303,3.157,3.1711,3.1711,3.1711,3.1711,3.1711,3.1711,3.1711,3.1711,3.1711,3.1711,3.1711,3.1711,3.1711,3.1711,3.1711,3.1711,3.1583,3.1289,3.1022,3.0822,3.0795,3.0595,3.0654,3.1129,3.1249,3.1296,3.1549,3.1102,3.0763,3.0697,3.0274,2.9939,2.993,2.9935,2.9949,2.9993,3.0247,3.044,3.044,3.0675,3.0955,3.1162,3.0767,3.0593,3.0619,3.038,3.0223,3.0175,3.0175,2.9937,2.9471,2.9471,2.9196,2.5082,2.4077,2.2625,2.3986,2.3286,2.4386,3.2368,3.2193,3.1548,3.5812,3.4847,3.4215,3.7312,3.8197,3.849,3.8582,3.86,3.86,3.86,3.86,3.871,3.9021,3.9131,3.9483,4.0143,3.9941,4.0081,4.0767,4.0583,4.0535,4.0932,4.1047,4.0409,3.8947,3.8503,3.688,3.3907,3.3087,3.1953,3.0482,3.0093,2.9913,2.9913,2.9913,2.9913,2.9913,2.9913,2.9913,2.9913,2.9913,3.006,3.0319,3.0386,3.0635,3.1049,3.1183,3.137,3.1583,3.165,3.1711,3.1711,3.1711,3.1711,3.1711,3.1711,3.1711,3.1711,3.1711,3.1711,3.1711,3.1711,3.1711,3.1711,3.1711,3.1711,3.1583,3.1289,3.1122,3.1062,3.0835,3.0929,3.1076,3.1162,3.1423,3.1375,3.0839,3.0282,2.9934,2.9887,2.9636,2.9682,3.021,3.0109,3.0149,3.0562,3.0662,3.0702,3.0702,3.0969,3.1156,3.1223,3.1082,3.1155,3.1428,3.14,3.1141,3.0713,3.0713,3.0474,2.9937,2.9937,2.971,2.4216,2.4603,2.4867,2.6385,2.7846,2.9831,3.3216,3.4055,3.4648,3.6655,3.5846,3.5425,3.7588,3.8325,3.86,3.86,3.86,3.86,3.86,3.8765,3.8966,3.9168,3.9575,3.9997,4.0478,4.068,4.0882,4.1084,4.1102,4.1102,4.1102,4.024,3.9331,3.8332,3.7414,3.5581,3.2734,3.269,3.1776,2.9913,2.9913,2.9913,2.9913,2.9913,2.9913,2.9913,2.9913,2.9913,2.9913,2.9913,3.0087,3.0426,3.056,3.0835,3.1203,3.1383,3.153,3.1711,3.1711,3.1711,3.1711,3.1711,3.1711,3.1711,3.1711,3.1711,3.1711,3.1711,3.1711,3.1711,3.1711,3.1711,3.1711,3.1711,3.1711,3.1623,3.1476,3.133,3.1223,3.1209,3.1035,3.0901,3.1033,3.0988,3.0803,3.0376,3.0054,2.9947,3.0002,2.994,3.0054,3.0549,3.0471,3.0518,3.0795,3.0915,3.0996,3.0996,3.1276,3.1436,3.1436,3.1436,3.1517,3.1711,3.1711,3.1569,3.1297,3.1297,3.0998,3.0474,3.0474,3.0236,2.2313,2.4541,2.7665,3.0804,3.3109,3.4217,3.272,3.4198,3.6177,3.7169,3.7446,3.7611,3.8053,3.8362,3.86,3.86,3.86,3.86,3.86,3.8948,3.9223,3.9318,4.0015,4.0533,4.0607,4.0901,4.1102,4.1102,4.1102,4.1102,4.1102,3.9331,3.8289,3.8289,3.6145,3.4257,3.2734,3.2381,3.1435,2.9913,2.9913,2.9913,2.9913,2.9913,2.9913,2.9913,2.9913,2.9913,2.9913,2.9967,3.0167,3.0507,3.0755,3.1049,3.133,3.1583,3.1711,3.1711,3.1711,3.1711,3.1711,3.1711,3.1711,3.1711,3.1711,3.1711,3.1711,3.1711,3.1711,3.1711,3.1711,3.1711,3.1711,3.1711,3.1629,3.1569,3.1569,3.1335,3.1181,3.1386,3.091,3.0488,3.0721,3.0331,3.0032,3.008,3.0032,3.0134,3.0478,3.0478,3.0541,3.0856,3.0823,3.0849,3.0942,3.1169,3.1303,3.1303,3.153,3.1711,3.1711,3.1711,3.1711,3.1711,3.1711,3.1711,3.1711,3.1711,3.1487,3.1059,3.1059,3.076,2.2313,2.4541,2.7665,3.0804,2.9848,2.9459,3.4433,3.3875,3.3287,3.667,3.7704,3.8032,3.8435,3.8563,3.86,3.86,3.86,3.86,3.86,3.8948,3.9355,3.9762,4.0221,4.0644,4.0992,4.1066,4.1102,4.1102,4.1102,4.1102,4.1102,3.9331,3.8289,3.8289,3.4912,3.2955,3.269,3.1093,3.0137,2.9913,2.9913,2.9913,2.9913,2.9913,2.9913,2.9913,2.9913,2.9913,2.994,3.0194,3.052,3.0768,3.1049,3.1343,3.1657,3.1698,3.1711,3.1711,3.1711,3.1711,3.1711,3.1711,3.1711,3.1711,3.1711,3.1711,3.1711,3.1711,3.1711,3.1711,3.1711,3.1711,3.1711,3.1711,3.1344,3.1011,3.1011,3.0972,3.0816,3.0414,3.0245,3.0185,3.021,2.9806,2.9615,3.0032,2.9758,2.9753,3.0431,3.0316,3.0389,3.1056,3.0972,3.1083,3.1557,3.1583,3.161,3.161,3.1698,3.1711,3.1711,3.1711,3.1711,3.1711,3.1711,3.1711,3.1711,3.1711,3.1664,3.1569,3.1569,3.1284,2.3925,2.4603,2.5922,3.2526,3.0512,2.8539,3.4758,3.3983,3.2985,3.6652,3.7702,3.8105,3.8527,3.86,3.86,3.86,3.86,3.86,3.86,3.9171,3.9689,3.9854,4.0442,4.0919,4.1084,4.1102,4.1102,4.1102,4.1102,4.1102,4.1102,3.9331,3.7817,3.6751,3.4082,3.2204,3.1123,3.0303,2.9913,2.9913,2.9913,2.9913,2.9913,2.9913,2.9913,2.9913,2.9913,2.9913,2.994,3.0234,3.0574,3.0822,3.1116,3.141,3.1711,3.1711,3.1711,3.1711,3.1711,3.1711,3.1711,3.1711,3.1711,3.1711,3.1711,3.1711,3.1711,3.1711,3.1711,3.1629,3.1344,3.1249,3.1189,3.0856,3.0617,3.0379,3.0093,3.0284,3.0284,2.9793,2.9937,2.9937,2.9375,2.9567,2.9746,2.971,2.9997,3.0341,3.0699,3.0872,3.1136,3.1443,3.1407,3.1439,3.1677,3.1711,3.1711,3.1711,3.1711,3.1711,3.1711,3.1711,3.1711,3.1711,3.1711,3.1711,3.1711,3.1711,3.1711,3.1711,3.1711,3.1582,2.5,2.4857,2.4891,3.2379,3.0147,2.751,3.2649,3.2281,3.1896,3.5496,3.7109,3.7977,3.8508,3.86,3.86,3.86,3.86,3.86,3.86,3.9336,3.9891,3.9891,4.0607,4.1102,4.1102,4.1102,4.1102,4.1102,4.1102,4.1102,4.1102,3.9331,3.7671,3.6275,3.3907,3.2041,3.0616,3.0137,2.9913,2.9913,2.9913,2.9913,2.9913,2.9913,2.9913,2.9913,2.9913,2.9913,2.994,3.0314,3.0595,3.0835,3.1196,3.1476,3.1711,3.1711,3.1711,3.1711,3.1711,3.1711,3.1711,3.1711,3.1711,3.1664,3.1521,3.1487,3.1474,3.1331,3.1284,3.1189,3.0808,3.0821,3.0821,3.0427,3.0319,3.0128,2.9519,2.9567,2.9663,2.9423,2.9663,2.971,2.9088,2.9615,3.0032,2.9806,3.044,3.0964,3.1107,3.1426,3.1711,3.1711,3.1711,3.1711,3.1711,3.1711,3.1711,3.1711,3.1711,3.1711,3.1711,3.1711,3.1711,3.1711,3.1711,3.1711,3.1711,3.1711,3.1711,3.1711,3.1711,3.1711,2.4396,2.5463,2.5892,2.8317,2.6453,2.4633,2.6879,2.729,2.8293,3.2244,3.5385,3.7666,3.8453,3.86,3.86,3.86,3.86,3.86,3.86,3.9336,3.9891,3.9891,4.0607,4.1102,4.1102,4.1102,4.1102,4.1102,4.1102,4.1102,4.1102,3.9331,3.8246,3.816,3.4607,3.2646,3.2558,3.0781,2.9913,2.9913,2.9913,2.9913,2.9913,2.9913,2.9913,2.9913,2.9913,2.9913,2.9967,3.0528,3.0782,3.0849,3.147,3.1698,3.1711,3.1711,3.1711,3.1711,3.1711,3.1711,3.1711,3.1711,3.1711,3.1629,3.1107,3.0964,3.0856,3.0319,3.0175,3.0175,3.0128,3.0522,3.0916,3.0869,3.0869,3.0583,2.9615,2.9004,2.8812,2.9328,2.9423,2.9567,2.9937,3.008,3.0271,3.076,3.0869,3.1107,3.1569,3.1677,3.1711,3.1711,3.1711,3.1711,3.1711,3.1711,3.1711,3.1711,3.1711,3.1711,3.1711,3.1711,3.1711,3.1711,3.1711,3.1711,3.1711,3.1711,3.1711,3.1711,3.1711,3.1711,2.3708,2.353,2.3693,2.8417,2.5198,2.2083,2.6621,2.7288,2.7257,2.8554,3.3411,3.6889,3.5236,3.6932,3.86,3.86,3.86,3.86,3.86,3.9336,3.9891,3.9891,4.0607,4.1102,4.1102,4.1102,4.1102,4.1102,3.8901,3.8622,4.0969,3.8234,3.7111,3.8238,3.5842,3.3351,3.0914,3.0213,2.9913,2.9913,2.9913,2.9913,2.9913,2.9913,2.9913,2.9913,2.9913,2.9913,2.9967,3.0555,3.0795,3.0849,3.1436,3.1711,3.1711,3.1711,3.1711,3.1664,3.1297,3.1202,3.1154,3.0795,3.0652,3.0652,3.0427,3.0379,3.0366,3.0128,3.0366,3.0522,3.0175,3.0522,3.0808,3.0474,3.0379,3.0271,2.9937,2.9698,2.9602,2.9793,3.014,3.0331,3.0128,3.0652,3.1093,3.0916,3.1202,3.1474,3.1677,3.1711,3.1711,3.1711,3.1711,3.1711,3.1711,3.1711,3.1711,3.1711,3.1711,3.1711,3.1711,3.1711,3.1711,3.1711,3.1711,3.1711,3.1711,3.1711,3.1711,3.1711,3.1711,3.1711,2.2961,2.2722,2.291,2.6679,2.393,2.1154,2.4375,2.6324,2.7327,2.6975,3.2386,3.667,3.495,3.6696,3.8435,3.8582,3.86,3.86,3.86,3.9208,3.9726,3.9872,4.0478,4.0956,4.1084,4.1102,4.1102,4.1102,3.8847,3.8509,4.0969,3.877,3.7427,3.7363,3.4928,3.2396,2.9913,2.9913,2.9913,2.9913,2.9913,2.9913,2.9913,2.9913,2.9824,2.9689,2.9689,2.9734,2.9953,3.0448,3.0702,3.0835,3.133,3.1583,3.1677,3.1487,3.1426,3.1344,3.0808,3.0617,3.057,3.0223,3.008,3.008,2.9889,2.9889,2.9841,2.965,2.9997,3.0284,2.9949,3.0236,3.0617,3.0652,3.0509,3.0414,3.0604,3.0366,3.0128,3.0319,3.0665,3.0856,3.0665,3.1236,3.1582,3.1202,3.1487,3.1711,3.1711,3.1711,3.1711,3.1711,3.1711,3.1711,3.1711,3.1711,3.1711,3.1711,3.1711,3.1711,3.1711,3.1711,3.1711,3.1711,3.1711,3.1711,3.1711,3.1711,3.1711,3.1711,3.1711,3.1853,0.0,0.0,0.0,2.2837,2.2535,2.1937,1.9782,2.4003,2.8215,2.7502,3.2316,3.6933,3.7684,3.7904,3.8105,3.8527,3.86,3.86,3.86,3.8948,3.9373,3.9817,4.0258,4.0662,4.1047,4.1102,4.1102,4.1102,4.0987,4.0987,4.1102,4.106,3.9313,3.5538,3.1879,2.9958,2.9913,2.9913,2.9869,2.9869,2.9869,2.9869,2.9869,2.9869,2.9599,2.9182,2.9182,2.9465,2.9895,3.0234,3.0528,3.0762,3.1056,3.1349,3.1569,3.1059,3.0869,3.0821,3.0271,3.008,3.008,3.008,3.008,3.0032,2.9567,2.9423,2.9328,2.8812,2.9052,2.9423,2.9471,2.9806,3.0414,3.1426,3.1297,3.1059,3.1569,3.0903,3.0319,3.0821,3.0916,3.1107,3.1616,3.1711,3.1711,3.1711,3.1711,3.1711,3.1711,3.1711,3.1711,3.1711,3.1711,3.1711,3.1711,3.1711,3.1711,3.1711,3.1711,3.1711,3.1711,3.1711,3.1711,3.1711,3.1711,3.1711,3.1711,3.1711,3.1711,3.1711,3.1711,3.228,2.2434,0.0,0.0,0.0,0.0,0.0,2.147,2.3756,2.5698,2.4483,2.963,3.4161,3.3554,3.5934,3.8053,3.8124,3.8398,3.86,3.86,3.8948,3.9241,3.9392,4.0033,4.0552,4.0662,4.0937,4.1102,4.1102,3.8622,3.8285,4.0969,3.9798,3.7354,3.36,3.2469,3.1257,2.9913,2.9913,2.9734,2.9407,2.9407,2.924,2.888,2.888,2.8835,2.87,2.87,2.879,2.8906,2.919,2.9344,2.946,2.9951,3.0183,3.0286,3.0289,3.0319,3.0223,2.9758,2.9793,3.0032,2.971,2.9793,3.008,2.9937,2.9889,2.9889,2.9746,3.0093,3.057,3.0951,3.1141,3.1331,3.1616,3.1569,3.1534,3.1664,3.1474,3.1284,3.1426,3.1474,3.1534,3.1664,3.1711,3.1711,3.1711,3.1711,3.1711,3.1711,3.1711,3.1711,3.1711,3.1711,3.1711,3.1711,3.1711,3.1711,3.1711,3.1711,3.1711,3.1711,3.1711,3.1711,3.1711,3.1711,3.1711,3.1711,3.1711,3.1711,3.1711,3.2469,3.2941,0.0,0.0,2.3957,2.4165,0.0,0.0,2.1552,2.4054,2.6143,2.475,2.9852,3.3963,3.2051,3.3839,3.5658,3.582,3.6198,3.6927,3.8374,3.8801,3.9003,3.9168,3.9667,4.0015,4.024,4.0607,4.051,3.9718,3.7836,3.7256,3.84,3.744,3.5494,3.2514,3.1642,3.0722,2.9644,2.942,2.9195,2.8925,2.8925,2.8745,2.8474,2.8474,2.8384,2.8158,2.8158,2.8158,2.8171,2.8107,2.8415,2.892,2.9237,2.9517,2.9733,2.9899,2.9978,3.008,2.9793,2.9889,3.0032,2.9806,2.9889,3.008,3.008,3.008,3.008,3.008,3.0474,3.1011,3.1569,3.1521,3.1426,3.1664,3.1521,3.1426,3.1664,3.1711,3.1711,3.1711,3.1711,3.1711,3.1711,3.1711,3.1711,3.1711,3.1711,3.1711,3.1711,3.1711,3.1711,3.1711,3.1711,3.1711,3.1711,3.1711,3.1711,3.1711,3.1711,3.1711,3.1711,3.1711,3.1901,3.2327,3.2327,3.2516,3.2941,3.2516,3.2563,3.2988,3.354,3.4056,0.0,0.0,0.0,2.4012,2.3402,0.0,2.0947,2.4334,2.7497,2.6409,3.0798,3.4054,3.1598,3.1426,3.1826,3.228,3.2592,3.4042,3.7537,3.8356,3.8597,3.8551,3.8963,3.9373,3.9781,4.0203,3.9736,3.8044,3.8066,3.7052,3.4532,3.4417,3.3556,3.1687,2.9976,2.9137,2.9137,2.87,2.8474,2.8429,2.8429,2.8384,2.8339,2.8339,2.8068,2.7649,2.7694,2.7694,2.7694,2.7299,2.7855,2.8843,2.8836,2.914,2.9632,2.9695,2.9873,3.0042,3.0067,3.0128,3.0175,3.0175,3.0223,3.0271,3.0271,3.0271,3.0271,3.0271,3.0617,3.1107,3.1582,3.1344,3.1107,3.1569,3.1344,3.1107,3.1629,3.1711,3.1711,3.1711,3.1711,3.1711,3.1711,3.1711,3.1711,3.1711,3.1711,3.1711,3.1711,3.1711,3.1711,3.1711,3.1711,3.1711,3.1711,3.1711,3.1711,3.1711,3.1711,3.1711,3.1711,3.1806,3.228,3.3177,3.3318,3.3869,3.4853,3.3869,3.3822,3.4712,3.4806,3.5366,0.0,0.0,0.0,2.3614,2.3766,0.0,2.2357,2.2722,2.354,2.4261,2.5247,2.6378,2.763,2.8161,2.8544,2.8876,2.906,3.0359,3.3917,3.6816,3.7592,3.4847,3.7288,3.9223,3.9336,3.9762,3.9841,3.9402,3.8024,3.5652,3.2175,3.1998,3.114,2.9227,2.8835,2.8655,2.8655,2.8565,2.8294,2.7875,2.7875,2.7649,2.7299,2.7299,2.7254,2.7163,2.7558,2.7694,2.7739,2.8068,2.8332,2.8576,2.8336,2.8578,2.911,2.9543,2.9746,2.9822,3.0051,3.0366,3.0713,3.0713,3.1046,3.1379,3.1379,3.1379,3.1379,3.1379,3.1474,3.1582,3.1664,3.1616,3.1582,3.1677,3.1616,3.1582,3.1677,3.1711,3.1711,3.1711,3.1711,3.1711,3.1711,3.1711,3.1711,3.1711,3.1711,3.1711,3.1711,3.1711,3.1711,3.1711,3.1711,3.1711,3.1711,3.1711,3.1711,3.1711,3.1711,3.1711,3.1711,3.2469,3.2988,3.3224,3.401,3.49,3.5894,3.49,3.4525,3.4712,3.5521,3.6034,0.0,0.0,2.301,2.3389,2.3261,0.0,0.0,2.2677,2.3141,2.361,2.4512,2.504,2.4473,2.4665,2.4965,2.517,2.5359,2.6184,2.8097,3.2565,3.5592,3.544,3.7131,3.8373,3.8573,3.8815,3.8253,3.6585,3.5462,3.3228,2.95,3.0345,3.0084,2.8146,2.8101,2.8101,2.8101,2.7887,2.7616,2.7332,2.7332,2.7254,2.6981,2.6981,2.6981,2.7027,2.7254,2.7468,2.7727,2.7965,2.8372,2.8803,2.8433,2.8539,2.8965,2.9464,2.9852,3.017,3.0535,3.0928,3.1297,3.1297,3.1474,3.1711,3.1711,3.1711,3.1806,3.2327,3.209,3.1948,3.2941,3.2469,3.1806,3.2327,3.2469,3.2469,3.2469,3.2847,3.3224,3.3224,3.3224,3.2894,3.1853,3.1711,3.1711,3.1711,3.1711,3.1711,3.1711,3.1711,3.1711,3.1711,3.1711,3.1901,3.2421,3.2469,3.2658,3.3163,3.3224,3.3224,3.3224,3.3681,3.4197,3.4666,3.5708,3.6452,3.6962,3.6452,3.622,3.622,3.673,3.6962,0.0,2.1444,2.2297,2.3067,2.2487,2.1725,0.0,0.0,0.0,2.2446,2.3824,2.4292,2.1498,2.1197,2.1388,2.1399,2.1666,2.2141,2.2887,2.7486,3.1762,3.4419,3.5267,3.5748,3.6145,3.6658,3.5683,3.2541,3.2489,3.1017,2.7375,2.8871,2.9149,2.7604,2.7558,2.7558,2.7558,2.7208,2.6981,2.6981,2.6981,2.6981,2.6981,2.6981,2.7027,2.7163,2.7254,2.7571,2.801,2.8101,2.8597,2.9272,2.8835,2.8841,2.9137,2.9586,3.005,3.0516,3.0989,3.1343,3.1583,3.1583,3.1671,3.1724,3.1948,3.1995,3.2185,3.3224,3.2894,3.2658,3.4291,3.3493,3.2469,3.3304,3.3493,3.3493,3.3493,3.4103,3.4712,3.4712,3.4712,3.4103,3.228,3.2138,3.2185,3.1995,3.2138,3.228,3.228,3.228,3.228,3.228,3.228,3.2611,3.3398,3.3493,3.3822,3.4666,3.4712,3.4712,3.4712,3.4794,3.534,3.6252,3.7097,3.751,3.751,3.751,3.7544,3.7717,3.7717,3.7717,2.0127,2.0875,2.1576,2.2265,2.172,2.0912,2.0591,0.0,1.9465,1.8473,0.0,1.8548,1.8156,0.0,0.0,1.7829,1.8033,1.907,2.1598,2.3065,2.4186,2.5118,2.7553,2.9309,2.9625,3.1854,3.2248,2.9747,3.0938,3.03,2.684,2.6933,2.7055,2.706,2.7072,2.7072,2.7072,2.7027,2.6981,2.6981,2.6981,2.6981,2.6981,2.6981,2.7254,2.7649,2.8113,2.861,2.9047,2.9465,2.9734,2.9779,2.9317,2.9388,2.9814,3.017,3.0349,3.0455,3.0755,3.1036,3.1276,3.1276,3.145,3.1853,3.2752,3.3035,3.3257,3.4244,3.4432,3.4385,3.4619,3.4525,3.4385,3.4478,3.4525,3.4525,3.4525,3.4619,3.4712,3.4712,3.4712,3.4338,3.321,3.3775,3.4056,3.3163,3.3775,3.4338,3.4338,3.4338,3.4338,3.4338,3.4338,3.4385,3.4525,3.4525,3.4572,3.4666,3.4712,3.4712,3.4712,3.5222,3.5837,3.6537,3.6672,3.6717,3.6717,3.6717,3.7051,3.7717,3.7717,3.7717,2.1163,2.2507,2.3288,2.3788,2.3642,2.3336,2.3414,2.1127,1.8847,1.84,0.0,0.0,0.0,0.0,0.0,0.0,1.7528,1.8076,1.9403,1.9668,2.1233,2.5311,2.7012,2.8563,3.0326,3.0149,2.9649,2.8977,2.8958,2.7811,2.5156,2.6008,2.6644,2.6753,2.6909,2.6981,2.6981,2.6981,2.6981,2.6981,2.6981,2.7163,2.7423,2.7423,2.7694,2.8204,2.8384,2.861,2.8835,2.9285,2.951,2.9496,2.9599,2.9734,2.9927,3.006,3.0207,3.0426,3.0547,3.0728,3.0996,3.1169,3.1316,3.1531,3.2131,3.2752,3.3413,3.4432,3.4712,3.4946,3.6127,3.5553,3.4853,3.5428,3.5553,3.5553,3.5553,3.6034,3.6452,3.6452,3.6452,3.6127,3.5086,3.4806,3.4572,3.4103,3.4432,3.4712,3.4712,3.4712,3.4592,3.4402,3.4327,3.4485,3.4891,3.4922,3.5151,3.5761,3.5806,3.5806,3.5806,3.6032,3.6298,3.6606,3.659,3.659,3.659,3.659,3.6749,3.7051,3.7051,3.7051,2.3417,2.4817,2.5347,2.5023,2.4655,2.423,2.3662,2.0794,1.8253,1.8339,1.7896,0.0,0.0,0.0,1.7555,1.7394,0.0,1.7609,1.7649,1.7676,1.9487,2.4329,2.5626,2.6864,2.8571,2.8029,2.7385,2.6969,2.6895,2.6028,2.4004,2.5464,2.6439,2.6596,2.6777,2.6909,2.6981,2.7118,2.7208,2.7208,2.7344,2.7571,2.792,2.792,2.8191,2.87,2.87,2.8745,2.8925,2.924,2.9407,2.942,2.9779,2.9913,2.9913,2.9913,3.0047,3.0234,3.0234,3.0434,3.0715,3.1009,3.1102,3.1189,3.1685,3.2418,3.3272,3.4301,3.4654,3.5086,3.6823,3.622,3.5366,3.6359,3.6591,3.656,3.6467,3.7006,3.7496,3.7446,3.7431,3.7186,3.6451,3.5866,3.5383,3.5014,3.5186,3.5341,3.5252,3.5237,3.51,3.48,3.477,3.5,3.5482,3.5511,3.5827,3.6545,3.659,3.6559,3.6463,3.6463,3.6416,3.632,3.632,3.632,3.632,3.632,3.632,3.632,3.6511,3.659,2.7107,2.7553,2.727,2.5066,2.3501,2.172,1.8731,1.738,1.6857,1.719,1.7232,1.73,1.7555,1.7608,0.0,0.0,1.7208,0.0,0.0,1.7462,1.8183,1.8737,2.0841,2.188,2.0858,2.4386,2.5474,2.2428,2.4957,2.5802,2.3992,2.5101,2.6054,2.6584,2.6608,2.6728,2.6981,2.7468,2.7694,2.7694,2.8204,2.8474,2.8474,2.8474,2.8745,2.9182,2.9182,2.9465,2.9869,2.9869,2.9869,2.9869,2.9869,2.9913,2.9913,2.9913,2.9927,2.9927,2.9927,3.0127,3.0467,3.0715,3.0808,3.0993,3.196,3.2491,3.2947,3.392,3.4432,3.4946,3.5987,3.622,3.6405,3.7394,3.7671,3.7529,3.718,3.7101,3.699,3.6702,3.6638,3.6638,3.6577,3.7164,3.7129,3.5761,3.6401,3.6929,3.658,3.6548,3.6532,3.6532,3.6532,3.6517,3.6545,3.6545,3.6545,3.659,3.659,3.6447,3.613,3.613,3.5955,3.5665,3.5605,3.5605,3.5605,3.5605,3.5605,3.5665,3.6288,3.659,3.0165,3.1156,3.1029,3.0239,2.7807,2.5307,2.427,2.0103,1.6471,1.6578,1.6924,1.7233,1.7326,0.0,0.0,0.0,0.0,0.0,0.0,1.7542,1.7849,1.8143,1.9096,2.0361,2.2026,2.1619,2.1619,2.24,2.2329,2.1882,2.1098,2.3276,2.4621,2.4804,2.5991,2.6632,2.6728,2.7078,2.7377,2.7694,2.7875,2.8326,2.8957,2.8957,2.924,2.9644,2.9644,2.9734,2.9913,2.9913,2.9913,2.9913,2.9913,2.9913,2.9913,2.9913,2.9913,2.9913,2.9913,2.998,3.0204,3.1167,3.1049,3.0861,3.2654,3.324,3.3541,3.4545,3.5349,3.6048,3.6366,3.6457,3.6548,3.6865,3.6956,3.6924,3.6797,3.6781,3.6749,3.6622,3.659,3.659,3.659,3.6797,3.6833,3.633,3.654,3.6733,3.6622,3.659,3.6511,3.6288,3.6273,3.6177,3.5939,3.5923,3.5923,3.5923,3.5923,3.5875,3.5764,3.5764,3.5701,3.5589,3.5617,3.5617,3.5617,3.5617,3.5617,3.5633,3.5812,3.5923,3.276,3.3661,3.3461,3.2686,3.0631,2.8525,2.7431,2.3553,2.0227,2.0332,2.0653,2.0555,0.0,0.0,0.0,0.0,0.0,0.0,0.0,1.7608,1.7649,1.7836,1.8919,2.0129,2.1353,2.0521,2.0226,2.097,2.0493,1.9991,1.9615,2.223,2.3815,2.3913,2.5775,2.6767,2.6852,2.748,2.792,2.8236,2.8417,2.8822,2.9451,2.9451,2.9599,2.9913,2.9913,2.9913,2.9913,2.9913,2.9913,2.9913,2.9913,2.9913,2.9913,2.9913,2.9913,2.9913,2.9913,3.0137,3.0523,3.1374,3.1443,3.1485,3.2855,3.3391,3.3689,3.4382,3.4819,3.5211,3.6028,3.592,3.5737,3.6411,3.659,3.6574,3.6447,3.6416,3.6384,3.6257,3.6241,3.6241,3.6241,3.6241,3.6273,3.64,3.6416,3.6384,3.6257,3.6241,3.6161,3.5939,3.5923,3.5828,3.5633,3.5617,3.5617,3.5617,3.5617,3.5617,3.5617,3.5617,3.5617,3.5617,3.5617,3.5617,3.5617,3.5617,3.5617,3.5617,3.5617,3.5617]},{"header":{"parameterUnit":"m.s-1","parameterCategory":1,"la1":30.6,"la2":29.2853,"lo1":-89.7004,"lo2":-87.6739,"dy":0.0162,"dx":0.0183,"nx":112,"ny":82,"refTime":"2023-09-24T12:00:00:Z","depth":0,"parameterNumber":3,"parameterNumberName":"V-component_of_WINDS"},"data":[0.0,0.0,0.0,0.0,0.0,0.0,0.0,0.0,0.0,0.0,0.0,0.0,0.0,0.0,0.0,0.0,0.0,0.0,0.0,0.0,0.0,0.0,0.0,0.0,0.0,0.0,0.0,0.0,0.0,0.0,0.0,0.0,0.0,0.0,0.0,0.0,0.0,0.0,0.0,0.0,0.0,0.0,0.0,0.0,0.0,0.0,0.0,0.0,0.0,0.0,0.0,0.0,0.0,0.0,0.0,0.0,0.0,0.0,0.0,0.0,0.0,0.0,0.0,0.0,0.0,0.0,0.0,0.0,0.0,0.0,0.0,0.0,0.0,0.0,0.0,0.0,0.0,0.0,0.0,0.0,0.0,0.0,0.0,0.0,0.0,0.0,0.0,0.0,0.0,0.0,4.4376,4.6807,4.8202,4.9018,4.9018,4.9018,4.7379,4.3534,0.0,0.0,0.0,0.0,0.0,0.0,0.0,0.0,0.0,0.0,0.0,0.0,0.0,0.0,0.0,0.0,0.0,0.0,0.0,0.0,0.0,0.0,0.0,0.0,0.0,0.0,0.0,0.0,0.0,0.0,0.0,0.0,0.0,0.0,0.0,0.0,0.0,0.0,0.0,0.0,0.0,0.0,0.0,0.0,0.0,0.0,0.0,0.0,0.0,0.0,0.0,0.0,0.0,0.0,0.0,0.0,0.0,0.0,0.0,0.0,0.0,0.0,0.0,0.0,0.0,0.0,0.0,0.0,0.0,0.0,0.0,0.0,0.0,0.0,0.0,0.0,0.0,0.0,0.0,0.0,0.0,0.0,0.0,0.0,0.0,0.0,0.0,0.0,0.0,0.0,0.0,0.0,0.0,0.0,0.0,0.0,0.0,0.0,0.0,0.0,0.0,0.0,0.0,0.0,4.5721,4.8736,4.9025,4.9018,4.9018,4.9018,4.7489,4.3921,0.0,0.0,0.0,0.0,0.0,0.0,0.0,0.0,0.0,0.0,0.0,0.0,0.0,0.0,0.0,0.0,0.0,0.0,0.0,0.0,0.0,0.0,0.0,0.0,0.0,0.0,0.0,0.0,0.0,0.0,0.0,0.0,0.0,0.0,0.0,0.0,0.0,0.0,0.0,0.0,0.0,0.0,0.0,0.0,0.0,0.0,0.0,0.0,0.0,0.0,0.0,0.0,0.0,0.0,0.0,0.0,0.0,0.0,0.0,0.0,0.0,0.0,0.0,0.0,0.0,0.0,0.0,0.0,0.0,0.0,0.0,0.0,0.0,0.0,0.0,0.0,0.0,0.0,0.0,0.0,0.0,0.0,0.0,0.0,0.0,0.0,0.0,0.0,0.0,0.0,0.0,0.0,0.0,0.0,0.0,0.0,0.0,0.0,0.0,0.0,0.0,0.0,0.0,4.4994,4.7908,4.9369,4.935,4.926,4.926,4.9335,4.7671,4.3626,4.3639,0.0,0.0,0.0,0.0,0.0,0.0,0.0,0.0,0.0,0.0,0.0,0.0,0.0,0.0,0.0,0.0,0.0,0.0,0.0,0.0,0.0,0.0,0.0,0.0,0.0,0.0,0.0,0.0,0.0,0.0,0.0,0.0,0.0,0.0,0.0,0.0,0.0,0.0,0.0,0.0,0.0,0.0,0.0,0.0,0.0,0.0,0.0,0.0,0.0,0.0,0.0,0.0,0.0,0.0,0.0,0.0,0.0,0.0,0.0,0.0,0.0,0.0,0.0,0.0,0.0,0.0,0.0,0.0,0.0,0.0,0.0,0.0,0.0,0.0,0.0,0.0,0.0,0.0,0.0,0.0,0.0,0.0,0.0,0.0,0.0,0.0,0.0,0.0,0.0,0.0,0.0,0.0,0.0,0.0,0.0,0.0,0.0,0.0,0.0,0.0,0.0,0.0,4.6898,4.8812,4.9432,4.9486,4.9486,4.9486,4.9448,4.7601,4.3286,4.3489,0.0,0.0,0.0,0.0,0.0,0.0,0.0,0.0,0.0,0.0,0.0,0.0,0.0,0.0,0.0,0.0,0.0,0.0,0.0,0.0,0.0,0.0,0.0,0.0,0.0,0.0,0.0,0.0,0.0,0.0,0.0,0.0,0.0,0.0,0.0,0.0,0.0,0.0,0.0,0.0,0.0,0.0,0.0,0.0,0.0,0.0,0.0,0.0,0.0,0.0,0.0,0.0,0.0,0.0,0.0,0.0,0.0,0.0,0.0,0.0,0.0,0.0,0.0,0.0,0.0,0.0,0.0,0.0,0.0,0.0,0.0,0.0,0.0,0.0,0.0,0.0,0.0,0.0,0.0,0.0,0.0,0.0,0.0,0.0,0.0,0.0,0.0,0.0,0.0,0.0,0.0,0.0,0.0,0.0,0.0,0.0,0.0,0.0,0.0,0.0,0.0,0.0,4.5316,4.68,4.9237,4.9486,4.9486,4.9486,4.9003,4.7088,4.3339,4.2579,0.0,0.0,0.0,0.0,0.0,0.0,0.0,0.0,0.0,0.0,0.0,0.0,0.0,0.0,0.0,0.0,0.0,0.0,0.0,0.0,0.0,0.0,0.0,0.0,0.0,0.0,0.0,0.0,0.0,0.0,0.0,0.0,0.0,0.0,0.0,0.0,0.0,0.0,0.0,0.0,0.0,0.0,0.0,0.0,0.0,0.0,0.0,0.0,0.0,0.0,0.0,0.0,0.0,0.0,0.0,0.0,0.0,0.0,0.0,0.0,0.0,0.0,0.0,0.0,0.0,0.0,0.0,0.0,0.0,0.0,0.0,0.0,0.0,0.0,0.0,0.0,0.0,0.0,0.0,0.0,0.0,0.0,0.0,0.0,0.0,0.0,0.0,0.0,0.0,0.0,0.0,0.0,0.0,0.0,0.0,0.0,0.0,0.0,0.0,0.0,0.0,0.0,4.6325,4.8114,4.9097,4.9168,4.9168,4.9168,4.9067,4.7038,4.2508,0.0,0.0,0.0,0.0,0.0,0.0,0.0,0.0,0.0,0.0,0.0,0.0,0.0,0.0,0.0,0.0,0.0,0.0,0.0,0.0,0.0,0.0,0.0,0.0,0.0,0.0,0.0,0.0,0.0,0.0,0.0,0.0,0.0,0.0,0.0,0.0,0.0,0.0,0.0,0.0,0.0,0.0,0.0,0.0,0.0,0.0,0.0,0.0,0.0,0.0,0.0,0.0,0.0,0.0,0.0,0.0,0.0,0.0,0.0,0.0,0.0,0.0,0.0,0.0,0.0,0.0,0.0,0.0,0.0,0.0,0.0,0.0,0.0,0.0,0.0,0.0,0.0,0.0,0.0,0.0,0.0,0.0,0.0,0.0,0.0,0.0,0.0,0.0,0.0,0.0,0.0,0.0,0.0,0.0,0.0,0.0,0.0,0.0,0.0,0.0,0.0,0.0,4.435,4.709,4.9018,4.9018,4.9018,4.9018,4.9018,4.8904,4.6797,4.2037,0.0,0.0,0.0,0.0,0.0,0.0,0.0,0.0,0.0,0.0,0.0,0.0,0.0,0.0,0.0,0.0,0.0,0.0,0.0,0.0,0.0,0.0,0.0,0.0,0.0,0.0,0.0,0.0,0.0,0.0,0.0,0.0,0.0,0.0,0.0,0.0,0.0,0.0,0.0,0.0,0.0,0.0,0.0,0.0,0.0,0.0,0.0,0.0,0.0,0.0,0.0,0.0,0.0,0.0,0.0,0.0,0.0,0.0,0.0,0.0,0.0,0.0,0.0,0.0,0.0,0.0,0.0,0.0,0.0,0.0,0.0,0.0,0.0,0.0,0.0,0.0,0.0,0.0,0.0,0.0,0.0,0.0,0.0,0.0,0.0,0.0,0.0,0.0,0.0,0.0,0.0,0.0,0.0,0.0,0.0,0.0,0.0,0.0,0.0,0.0,0.0,0.0,4.4478,4.7114,4.9018,4.9018,4.9018,4.9018,4.9018,4.8478,4.6323,0.0,0.0,0.0,0.0,0.0,0.0,0.0,0.0,0.0,0.0,0.0,0.0,0.0,0.0,0.0,0.0,0.0,0.0,0.0,0.0,0.0,0.0,0.0,0.0,0.0,0.0,0.0,0.0,0.0,0.0,0.0,0.0,0.0,0.0,0.0,0.0,0.0,0.0,0.0,0.0,0.0,0.0,0.0,0.0,0.0,0.0,0.0,0.0,0.0,0.0,0.0,0.0,0.0,0.0,0.0,0.0,0.0,0.0,0.0,0.0,0.0,0.0,0.0,0.0,0.0,0.0,0.0,0.0,0.0,0.0,0.0,0.0,0.0,0.0,0.0,0.0,0.0,0.0,0.0,0.0,0.0,0.0,0.0,0.0,0.0,0.0,0.0,0.0,0.0,0.0,0.0,0.0,0.0,0.0,0.0,0.0,0.0,0.0,0.0,0.0,0.0,0.0,0.0,4.3933,4.719,4.953,4.9634,4.9649,4.9649,4.9649,4.9473,4.7306,4.2461,0.0,0.0,0.0,0.0,0.0,0.0,0.0,0.0,0.0,0.0,0.0,0.0,0.0,0.0,0.0,0.0,0.0,0.0,0.0,0.0,0.0,0.0,0.0,0.0,0.0,0.0,0.0,0.0,0.0,0.0,0.0,0.0,0.0,0.0,0.0,0.0,0.0,0.0,0.0,0.0,0.0,0.0,0.0,0.0,0.0,0.0,0.0,0.0,0.0,0.0,0.0,0.0,0.0,0.0,0.0,0.0,0.0,0.0,0.0,0.0,0.0,0.0,0.0,0.0,0.0,0.0,0.0,0.0,0.0,0.0,0.0,0.0,0.0,0.0,0.0,0.0,0.0,0.0,0.0,0.0,0.0,0.0,0.0,0.0,0.0,0.0,0.0,0.0,0.0,0.0,0.0,0.0,0.0,0.0,0.0,0.0,0.0,0.0,0.0,0.0,0.0,0.0,4.3722,4.7292,4.9825,4.9898,4.9913,4.9913,4.9913,4.9913,4.8178,4.4155,0.0,0.0,0.0,0.0,0.0,0.0,0.0,0.0,0.0,0.0,0.0,0.0,0.0,0.0,0.0,0.0,0.0,0.0,0.0,0.0,0.0,0.0,0.0,0.0,0.0,0.0,0.0,0.0,0.0,0.0,0.0,0.0,0.0,0.0,0.0,0.0,0.0,0.0,0.0,0.0,0.0,0.0,0.0,0.0,0.0,0.0,0.0,0.0,0.0,0.0,0.0,0.0,0.0,0.0,0.0,0.0,0.0,0.0,0.0,0.0,0.0,0.0,0.0,0.0,0.0,0.0,0.0,0.0,0.0,0.0,0.0,0.0,0.0,0.0,0.0,0.0,0.0,0.0,0.0,0.0,0.0,0.0,0.0,0.0,0.0,0.0,0.0,0.0,0.0,0.0,0.0,0.0,0.0,0.0,0.0,0.0,0.0,0.0,0.0,0.0,0.0,0.0,4.375,4.7398,5.0014,5.0043,5.0043,5.0037,5.0094,5.008,4.9046,4.6637,0.0,0.0,0.0,0.0,0.0,0.0,0.0,0.0,0.0,0.0,0.0,0.0,0.0,0.0,0.0,0.0,0.0,0.0,0.0,0.0,0.0,0.0,0.0,0.0,0.0,0.0,0.0,0.0,0.0,0.0,0.0,0.0,0.0,0.0,0.0,0.0,0.0,0.0,0.0,0.0,0.0,0.0,0.0,0.0,0.0,0.0,0.0,0.0,0.0,0.0,0.0,0.0,0.0,0.0,0.0,0.0,0.0,0.0,0.0,0.0,5.0858,4.877,0.0,0.0,0.0,0.0,0.0,0.0,0.0,0.0,0.0,0.0,0.0,0.0,0.0,0.0,0.0,0.0,0.0,0.0,0.0,0.0,0.0,0.0,0.0,0.0,0.0,0.0,0.0,0.0,0.0,0.0,0.0,0.0,0.0,0.0,0.0,0.0,0.0,0.0,0.0,0.0,4.3356,4.7606,5.0694,5.0972,5.0986,5.1136,5.1525,5.1475,5.0426,4.8088,4.744,0.0,0.0,0.0,0.0,0.0,0.0,0.0,0.0,0.0,0.0,0.0,0.0,0.0,0.0,0.0,0.0,0.0,0.0,0.0,0.0,0.0,0.0,0.0,0.0,0.0,0.0,0.0,0.0,0.0,0.0,0.0,0.0,0.0,0.0,0.0,0.0,0.0,0.0,0.0,0.0,0.0,0.0,0.0,0.0,0.0,0.0,0.0,0.0,0.0,0.0,0.0,0.0,0.0,0.0,0.0,0.0,0.0,0.0,0.0,5.1059,5.0118,0.0,0.0,0.0,0.0,0.0,0.0,0.0,0.0,0.0,0.0,0.0,0.0,0.0,0.0,0.0,0.0,0.0,0.0,0.0,0.0,0.0,0.0,0.0,0.0,0.0,0.0,0.0,0.0,0.0,0.0,0.0,0.0,0.0,0.0,0.0,0.0,0.0,0.0,0.0,0.0,4.3277,4.7834,5.1198,5.1574,5.166,5.1799,5.2241,5.2229,5.1676,5.0491,4.9194,0.0,0.0,0.0,0.0,0.0,0.0,0.0,0.0,0.0,0.0,0.0,0.0,0.0,0.0,0.0,0.0,0.0,0.0,0.0,0.0,0.0,0.0,0.0,0.0,0.0,0.0,0.0,0.0,0.0,0.0,0.0,0.0,0.0,0.0,0.0,0.0,0.0,0.0,0.0,0.0,0.0,0.0,0.0,0.0,0.0,0.0,0.0,0.0,0.0,0.0,0.0,0.0,0.0,5.2088,5.2576,5.2576,5.3393,5.2998,5.1694,5.1799,5.2088,5.2359,5.1025,0.0,0.0,0.0,0.0,0.0,0.0,0.0,0.0,0.0,0.0,0.0,0.0,0.0,0.0,0.0,0.0,0.0,0.0,0.0,0.0,0.0,0.0,4.8826,5.2205,5.1601,5.0149,4.9985,0.0,0.0,0.0,0.0,0.0,0.0,0.0,0.0,0.0,0.0,0.0,4.3467,4.8464,5.2142,5.2558,5.2605,5.2768,5.3178,5.32,5.3222,5.3297,5.1255,4.9767,0.0,0.0,0.0,0.0,0.0,0.0,0.0,0.0,0.0,0.0,0.0,0.0,0.0,0.0,0.0,0.0,0.0,0.0,0.0,0.0,0.0,0.0,0.0,0.0,0.0,0.0,0.0,0.0,0.0,0.0,0.0,0.0,4.9125,5.0414,0.0,0.0,0.0,0.0,0.0,0.0,0.0,0.0,0.0,0.0,0.0,0.0,0.0,5.0726,5.1189,5.2,5.2797,5.3567,5.496,5.5638,5.5638,5.6436,5.6701,5.6398,5.4424,0.0,5.28,5.4721,0.0,0.0,0.0,0.0,0.0,0.0,0.0,0.0,0.0,0.0,0.0,0.0,0.0,0.0,0.0,0.0,0.0,0.0,0.0,0.0,0.0,0.0,5.5625,5.6142,5.397,5.255,5.5228,4.9915,4.553,4.8444,4.6208,4.3905,0.0,0.0,0.0,0.0,0.0,0.0,4.4087,5.0287,5.4829,5.5034,5.5056,5.5231,5.5697,5.5619,5.5731,5.6145,5.5846,5.4341,5.1481,5.4294,0.0,0.0,0.0,0.0,0.0,0.0,0.0,0.0,0.0,0.0,0.0,0.0,0.0,0.0,0.0,0.0,0.0,0.0,0.0,0.0,0.0,0.0,0.0,0.0,0.0,0.0,0.0,0.0,0.0,4.9005,5.0334,5.0832,5.1123,5.0817,0.0,0.0,0.0,0.0,0.0,0.0,0.0,0.0,0.0,5.0342,5.1517,5.2321,5.2713,5.41,5.5269,5.6122,5.6632,5.6853,5.6891,5.7232,5.7384,5.7354,5.6846,5.6396,5.6031,5.534,5.5631,5.648,0.0,0.0,0.0,0.0,5.3297,5.3917,5.2167,5.3061,5.4726,5.3332,0.0,0.0,0.0,0.0,0.0,0.0,0.0,5.1685,5.3028,5.4829,5.6556,5.791,5.7157,5.6535,5.7947,5.3734,5.0081,5.1503,4.9232,4.6537,4.4636,4.5196,0.0,0.0,0.0,4.8576,4.8236,5.241,5.5525,5.586,5.5881,5.6091,5.6528,5.6528,5.6585,5.6815,5.6824,5.6149,5.4724,5.6118,5.4651,0.0,0.0,0.0,0.0,0.0,0.0,0.0,0.0,0.0,0.0,0.0,0.0,0.0,0.0,0.0,0.0,0.0,0.0,0.0,0.0,0.0,0.0,0.0,0.0,0.0,0.0,0.0,0.0,5.0215,5.1454,5.1823,5.23,5.2187,0.0,0.0,0.0,0.0,0.0,0.0,5.1912,5.2081,5.2044,5.18,5.363,5.4637,5.4619,5.6142,5.7271,5.7896,5.782,5.7818,5.7818,5.7954,5.8036,5.8074,5.8718,5.9022,5.881,5.6425,5.621,5.7412,5.7021,5.6655,5.6203,5.5371,5.5586,5.6038,5.4341,5.5316,5.717,5.5898,5.5448,5.5323,5.4543,0.0,0.0,0.0,0.0,5.3938,5.6024,5.666,5.7246,5.904,5.9445,5.9445,5.9445,5.6631,5.4236,5.4735,5.2559,4.9757,4.7024,4.8321,0.0,4.4343,4.837,5.1818,5.1622,5.4443,5.6613,5.6952,5.6982,5.7144,5.747,5.7525,5.7525,5.7525,5.7525,5.7525,5.7525,5.7525,5.6324,5.3846,0.0,0.0,0.0,0.0,0.0,0.0,0.0,0.0,0.0,0.0,0.0,0.0,0.0,0.0,0.0,0.0,0.0,0.0,0.0,0.0,0.0,0.0,0.0,0.0,0.0,0.0,0.0,0.0,0.0,5.4255,5.5436,0.0,0.0,0.0,0.0,5.1345,5.1267,5.1988,5.3582,5.4236,5.525,5.6773,5.7554,5.794,5.7978,5.8072,5.8138,5.8171,5.8662,5.8904,5.8936,5.9505,5.978,5.978,5.9818,5.9856,5.9818,5.9674,5.9652,5.9608,5.8199,5.7623,5.7243,5.4231,5.5022,5.7376,5.5753,5.7173,5.9736,5.9702,5.8208,5.59,5.3036,5.2647,0.0,0.0,5.4134,5.6135,5.5543,5.7511,5.9717,5.9831,5.9869,5.9869,5.9869,5.7923,5.6724,5.8639,5.5826,5.3319,5.3946,0.0,5.1699,4.7668,5.0583,5.294,5.2164,5.6191,5.9131,5.915,5.915,5.9159,5.9178,5.9178,5.9178,5.9178,5.9178,5.9178,5.9178,5.9178,5.9102,5.8915,5.5093,0.0,0.0,0.0,0.0,0.0,0.0,0.0,0.0,0.0,0.0,0.0,0.0,0.0,0.0,0.0,0.0,0.0,0.0,0.0,0.0,0.0,0.0,0.0,0.0,0.0,0.0,0.0,0.0,5.3907,5.4466,0.0,5.4624,5.4121,5.4012,5.4495,5.505,5.5838,5.6945,5.7272,5.7677,5.8277,5.852,5.8932,5.9479,5.9323,5.9514,6.0065,6.0107,6.0098,6.0083,6.0192,6.0234,6.022,6.0061,6.0045,6.0045,6.0045,6.0045,5.9984,5.9526,5.939,5.93,5.8189,5.8475,5.9363,5.8765,5.9271,6.016,6.0099,5.9505,5.8616,5.7647,5.7539,5.7679,5.7334,5.7998,5.8718,5.8364,5.9078,5.9893,5.9893,5.9893,5.9893,5.9893,5.9235,5.8832,5.9538,5.7154,5.4772,5.3892,5.5655,5.5789,5.1767,5.4581,5.7062,5.6752,5.8219,5.929,5.929,5.929,5.929,5.929,5.929,5.929,5.929,5.929,5.929,5.929,5.929,5.929,5.929,5.7863,5.428,0.0,0.0,0.0,0.0,0.0,0.0,0.0,0.0,0.0,0.0,0.0,0.0,0.0,0.0,0.0,0.0,0.0,0.0,0.0,0.0,0.0,0.0,0.0,0.0,0.0,5.1494,5.3042,5.4471,5.4902,5.54,5.6275,5.5855,5.5978,5.7109,5.7696,5.826,5.8814,5.915,5.9359,5.9359,5.961,6.0047,6.0631,6.0462,6.067,6.1225,6.1253,6.1173,6.1125,6.1185,6.0443,5.9113,6.0357,6.0122,5.8941,6.0342,6.0905,6.0898,6.0418,6.0248,6.0299,6.0299,6.0299,6.0299,6.0299,6.0299,6.0316,6.0197,6.0189,6.0226,6.0316,6.033,6.0354,6.054,6.0548,6.0593,6.0773,6.0809,6.0809,6.0809,6.0809,6.0809,6.0809,5.9472,5.8766,6.0424,5.8897,5.6395,5.3473,5.5187,5.5471,5.1111,5.2685,5.4343,5.4425,5.5847,5.6839,5.6839,5.8386,5.9364,5.9299,5.7884,5.7647,5.9187,5.7794,5.7756,5.9666,5.7906,5.7019,5.7291,5.5701,5.2733,4.8386,0.0,0.0,0.0,0.0,0.0,0.0,0.0,0.0,0.0,0.0,0.0,0.0,0.0,0.0,0.0,0.0,0.0,0.0,0.0,0.0,0.0,0.0,0.0,5.0338,5.3087,5.5436,5.6264,5.7125,5.7959,5.8749,5.8856,5.8916,5.8955,5.8955,5.8967,5.8996,5.966,6.005,6.005,6.0903,6.1367,6.1328,6.1484,6.1562,6.1598,6.2117,6.2216,6.1984,6.2631,6.063,5.6823,6.0783,6.0258,5.6903,6.0874,6.2539,6.2451,6.0822,6.0175,6.0175,6.0175,6.0175,6.0175,6.003,6.021,6.0478,6.0392,6.0421,6.0453,6.0453,6.0485,6.0623,6.1331,6.1537,6.1705,6.2428,6.2603,6.2603,6.2603,6.2603,6.2603,6.2603,5.8782,5.6746,6.1502,6.1106,5.8429,5.3467,5.2583,5.0963,4.6164,4.5281,0.0,4.5399,4.9443,5.2312,5.2312,5.6568,5.9386,5.9384,5.5101,5.4406,5.9093,5.5039,5.4942,6.0417,5.5416,5.2885,5.3641,4.8916,4.875,5.3343,0.0,0.0,0.0,0.0,0.0,0.0,0.0,0.0,0.0,0.0,0.0,0.0,0.0,0.0,0.0,0.0,0.0,0.0,0.0,0.0,0.0,5.4412,5.5792,5.5609,5.5813,5.652,5.8031,5.8401,5.864,5.8856,5.8901,5.914,5.9805,5.9844,6.0116,6.0744,5.8662,5.7154,5.6529,5.7953,5.8469,5.7887,6.1526,6.3372,6.3391,6.3499,6.3478,6.3432,6.3443,6.2722,6.1467,6.243,6.2099,6.0997,6.2201,6.2719,6.2704,6.2247,6.2086,6.2138,6.2138,6.2138,6.1695,5.8749,5.9699,6.2197,6.2175,6.2146,6.2123,6.2123,6.2079,6.2056,6.2223,6.2292,6.2322,6.2565,6.2603,6.2603,6.2603,6.2603,6.2603,6.2603,6.1491,6.0943,6.2273,6.2151,6.1332,5.9598,5.9372,5.8916,5.7515,5.7297,5.7297,5.7289,5.8455,5.923,5.923,5.6769,5.6786,6.0914,5.6261,5.54,6.0774,5.9881,5.9853,6.1403,5.9994,5.925,5.9484,5.4812,5.302,0.0,0.0,0.0,0.0,0.0,0.0,0.0,0.0,0.0,0.0,0.0,0.0,0.0,0.0,0.0,0.0,0.0,0.0,0.0,0.0,0.0,0.0,5.588,5.8015,5.9145,5.8231,5.7934,5.9284,5.9477,5.9607,5.9972,6.0331,6.0728,6.1237,6.1626,6.2057,6.2572,6.0718,5.8579,5.6274,5.8907,5.9306,5.7,6.1705,6.404,6.3969,6.4302,6.4326,6.414,6.4405,6.3456,6.168,6.3267,6.2906,6.1293,6.3085,6.3809,6.3772,0.0,0.0,0.0,0.0,6.2884,6.2555,6.0192,6.0891,6.2884,6.2884,6.2855,6.2825,6.2825,6.1558,6.0208,6.0553,5.9393,5.8491,6.0547,6.1104,6.1515,6.3266,6.3676,6.3676,6.3676,6.2024,6.1141,6.325,6.1986,0.0,6.2938,6.0963,5.8416,5.6297,5.5923,5.5929,5.5923,5.7632,5.8854,5.8854,5.7771,5.8353,6.1648,5.707,0.0,0.0,0.0,5.8843,5.8843,5.9463,0.0,0.0,0.0,5.4201,5.6209,5.4277,0.0,0.0,5.4118,5.2537,0.0,0.0,0.0,0.0,0.0,0.0,0.0,0.0,0.0,0.0,0.0,0.0,0.0,0.0,0.0,0.0,5.7042,5.9024,6.1273,6.0419,5.9755,6.0406,6.0568,6.0928,6.1732,6.2491,6.2933,6.2938,6.3676,6.4112,6.4099,6.3711,0.0,0.0,0.0,6.1767,5.7801,6.2102,6.4267,6.4163,6.4972,6.5105,6.4775,6.5608,6.3839,6.0369,6.3993,6.3527,6.0384,6.3976,6.5506,6.5388,6.3802,6.319,6.3152,6.2739,6.2923,6.3252,6.2877,0.0,0.0,6.3428,6.342,6.3413,6.3413,6.0835,5.8061,5.8738,5.6295,5.4459,5.8792,5.9892,6.0822,6.4557,6.5416,6.5416,6.5416,6.1847,6.0007,6.4533,6.1771,6.0059,6.4491,6.0195,5.4631,5.0202,4.9389,4.9312,4.9397,5.3127,5.5743,5.5743,5.9319,0.0,6.2333,5.8026,5.7327,6.206,5.8406,5.608,5.608,5.7435,5.5843,5.0854,5.2185,5.5057,5.9255,6.0035,6.2598,6.6596,5.8086,5.6361,0.0,0.0,0.0,0.0,0.0,0.0,0.0,0.0,0.0,0.0,0.0,0.0,0.0,0.0,0.0,5.8172,6.008,6.1656,6.2163,6.2556,6.2684,6.233,6.2369,6.2693,6.3502,6.3756,6.3834,6.3857,6.3993,6.4109,6.4099,6.149,5.9226,5.7512,5.9617,5.9982,5.8261,6.3177,6.592,6.6449,6.662,0.0,6.7467,6.768,6.7194,6.6185,6.7026,6.6793,6.5883,6.6716,6.708,6.7013,6.5505,6.4917,6.458,6.1872,6.2961,6.542,6.2718,6.3917,6.6679,6.6679,6.6637,6.6624,6.6624,6.6011,0.0,6.539,6.4804,6.4416,6.5283,6.552,6.5738,6.6522,6.6749,6.6749,6.6749,6.5937,6.5559,6.656,6.5946,6.5587,6.6532,6.4789,6.2797,6.1574,6.1444,6.1413,6.1173,6.2523,6.353,6.353,6.0881,6.0974,6.5514,6.087,6.0048,6.5479,6.4973,6.4439,6.4439,6.475,6.4431,6.3322,6.3633,6.4253,6.5161,6.5321,6.5902,6.6746,6.4893,6.4536,0.0,0.0,0.0,0.0,0.0,0.0,0.0,0.0,0.0,0.0,0.0,5.6884,5.634,0.0,5.8029,5.9263,6.0145,6.1242,6.2828,6.3115,6.3157,6.3249,6.3387,6.3611,6.3938,6.4341,6.4542,6.4446,6.485,6.5079,6.5102,6.3829,6.1857,5.9124,6.2384,6.2878,6.0231,6.4867,6.7381,6.7718,6.7686,6.7806,6.8047,6.8091,6.8004,6.7859,6.7898,6.7803,6.7643,6.7686,6.7727,6.7692,6.6949,6.6651,6.6383,6.4748,6.5452,6.6955,6.5268,6.6031,6.776,6.776,6.7669,6.7557,6.7557,6.6044,6.4287,6.4235,6.269,6.1561,6.3606,6.4147,6.4668,6.6702,6.7184,6.7184,6.7184,6.7184,6.7184,6.7184,6.7184,6.7184,6.7184,6.667,6.6155,6.5955,6.5908,6.5851,6.5657,6.6011,6.6254,6.6254,6.4066,6.3775,6.663,6.4245,6.3793,6.6633,6.681,6.681,6.681,6.7186,6.7599,6.8002,6.8425,6.8838,6.9241,6.9241,6.9241,6.9241,6.9241,6.879,0.0,0.0,0.0,0.0,0.0,0.0,0.0,5.6798,5.7414,5.713,5.7974,5.8551,5.7742,5.7673,5.8338,6.0042,6.0007,6.0646,6.3193,6.3326,6.3451,6.4163,6.4107,6.4102,6.4427,6.507,6.5506,6.5492,6.6134,6.6443,6.6304,6.7034,6.5716,6.1999,6.6047,6.6645,6.3172,6.6574,6.8341,6.8437,6.8437,6.8385,6.8346,6.8362,6.8362,6.8346,6.8346,6.8346,6.8346,6.8346,6.8346,6.8354,6.837,6.8305,6.8214,6.8139,6.811,6.8141,6.8237,6.8297,6.8289,6.8256,6.8138,6.8008,6.8008,6.5554,6.2829,6.2812,6.0381,5.8554,6.1877,6.2732,6.3585,6.6881,6.7666,6.7666,6.7666,6.7666,6.7666,6.7666,6.7818,6.7931,6.7931,6.8035,6.7921,6.7172,6.7007,6.6889,6.6897,6.6975,6.7036,6.7036,6.7186,6.7336,6.7486,6.7674,6.7749,6.7749,6.7749,6.7749,6.7749,6.8377,6.9005,6.968,7.0367,7.1043,7.1708,7.1708,7.1708,7.1708,7.1708,7.0994,5.3237,5.0966,4.9687,5.1364,5.3333,5.4882,0.0,5.8276,6.107,5.9688,6.1203,6.2786,6.2826,6.2731,6.2462,6.1949,6.2215,6.2573,6.2926,6.4244,6.5453,6.619,6.4663,6.4406,6.6597,6.6858,6.7166,6.7859,6.7921,6.769,6.7022,6.7795,6.7636,6.6249,6.757,6.7944,6.7248,6.7722,6.8288,6.891,6.891,6.9264,6.9954,6.9993,6.9985,6.9954,6.9954,6.9954,6.9954,6.9954,6.9954,6.9962,7.0002,6.9924,6.9677,6.9091,6.8891,6.8934,6.948,6.9663,6.9635,6.9492,6.9375,6.9393,6.9393,6.9043,6.8636,6.8535,6.8128,6.7881,6.8209,6.8291,6.8403,6.8881,6.8994,6.8994,6.8994,6.8994,6.8994,6.8994,6.9606,7.0143,7.0143,7.0734,7.0261,6.7424,6.6991,6.696,6.6814,6.7411,6.7851,6.7851,6.8517,6.923,7.0029,7.0743,7.1145,7.1145,7.1145,7.1145,7.1145,7.122,7.1332,7.1407,7.152,7.1595,7.1708,7.1708,7.1708,7.1708,7.1708,7.1595,5.2415,5.3289,5.454,5.5462,5.7699,5.9664,5.9822,6.1404,6.266,6.1939,6.305,6.3978,6.3444,6.2535,6.2188,6.327,6.282,6.2951,6.4817,6.5712,6.6413,6.7066,6.3503,6.1828,6.3951,6.5793,6.6,6.3854,6.5883,6.7091,6.6782,6.8031,6.8562,6.8135,6.8954,6.9365,6.9314,6.9713,7.0116,7.0514,7.0949,7.1324,7.1669,7.1667,7.1401,7.0899,7.133,7.1265,7.0809,7.1247,7.1409,7.1418,7.1456,7.1418,7.1181,7.0053,6.9901,7.0278,7.0498,7.0905,7.1274,7.1186,7.1075,7.101,7.101,7.0916,7.0799,7.0755,7.0744,7.0723,7.0668,7.0657,7.0657,7.0657,7.0657,7.0657,7.0657,7.0657,7.0657,7.0657,7.0957,7.1193,7.1193,7.1482,7.1253,6.9912,6.9745,6.9713,6.9665,6.9954,7.0131,7.0131,7.0431,7.0807,7.1182,7.152,7.1708,7.1708,7.1708,7.1708,7.1708,7.1708,7.1933,7.2395,7.2395,7.2658,7.3134,7.3134,7.3134,7.3134,7.3134,7.3054,5.2809,5.4877,5.7009,5.8626,6.0567,6.237,6.3487,6.362,6.3551,6.3729,6.43,6.4558,6.3821,6.29,6.2733,6.4326,6.3729,6.3907,6.6185,6.6766,6.6726,6.6167,6.2718,6.0056,5.9163,6.2855,6.4597,6.2853,6.5695,6.7499,6.7474,6.8862,6.9645,6.9593,7.0387,7.0843,7.085,7.1387,7.1691,7.1802,7.2337,7.2604,7.2604,7.2604,7.2262,7.1692,7.2215,7.2101,7.1532,7.2062,7.2297,7.2297,7.2297,7.2268,7.2086,7.102,7.0982,7.1426,7.1367,7.1726,7.2208,7.2147,7.2023,7.1934,7.1934,7.1814,7.1708,7.1708,7.1708,7.1708,7.1708,7.1708,7.1708,7.1708,7.1708,7.1708,7.1708,7.1708,7.1708,7.1708,7.1858,7.2008,7.2008,7.2233,7.2384,7.2384,7.2384,7.2233,7.1745,7.1708,7.1708,7.1708,7.1895,7.2008,7.2008,7.2233,7.2384,7.2384,7.2384,7.2384,7.2384,7.2384,7.2646,7.3258,7.3258,7.3559,7.4186,7.396,7.3825,7.3754,7.3492,7.3214,5.4937,5.4023,5.3356,5.8198,5.9312,6.0067,6.3336,6.3924,6.4065,6.5029,6.5107,6.5055,6.5213,6.5739,6.5889,6.5112,6.5643,6.6213,6.6319,6.6964,6.6246,6.2964,6.3069,6.0377,5.2475,5.7888,6.3695,6.8224,6.9494,7.0035,6.9907,7.0825,7.1236,7.1029,7.1949,7.2376,7.2241,7.2269,7.2269,7.2279,7.2307,7.2307,7.2307,7.2307,7.2307,7.2269,7.2307,7.2307,7.2269,7.2297,7.2297,7.2297,7.2297,7.2177,7.2002,7.1964,7.2099,7.223,7.2037,7.2002,7.196,7.177,7.173,7.1719,7.1719,7.1719,7.1708,7.1708,7.1708,7.1708,7.1708,7.1708,7.1708,7.1708,7.1708,7.1708,7.1708,7.1708,7.1708,7.1708,7.232,7.2845,7.2845,7.3559,7.4111,7.4111,7.4111,7.3547,7.1895,7.1708,7.1708,7.1708,7.2395,7.2845,7.2845,7.3634,7.4111,7.4111,7.4111,7.4111,7.4111,7.4111,7.416,7.4148,7.4148,7.4148,7.4186,7.3334,7.2843,7.2618,7.1784,7.1095,5.3464,5.5334,5.7882,5.9716,6.1597,6.331,6.4589,6.4739,6.4664,6.4951,6.3245,6.1742,6.1951,6.0212,5.9633,6.2323,6.0989,6.153,6.7056,6.3833,6.2715,6.7524,6.3091,6.0825,6.3984,6.3445,6.2444,6.136,6.7121,7.0621,7.0591,7.1484,7.1959,7.1881,7.2185,7.2337,7.2297,7.2806,7.303,7.303,7.3525,7.3748,7.3748,7.3748,7.3483,7.2992,7.3495,7.3388,7.2876,7.3366,7.3559,7.3559,7.3559,7.3514,7.3447,7.3447,7.3492,7.3472,7.2804,7.2958,7.3436,7.3394,7.336,7.336,7.336,7.336,7.336,7.336,7.336,7.336,7.336,7.336,7.336,7.336,7.336,7.336,7.336,7.336,7.336,7.336,7.3596,7.3747,7.3747,7.3521,7.3146,7.2609,7.3472,7.4009,7.3435,7.336,7.336,7.336,7.3585,7.3521,7.2958,7.3183,7.3108,7.2571,7.2534,7.2534,7.2534,7.2534,7.2534,7.2534,7.2534,7.2454,7.2265,7.2515,7.2507,7.2261,7.2509,7.2429,5.5285,5.8164,6.1209,6.1934,6.3674,6.5158,6.5082,6.4926,6.4864,6.5205,6.3629,6.1918,6.118,5.9399,5.8933,6.185,6.0866,6.2003,6.8556,6.5626,6.4396,6.8629,6.404,6.2193,6.6407,6.553,6.3432,6.0377,6.5751,6.9341,6.9634,7.0193,7.1272,7.3006,7.3044,7.3023,7.2971,7.3436,7.3706,7.3706,7.4157,7.4387,7.4387,7.4387,7.2956,7.0658,7.3217,7.2808,7.0589,7.3131,7.4186,7.4186,7.4186,7.4186,7.4186,7.4186,7.4186,7.4111,7.3559,7.3747,7.4186,7.4186,7.4186,7.4186,7.4186,7.4186,7.4186,7.4186,7.4186,7.4186,7.4186,7.4186,7.4111,7.3822,7.3747,7.3672,7.336,7.3322,7.3322,7.3322,7.3322,7.3322,7.3322,7.2834,7.232,7.1783,7.2609,7.3322,7.3322,7.3322,7.3322,7.3322,7.3322,7.3059,7.2507,7.247,7.2233,7.1745,7.1708,7.1708,7.1708,7.1971,7.2121,7.2121,7.2041,7.2122,7.2351,7.2048,7.1988,7.2109,7.2229,7.2328,5.9966,6.1965,6.2973,6.4544,6.5313,6.55,6.4868,6.4596,6.4689,6.554,6.5605,6.481,6.2303,6.2311,6.2871,6.3334,6.4538,6.6653,7.0228,7.1202,7.0141,6.6303,6.5868,6.4388,6.0714,6.4536,6.6658,6.5176,6.5941,6.6897,6.7703,6.7619,6.9665,7.4229,7.438,7.4324,7.4186,7.4186,7.4186,7.4186,7.4186,7.4197,7.4111,7.4111,7.107,6.6124,7.1681,7.0919,6.6264,7.1783,7.4111,7.4111,7.4073,7.4111,7.4111,7.4073,7.4085,7.4085,7.4085,7.4111,7.4186,7.4186,7.4148,7.4111,7.4111,7.4111,7.4085,7.4085,7.4085,7.4085,7.4085,7.4085,7.3859,7.3033,7.2845,7.262,7.1858,7.1708,7.1708,7.1708,7.1708,7.1708,7.1633,7.1633,7.1633,7.1595,7.1595,7.1633,7.1708,7.1708,7.1708,7.1708,7.1708,7.1708,7.1708,7.1708,7.1708,7.1708,7.1708,7.1708,7.1708,7.247,7.2883,7.2883,7.2726,7.3163,7.4151,7.205,7.1452,7.2182,7.1168,7.0997,5.9604,6.1896,6.439,6.5434,6.5331,6.4935,6.4864,6.5143,6.4672,6.2007,6.0392,5.8389,5.4905,5.2258,5.2821,5.9786,5.8006,5.8404,6.605,6.4661,6.3811,6.6309,6.6638,6.77,7.0245,7.1602,7.0943,6.7553,7.0309,7.2224,7.2449,7.2427,7.2985,7.4206,7.4243,7.422,7.4186,7.4186,7.4186,7.4186,7.4186,7.3859,7.3221,7.3221,7.2094,7.0206,7.167,7.1482,7.0244,7.1708,7.2684,7.3183,7.2571,7.2684,7.3146,7.2571,7.2346,7.2346,7.2346,7.3172,7.4186,7.4186,7.3747,7.3221,7.3221,7.2796,7.2346,7.2346,7.2346,7.2346,7.2346,7.2346,7.2271,7.2046,7.2008,7.1933,7.1745,7.1708,7.1708,7.1708,7.1708,7.152,7.093,7.0818,7.0592,6.9943,7.0394,7.1006,7.1633,7.1708,7.1708,7.1708,7.1708,7.1708,7.1708,7.1708,7.1708,7.1708,7.1708,7.1708,7.1708,7.247,7.2883,7.2883,7.3226,7.3454,7.354,7.3363,7.3301,7.3312,7.3632,7.3839,6.1915,6.3728,6.5539,6.5408,6.5445,6.502,6.3045,6.3276,6.2946,5.9387,5.8144,5.6687,5.3497,5.0927,5.1743,5.9181,5.7924,5.8425,6.5303,6.4624,6.4407,6.7064,6.744,6.9214,7.3747,7.4186,7.3232,7.0948,7.1216,7.1505,7.1538,7.1505,7.232,7.416,7.4186,7.4009,7.3634,7.3634,7.3446,7.3097,7.3097,7.2845,7.2357,7.2357,7.0732,6.8066,7.0581,7.0244,6.8104,7.0657,7.1971,7.232,7.1858,7.1971,7.232,7.1858,7.1708,7.1708,7.1708,7.2308,7.3097,7.3097,7.2759,7.2357,7.2357,7.2046,7.1708,7.1708,7.1708,7.1708,7.1708,7.1708,7.1595,7.1268,7.1156,7.107,7.0694,7.0619,7.0732,7.1107,7.1156,7.1268,7.1494,7.1531,7.1531,7.1407,7.1832,7.2282,7.2721,7.2459,7.2245,7.2245,7.2571,7.2796,7.2796,7.2796,7.2796,7.2796,7.2796,7.2796,7.2796,7.3443,7.3833,7.3833,7.3864,7.4054,7.4399,7.409,7.4086,7.4425,7.4757,7.5087,6.4661,6.5916,6.6439,6.5208,6.5765,6.5622,6.1637,6.13,6.095,5.7896,5.7548,5.7137,5.4929,5.4002,5.5163,6.0089,6.0872,6.1929,6.497,6.7002,6.794,6.7261,6.7664,6.9616,7.3822,7.3698,7.3622,7.4148,7.0855,6.886,6.8924,6.886,7.0405,7.3934,7.3923,7.3521,7.2733,7.2733,7.2395,7.1708,7.1708,7.1633,7.152,7.152,6.8742,6.4209,6.9192,6.8517,6.4322,6.9305,7.1445,7.152,7.1407,7.1445,7.152,7.1498,7.1498,7.1535,7.176,7.1835,7.1835,7.1745,7.1633,7.152,7.152,7.1445,7.137,7.137,7.137,7.137,7.137,7.137,7.122,7.063,7.048,7.0367,6.9793,6.9793,7.0093,7.0855,7.1006,7.1419,7.2845,7.3071,7.3334,7.4085,7.431,7.4347,7.4347,7.3596,7.3071,7.3071,7.3747,7.4223,7.4347,7.4347,7.4411,7.4486,7.45,7.4477,7.4477,7.4972,7.527,7.527,7.4832,7.5088,7.604,7.4792,7.4647,7.5556,7.5316,7.5601,6.3096,6.4728,6.6821,6.6561,6.6681,6.6821,6.6801,6.4752,6.1948,5.8809,5.6551,5.4852,5.3833,5.3989,5.5718,6.0029,6.0698,5.9928,5.7844,6.3601,6.6756,6.328,6.5899,6.9616,7.3822,7.1081,7.0517,7.3934,7.351,7.3146,7.312,7.3146,7.3108,7.3146,7.2459,7.2046,7.1895,7.1895,7.182,7.1708,7.1708,7.1343,7.0705,7.0705,6.9766,6.8216,6.9192,6.908,6.8216,6.923,7.0056,7.063,6.9906,7.0056,7.0694,7.0582,7.0537,7.0724,7.2073,7.2522,7.2433,7.1862,7.1268,7.0705,7.0705,7.0217,6.9643,6.9643,6.9643,6.9643,6.9643,6.9643,6.9793,7.0367,7.048,7.0818,7.2019,7.2808,7.336,7.3521,7.3559,7.3672,7.3934,7.3972,7.4035,7.4197,7.476,7.5173,7.5173,7.4498,7.3972,7.3972,7.4122,7.446,7.5136,7.5173,7.5474,7.6138,7.5981,7.5857,7.5857,7.6372,7.6659,7.6659,7.6995,7.7244,7.745,7.692,7.6769,7.6961,7.69,7.6959,6.3142,6.4898,6.7288,6.6938,6.7474,6.7119,6.3304,6.209,6.0154,5.435,5.2502,5.1807,5.1425,5.1665,5.3971,6.0248,6.1271,6.143,6.1984,6.5486,6.7251,6.5261,6.68,6.879,7.078,6.9166,6.8828,7.0818,7.0592,7.1268,7.3409,7.3146,7.2721,7.2282,7.1895,7.1482,7.1081,7.1081,7.0844,7.0394,7.0394,7.0431,7.048,7.048,7.0743,7.1107,7.1107,6.9418,6.6913,7.0394,7.0029,6.7599,7.063,7.2046,7.2421,7.2353,7.233,7.2442,7.3192,7.3492,7.3429,7.3123,7.2721,7.2432,7.2432,7.2121,7.1783,7.1783,7.1783,7.1783,7.1783,7.1783,7.1895,7.232,7.2432,7.2658,7.3409,7.3897,7.431,7.476,7.4836,7.5098,7.5962,7.6112,7.6262,7.6713,7.7089,7.7314,7.7314,7.6976,7.66,7.6187,7.6488,7.6901,7.7276,7.7179,7.7292,7.7654,7.7411,7.7252,7.7252,7.7339,7.743,7.743,7.7496,7.7517,7.7517,7.7365,7.7289,7.7289,7.7289,7.7289,6.4052,6.5854,6.7958,6.7465,6.8415,6.7674,6.068,5.99,5.8548,5.1334,4.9679,4.9828,5.0879,5.1104,5.3508,6.0867,6.1468,6.2332,6.6124,6.6838,6.7213,6.7926,6.8002,6.834,6.9241,6.8527,6.8302,6.9015,6.8313,6.9241,7.247,7.2046,7.1708,7.1708,7.1708,7.1407,7.0743,7.0743,7.0517,6.9981,6.9981,7.0431,7.1306,7.1306,7.1982,7.3183,7.3183,6.9879,6.5045,7.1531,7.0405,6.5196,7.1681,7.4186,7.4223,7.435,7.4413,7.4488,7.4826,7.4939,7.4976,7.5199,7.476,7.4186,7.4186,7.4186,7.4186,7.4186,7.4186,7.4186,7.4186,7.4186,7.4223,7.4423,7.4723,7.4986,7.4986,7.5136,7.5436,7.6075,7.6187,7.66,7.7927,7.814,7.8365,7.9004,7.9116,7.9091,7.9029,7.9029,7.8741,7.8054,7.8579,7.9029,7.9029,7.8774,7.8565,7.8565,7.8308,7.8104,7.8104,7.7842,7.7681,7.7681,7.7426,7.7289,7.7289,7.7289,7.7289,7.7289,7.7289,7.7289,6.5694,6.7643,6.9069,6.9005,6.9691,6.959,6.6596,6.3168,5.9506,5.5723,5.2043,5.0879,5.5385,5.6211,5.7713,6.2257,6.0445,5.9356,6.1994,6.3045,6.466,6.7664,6.8002,6.9466,7.3247,7.0217,6.9241,7.2245,7.1719,7.1407,7.1783,7.1745,7.1708,7.1708,7.1708,7.167,7.1595,7.1595,7.1933,7.2545,7.2545,7.3033,7.3859,7.3859,7.3934,7.4085,7.4085,7.078,6.5861,7.1745,7.0732,6.5974,7.1895,7.4186,7.4249,7.4893,7.5107,7.5332,7.683,7.7367,7.7529,7.8366,7.6638,7.4186,7.4186,7.4186,7.4186,7.4186,7.4186,7.4186,7.4186,7.4186,7.4385,7.5098,7.645,7.7551,7.7551,7.814,7.8666,7.8741,7.8778,7.8816,7.8966,7.9004,7.9004,7.9079,7.9116,7.9016,7.8774,7.8734,7.8605,7.82,7.8515,7.8734,7.8734,7.8444,7.8243,7.8243,7.8,7.7827,7.7827,7.7517,7.7372,7.7372,7.7341,7.7289,7.7289,7.7289,7.7289,7.7289,7.7289,7.7289,6.2328,6.6018,7.0104,7.0581,7.1343,7.0405,6.4434,6.2144,5.9553,5.3236,5.0616,5.0241,5.2727,5.3545,5.5235,5.9394,5.8981,5.9994,6.5476,6.6162,6.7476,7.1268,7.1719,7.1419,7.0555,6.8978,6.834,6.9176,6.8951,6.9616,7.1595,7.1708,7.1708,7.1708,7.2158,7.2432,7.2432,7.2947,7.3371,7.3672,7.3672,7.4122,7.4911,7.4911,7.5474,7.6413,7.6413,7.1419,6.3984,7.3296,7.1681,6.4209,7.3521,7.7164,7.7189,7.7441,7.7529,7.7641,7.8329,7.8554,7.8591,7.8979,7.8215,7.7164,7.7164,7.7164,7.7164,7.7164,7.7164,7.7164,7.7164,7.7164,7.7239,7.7539,7.814,7.8628,7.8628,7.8853,7.9116,7.9116,7.9116,7.9116,7.9116,7.8979,7.8864,7.8864,7.8684,7.8501,7.8431,7.8417,7.8363,7.8216,7.8312,7.8417,7.8417,7.8141,7.7971,7.7971,7.7666,7.7744,7.8275,7.8137,7.8332,7.8809,7.8809,7.8809,7.8809,7.8809,7.8809,7.8809,7.8809,7.8809,6.1261,6.5899,7.1043,7.1858,7.1569,6.9316,6.2519,6.0454,5.7976,5.0954,4.9654,4.9984,5.0587,5.1343,5.3174,5.7103,5.7929,6.0182,6.6151,6.6752,6.8002,7.1907,7.2357,7.1719,6.9992,6.9616,6.9316,6.9026,6.8989,7.0104,7.2658,7.3022,7.2947,7.2459,7.3446,7.4009,7.4009,7.461,7.5049,7.5286,7.5286,7.4948,7.4347,7.5812,7.6338,7.615,7.7614,7.2969,6.5148,7.5023,7.3296,6.5336,7.5249,7.9066,7.9004,7.9079,7.9054,7.9004,7.9079,7.9116,7.9116,7.9116,7.9054,7.8991,7.8991,7.9054,7.9116,7.9116,7.9116,7.9116,7.9116,7.9116,7.9091,7.9004,7.8991,7.8929,7.8852,7.8839,7.8839,7.8839,7.8839,7.8839,7.8839,7.8671,7.8538,7.8538,7.8326,7.8248,7.841,7.8447,7.8516,7.8652,7.8675,7.8607,7.8433,7.8418,7.8374,7.8374,7.8162,7.8332,7.8919,7.8956,7.9213,7.9779,7.9816,7.9816,7.9816,7.9816,7.9816,7.9816,7.9816,7.9795,6.4322,6.8479,7.1858,7.2695,6.9852,6.5984,6.2567,5.8605,5.4475,5.0353,5.002,5.055,5.0683,5.1294,5.291,5.6353,5.7591,5.8981,6.1506,6.2595,6.4359,6.7664,6.8077,6.9654,7.3735,7.3371,7.3183,7.4073,7.4111,7.4498,7.5324,7.6112,7.58,7.4223,7.5725,7.6551,7.6551,7.6551,7.7013,7.7852,7.7852,7.5699,7.1895,7.6826,7.6401,7.2046,7.6976,7.5774,7.0855,7.6713,7.5662,7.0968,7.6826,7.8941,7.8734,7.9016,7.8941,7.8747,7.9016,7.9116,7.9116,7.9116,7.8928,7.8695,7.8695,7.889,7.9116,7.9116,7.9116,7.9116,7.9116,7.9116,7.9041,7.8774,7.8695,7.8629,7.8271,7.8216,7.8216,7.8216,7.8216,7.8216,7.8216,7.8216,7.8202,7.8202,7.8202,7.8387,7.8936,7.9002,7.9178,7.9753,7.9795,7.959,7.9061,7.9489,7.9779,7.9779,7.9779,7.9779,7.9779,7.9779,7.9779,7.9816,7.9816,7.9816,7.9816,7.9816,7.9816,7.9816,7.9816,7.9874,5.7413,6.0942,6.4312,6.511,6.4332,6.2229,5.7751,5.6165,5.4091,4.8881,4.9224,5.0354,4.9962,5.0911,5.3089,5.7048,5.7488,5.9515,6.5964,6.6612,6.7889,7.1794,7.2245,7.277,7.4085,7.1858,7.167,7.4798,7.2921,7.2996,7.6075,7.7013,7.7013,7.5962,7.6938,7.7502,7.7502,7.8027,7.844,7.8703,7.8703,7.6262,7.1858,7.6851,7.6401,7.1971,7.6926,7.6042,7.1455,7.6693,7.5608,7.1243,7.6692,7.8631,7.8417,7.8697,7.8618,7.8353,7.8448,7.8474,7.8474,7.8474,7.8421,7.8377,7.8377,7.8407,7.8474,7.8474,7.8474,7.8474,7.8474,7.8474,7.8461,7.8404,7.8377,7.8312,7.823,7.8202,7.8202,7.8202,7.8202,7.8388,7.8931,7.8872,7.8928,7.9468,7.9401,7.9345,7.9495,7.9568,7.9595,7.9795,8.0277,8.0325,7.9626,7.9695,7.9816,7.9816,7.9816,8.0036,8.0608,8.0608,8.0865,8.1432,8.1415,8.1415,8.1415,8.1415,8.148,8.1592,8.1592,8.1459,5.4146,5.7901,6.1168,6.1656,6.0379,5.8201,5.5085,5.3349,5.1434,4.8138,5.0095,5.1786,4.985,5.1774,5.3913,5.4721,5.7037,6.0004,6.3561,6.4987,6.6612,6.9203,7.093,7.262,7.446,7.277,7.2721,7.5624,7.4272,7.4385,7.6938,7.7877,7.8102,7.7614,7.8102,7.8328,7.8328,7.8853,7.9116,7.9116,7.9116,7.6476,7.1858,7.6717,7.6255,7.1822,7.6681,7.6915,0.0,7.7231,7.6566,7.3927,7.7239,7.8336,7.8113,7.8404,7.8322,7.8122,7.8532,7.8634,7.8708,7.9042,7.9046,7.8932,7.8816,7.8502,7.8202,7.8202,7.8202,7.8202,7.8202,7.8425,7.8606,7.8544,7.8724,7.8918,7.8839,7.8787,7.8787,7.8787,7.8787,7.8972,7.9475,7.9423,7.9486,7.995,7.9905,7.9926,8.0204,8.0241,8.0351,8.0661,8.1158,8.1232,8.0771,8.0697,8.0697,8.0697,8.0697,8.0954,8.1415,8.1452,8.1672,8.2186,8.2186,8.2186,8.2186,8.2251,8.2332,8.2407,8.2534,8.2307,0.0,5.7976,6.0914,6.0914,5.7413,5.3958,5.3883,5.0353,0.0,4.8251,5.2278,5.4418,5.0563,5.3844,5.5571,5.0713,5.6624,6.0454,5.6578,5.9628,6.2144,6.1853,6.5786,7.0217,7.4535,7.5324,7.5887,7.6626,7.7489,7.7965,7.7965,7.8654,7.9054,7.9054,7.9054,7.9079,7.9116,7.9091,7.8904,7.859,7.8891,7.624,7.1299,7.6356,7.5968,7.1539,7.6178,7.8188,7.8174,7.8174,7.8197,7.8221,7.8235,7.814,7.7968,7.8248,7.8162,7.8079,7.9095,7.9454,7.9566,8.0382,8.0452,8.0115,7.9874,7.909,7.8318,7.8318,7.8318,7.8318,7.8318,7.8861,7.9383,7.9106,7.9622,8.0085,7.9842,7.9816,7.9816,7.9816,7.9816,7.9816,7.989,7.989,7.989,7.9963,7.9963,8.0257,8.1012,8.1085,8.1379,8.2113,8.2186,8.2186,8.2186,8.2186,8.2186,8.2186,8.2186,8.2186,8.2186,8.2186,8.2186,8.2186,8.2186,8.2203,8.2203,8.2327,8.2407,8.2439,8.2767,8.2528,5.0233,0.0,5.2381,5.2381,5.0992,4.949,0.0,4.8326,4.8514,5.0616,5.3882,5.5758,5.3641,5.7744,5.9843,5.4946,5.8464,6.1468,6.0492,6.3909,6.5373,6.2191,6.8828,7.2883,7.0844,7.4685,7.7401,7.7589,7.8166,7.85,7.85,7.8453,7.8407,7.8407,7.8407,7.862,7.9104,7.8902,7.6993,7.3472,7.6815,7.3939,6.5955,7.4459,7.5594,7.1206,7.6098,7.8076,7.7885,7.7885,7.816,7.8519,7.8722,7.9024,7.9369,7.9652,7.9562,7.939,7.9599,7.9704,7.9741,7.9925,7.9952,7.9874,7.9832,7.9632,7.9409,7.9409,7.9409,7.9409,7.9409,7.9557,7.9688,7.9611,7.9779,7.9874,7.9795,7.9816,7.9816,7.9816,7.9816,8.0,8.0608,8.0718,8.0938,8.1525,8.1636,8.1709,8.1893,8.1929,8.2003,8.2186,8.2186,8.2186,8.2186,8.2186,8.2186,8.2186,8.2186,8.2186,8.2186,8.2186,8.2186,8.2186,8.2186,8.2251,8.2343,8.2375,8.2534,8.2798,8.2874,8.2554,4.9152,4.949,4.994,5.1847,4.9978,4.8138,4.9978,4.8664,4.8176,5.2231,5.4441,5.5512,5.503,5.718,5.825,5.5968,5.7187,5.9018,6.0874,6.3039,6.3635,6.138,6.6104,6.9552,6.9567,7.4386,7.7664,7.8,7.8304,7.8471,7.8471,7.8285,7.8202,7.8202,7.8202,7.8353,7.866,7.8552,7.6142,7.1563,7.6061,7.4344,6.7508,7.4707,7.657,7.4047,7.4376,7.59,7.8004,7.5779,7.656,7.9171,7.9305,7.9532,7.9832,7.9967,7.9921,7.9853,8.0204,8.0571,8.0918,8.0918,8.0918,8.0918,8.0918,8.0918,8.0771,8.0,7.9816,7.9816,7.9816,8.0073,8.0351,8.0351,8.0624,8.0918,8.0918,8.0918,8.0918,8.0918,8.0918,8.1064,8.1489,8.1562,8.1709,8.2113,8.2186,8.2186,8.2186,8.2186,8.2186,8.2186,8.2517,8.2737,8.2737,8.3104,8.2994,8.226,8.2186,8.2186,8.2186,8.2186,8.2186,8.2186,8.2635,8.2916,8.2996,8.3524,8.3845,8.4031,8.4107,8.3793,4.9039,4.9227,5.015,5.4461,5.1335,4.8423,5.3232,5.0067,4.7808,5.3887,5.5309,5.5606,5.6041,5.678,5.6854,5.5569,5.5364,5.6583,5.9934,6.0944,6.1128,6.0494,6.2894,6.6009,6.9606,7.4341,7.7482,7.8165,7.816,7.8132,7.8132,7.809,7.8062,7.8062,7.8062,7.8062,7.8062,7.8104,7.5804,7.1291,7.5861,7.5625,7.1317,7.587,7.7932,7.7695,7.3468,7.4368,7.8458,7.436,7.5558,8.0,8.0,8.0073,8.0183,8.0183,8.0183,8.0257,8.0938,8.1636,8.2186,8.2186,8.2186,8.2186,8.2186,8.2186,8.1946,8.055,8.0183,8.0183,8.0183,8.0681,8.1195,8.1195,8.1709,8.2186,8.2186,8.2186,8.2186,8.2186,8.2186,8.2186,8.2186,8.2186,8.2186,8.2186,8.2186,8.2186,8.2186,8.2186,8.226,8.237,8.2994,8.3454,8.3564,8.4205,8.4022,8.2663,8.2553,8.2553,8.2553,8.2553,8.257,8.2602,8.3447,8.3913,8.3977,8.4943,8.5417,8.5448,8.5534,8.5281,4.7995,4.7913,4.8648,5.3959,5.1624,4.906,5.3157,5.08,4.984,5.6916,5.9404,5.9963,5.8769,6.5046,6.6851,5.5995,5.7488,6.0193,6.0823,6.392,6.4867,6.1382,6.8558,7.2684,6.9931,7.4732,7.8053,7.8202,7.8,7.7856,7.7856,7.7592,7.7441,7.7441,7.7441,7.7441,7.7441,7.771,7.5528,7.0932,7.5357,7.5021,7.0729,7.6067,7.8483,7.8483,7.8379,7.884,7.9559,7.8804,7.9412,8.0828,8.0828,8.1232,8.1819,8.1819,8.1819,8.1856,8.1966,8.2113,8.2186,8.2186,8.2186,8.2186,8.2186,8.2186,8.215,8.1893,8.1819,8.1819,8.1819,8.1929,8.2003,8.2003,8.2113,8.2186,8.2186,8.2186,8.2186,8.2186,8.2186,8.2186,8.2186,8.2186,8.2186,8.2186,8.2186,8.2186,8.2186,8.2186,8.2443,8.3124,8.3344,8.3675,8.4352,8.4535,8.4499,8.4242,8.4242,8.4242,8.4242,8.4242,8.4325,8.449,8.4617,8.4853,8.5138,8.5312,8.5479,8.5564,8.5595,8.5549,4.7883,4.8288,4.9958,5.6652,5.2915,4.995,5.9082,5.4427,5.1007,6.0868,5.8657,5.5949,5.9179,6.147,6.1473,5.7231,6.2372,6.5974,6.3328,6.5317,6.6353,6.4455,6.9362,7.2146,7.023,7.4316,7.7117,7.7117,7.6591,7.628,7.628,7.613,7.625,7.67,7.6717,7.6893,7.731,7.7919,7.5646,7.0647,7.5632,7.5573,7.1245,7.6749,7.9265,7.9119,7.6925,7.7659,8.0257,7.7659,7.8614,8.1636,8.1636,8.1856,8.2186,8.2186,8.2186,8.2186,8.2186,8.2186,8.2186,8.2186,8.2186,8.2186,8.2186,8.2186,8.2296,8.2737,8.2553,8.2186,8.2186,8.2186,8.2186,8.2186,8.2186,8.2333,8.2737,8.2847,8.2847,8.2847,8.2847,8.27,8.226,8.2186,8.2186,8.2186,8.2186,8.237,8.281,8.2847,8.3177,8.3985,8.4042,8.4389,8.5159,8.5233,8.5049,8.4646,8.4609,8.4659,8.4759,8.4759,8.4842,8.4984,8.5524,8.5889,8.6031,8.6607,8.6908,8.6932,8.6932,8.6932,4.765,4.8251,5.04,5.7773,5.3692,5.1258,6.4128,5.7449,5.178,6.3369,5.8382,5.3754,5.9663,5.7633,5.6309,6.0004,6.6286,6.9691,6.6866,6.7494,6.8227,6.827,6.9997,7.1222,7.1222,7.4062,7.5912,7.5912,7.5335,7.5083,7.5263,7.5281,7.5617,7.6419,7.667,7.7041,7.7619,7.8442,7.6683,7.2392,7.6793,7.6992,7.3681,7.8079,8.0073,7.989,7.644,7.7344,8.1012,7.7359,7.8373,8.2186,8.2186,8.2186,8.2186,8.2186,8.2186,8.2186,8.2186,8.2186,8.2223,8.2406,8.248,8.2517,8.27,8.2774,8.2884,8.3508,8.3251,8.2774,8.2774,8.2774,8.2774,8.2774,8.2774,8.292,8.3528,8.3528,8.3381,8.3381,8.3234,8.292,8.2296,8.2186,8.2186,8.2186,8.237,8.27,8.3308,8.3564,8.3968,8.4792,8.4719,8.4866,8.5453,8.569,8.5527,8.4903,8.5049,8.5227,8.5414,8.5464,8.5525,8.565,8.6455,8.6899,8.6947,8.774,8.8084,8.8084,8.8084,8.8084,4.6666,4.6523,4.7515,5.3999,5.3012,5.3282,6.4227,5.7766,5.2326,6.2579,6.1743,5.9748,6.1691,6.0035,6.0076,6.5375,6.6758,6.8305,7.1582,7.213,7.2213,7.2271,7.3033,7.3579,7.3579,7.4484,7.5101,7.5101,7.5047,7.5317,7.6085,7.6119,7.6436,7.7196,7.7997,7.8432,7.8516,7.9302,7.9155,7.8033,7.9155,7.9522,7.9244,8.0388,8.0901,8.0938,8.1358,8.1762,8.2076,8.1725,8.1835,8.2186,8.2186,8.2186,8.2186,8.2186,8.2186,8.2186,8.2186,8.2186,8.2333,8.3067,8.3308,8.3454,8.4205,8.4425,8.4425,8.4499,8.4462,8.4425,8.4425,8.4425,8.4425,8.4425,8.4425,8.4425,8.4499,8.3931,8.3381,8.3381,8.281,8.226,8.2186,8.2186,8.2186,8.2186,8.2847,8.3344,8.3381,8.4042,8.4829,8.5654,8.5049,8.4609,8.4682,8.538,8.58,8.5727,8.6407,8.6848,8.6865,8.7036,8.7167,8.7313,8.7586,8.7799,8.7994,8.8047,8.8084,8.8084,8.8084,8.8084,4.6368,4.6929,4.8808,5.6121,5.4205,5.3237,6.3709,5.8957,5.5214,6.5368,6.1486,5.6626,5.7655,6.0701,6.3747,6.5775,6.8527,7.0767,7.1782,7.2744,7.3346,7.3397,7.3649,7.4035,7.4496,7.3937,7.396,7.4938,7.4548,7.4623,7.5406,7.5926,7.6565,7.7347,7.769,7.833,7.9323,7.9109,7.9363,8.0094,8.0388,8.0534,8.0571,8.1379,8.1746,8.1746,8.2076,8.2186,8.2186,8.2186,8.2186,8.2186,8.2186,8.2186,8.2186,8.2186,8.2186,8.226,8.2774,8.2957,8.3104,8.3875,8.4168,8.4205,8.4499,8.4609,8.4682,8.5196,8.5343,8.5233,8.4719,8.4609,8.4609,8.4609,8.4609,8.4609,8.4609,8.4352,8.4005,8.3491,8.3161,8.281,8.2296,8.2627,8.2957,8.2957,8.3654,8.4352,8.4829,8.4719,8.4903,8.571,8.5086,8.4389,8.3895,8.4609,8.5049,8.5049,8.6297,8.7098,8.7281,8.7365,8.7583,8.7858,8.7958,8.8021,8.8084,8.8084,8.8084,8.8084,8.8084,8.8084,4.628,4.7205,4.9449,5.6121,5.3834,5.2556,6.2696,5.935,5.6612,6.5504,6.2628,5.8451,5.8227,6.2104,6.5523,6.6005,6.8752,7.1051,7.176,7.2794,7.3437,7.3437,7.3514,7.3718,7.4229,7.3537,7.3373,7.421,7.4221,7.444,7.4959,7.5743,7.6545,7.7342,7.7847,7.8531,7.9386,7.9575,8.0097,8.0978,8.1228,8.1379,8.1415,8.1929,8.2186,8.2186,8.2186,8.2186,8.2186,8.2186,8.2186,8.2186,8.2186,8.2186,8.2223,8.248,8.259,8.27,8.3491,8.3785,8.3895,8.4719,8.4976,8.5013,8.527,8.538,8.549,8.6004,8.6187,8.604,8.549,8.538,8.538,8.538,8.538,8.5306,8.5013,8.4792,8.4352,8.3564,8.3197,8.292,8.2627,8.3014,8.3491,8.3748,8.4462,8.5159,8.571,8.5306,8.5013,8.5049,8.4535,8.3911,8.3087,8.3765,8.4242,8.4242,8.549,8.6326,8.6557,8.6931,8.7242,8.7519,8.7926,8.8084,8.8084,8.8084,8.8084,8.8084,8.8084,8.8084,4.6319,4.7099,4.8667,5.2782,5.1357,5.1497,6.1167,5.8605,5.5879,6.2032,6.5847,6.7354,6.5005,6.4616,6.5161,6.6655,6.6936,6.8311,7.2161,7.2692,7.2692,7.2692,7.2692,7.2692,7.2692,7.3371,7.3512,7.281,7.4159,7.5028,7.5028,7.571,7.6477,7.7271,7.8873,7.9306,7.8543,8.0953,8.1748,8.0929,8.1765,8.2186,8.2186,8.2186,8.2186,8.2186,8.2186,8.2186,8.2186,8.2186,8.2186,8.2186,8.2186,8.2186,8.2296,8.3087,8.3381,8.3528,8.4352,8.4609,8.4756,8.5527,8.58,8.5967,8.6775,8.6978,8.6978,8.6978,8.6978,8.6978,8.6978,8.6978,8.6978,8.6978,8.6978,8.6775,8.5967,8.5159,8.4352,8.3564,8.2737,8.2443,8.3271,8.3418,8.3675,8.4499,8.527,8.5783,8.58,8.58,8.5159,8.3564,8.3381,8.3067,8.226,8.292,8.3381,8.3381,8.4132,8.4609,8.4609,8.5693,8.6315,8.6315,8.7466,8.8084,8.8084,8.8084,8.8084,8.8084,8.8084,8.8084,4.9578,4.9089,4.8458,5.2461,5.282,5.2801,5.5101,5.6449,5.8396,6.2588,6.4059,6.3886,6.1707,6.5777,6.8891,6.718,6.9187,7.1391,7.2561,7.2692,7.2692,7.2692,7.2209,7.2278,7.3382,7.3199,7.3614,7.4988,7.5533,7.6021,7.6608,7.7357,7.7918,7.8148,7.8623,7.9287,8.0189,7.9806,8.0328,8.1799,8.1457,8.163,8.2186,8.2186,8.2186,8.2186,8.2186,8.2186,8.2186,8.2186,8.2186,8.2186,8.2186,8.2553,8.3067,8.3308,8.3748,8.4352,8.5159,8.5416,8.5563,8.6371,8.6628,8.6701,8.6904,8.6978,8.6978,8.6978,8.6978,8.6978,8.6978,8.6978,8.6978,8.6978,8.6978,8.6611,8.5233,8.4756,8.4205,8.281,8.281,8.3124,8.3344,8.4352,8.5159,8.5416,8.5637,8.538,8.4278,8.4115,8.3728,8.2663,8.2553,8.2443,8.2223,8.2406,8.2553,8.2553,8.3324,8.4329,8.5601,8.5959,8.6496,8.7128,8.7501,8.7762,8.7911,8.7911,8.7974,8.8084,8.8084,8.8084,5.1416,5.1002,5.0937,5.5973,5.5353,5.3701,5.4488,5.6389,5.9393,6.4306,6.5433,6.528,6.4242,6.8135,7.0992,6.9459,7.1154,7.2692,7.2692,7.2692,7.2692,7.2692,7.2554,7.2795,7.3727,7.3941,7.449,7.5541,7.6207,7.6649,7.6811,7.757,7.7978,7.7978,7.8306,7.8983,7.9952,7.9624,8.0216,8.1698,8.1508,8.1698,8.2186,8.2186,8.2186,8.2186,8.2186,8.2186,8.2186,8.2186,8.2186,8.2223,8.2553,8.2994,8.3491,8.4132,8.4646,8.5196,8.6004,8.6261,8.6371,8.6848,8.6978,8.6978,8.6978,8.6978,8.6978,8.6978,8.6978,8.6978,8.6978,8.6978,8.6978,8.6978,8.6978,8.6664,8.5343,8.4829,8.4315,8.3324,8.3287,8.3601,8.4242,8.5159,8.5894,8.6224,8.6329,8.5795,8.4095,8.3941,8.3517,8.2349,8.2186,8.2186,8.2186,8.248,8.27,8.27,8.3434,8.4512,8.5899,8.6056,8.636,8.6919,8.7317,8.7563,8.7697,8.7697,8.7778,8.799,8.799,8.8021,5.2546,5.2966,5.4753,6.0797,5.7775,5.4327,5.8219,5.8462,5.9809,6.68,6.8537,6.9198,7.0277,7.1105,7.1864,7.2588,7.2692,7.2692,7.2692,7.2692,7.2726,7.2795,7.3382,7.3865,7.4003,7.5276,7.5798,7.5163,7.646,7.6984,7.6245,7.6822,7.7246,7.7335,7.8095,7.8566,7.8697,8.0162,8.0947,8.1018,8.1799,8.2186,8.2186,8.2186,8.2186,8.2186,8.2186,8.2186,8.2186,8.2186,8.2223,8.237,8.3087,8.3491,8.3785,8.527,8.5874,8.6004,8.6738,8.6978,8.6978,8.6978,8.6978,8.6978,8.6978,8.6978,8.6978,8.6978,8.6978,8.6978,8.6978,8.6978,8.6978,8.6978,8.6978,8.6775,8.5967,8.5233,8.4682,8.4609,8.4058,8.4078,8.5527,8.5857,8.6131,8.6828,8.7073,8.6571,8.4769,8.4755,8.4253,8.2513,8.2386,8.2423,8.2406,8.3104,8.3491,8.3491,8.4278,8.5049,8.5764,8.5989,8.6093,8.6167,8.6996,8.7464,8.7481,8.7481,8.7563,8.7762,8.7762,8.7895,5.6007,5.5127,5.3626,5.5082,5.4363,5.5504,6.4043,6.3869,6.3275,6.8068,6.703,6.6521,7.0545,7.1933,7.2485,7.2657,7.2692,7.2692,7.2692,7.2692,7.2899,7.3485,7.3692,7.4257,7.5499,7.5915,7.6283,7.6671,7.7034,7.7147,7.6982,7.7097,7.7522,7.8223,7.8399,7.9089,8.0366,8.075,8.1247,8.1935,8.2121,8.2186,8.2186,8.2186,8.2186,8.2186,8.2186,8.2186,8.2186,8.2186,8.259,8.3161,8.3344,8.4168,8.5306,8.5673,8.6187,8.6775,8.6958,8.6978,8.6978,8.6978,8.6978,8.6978,8.6978,8.6978,8.6978,8.6978,8.6978,8.6978,8.6978,8.6978,8.6978,8.6978,8.6978,8.6775,8.5967,8.5654,8.5343,8.4719,8.4976,8.538,8.5764,8.6334,8.6642,8.6337,8.641,8.5869,8.4105,8.4567,8.4551,8.3284,8.386,8.4261,8.4112,8.4242,8.4352,8.4352,8.5086,8.56,8.5783,8.5834,8.6182,8.6789,8.7007,8.7183,8.7335,8.7335,8.7418,8.7563,8.7563,8.7681,5.528,5.575,5.6017,5.7647,5.9208,6.1333,6.4926,6.5944,6.6825,6.9302,6.8403,6.805,7.0973,7.2174,7.2692,7.2692,7.2692,7.2692,7.2692,7.3002,7.3382,7.3761,7.443,7.5223,7.6029,7.6408,7.6787,7.7166,7.7201,7.7201,7.7201,7.761,7.8031,7.8483,7.8882,7.9682,8.0893,8.0911,8.1317,8.2186,8.2186,8.2186,8.2186,8.2186,8.2186,8.2186,8.2186,8.2186,8.2186,8.2186,8.2663,8.3454,8.3821,8.4719,8.5874,8.6224,8.6628,8.6978,8.6978,8.6978,8.6978,8.6978,8.6978,8.6978,8.6978,8.6978,8.6978,8.6978,8.6978,8.6978,8.6978,8.6978,8.6978,8.6978,8.6978,8.6885,8.6481,8.6077,8.5783,8.5747,8.5851,8.6066,8.6434,8.6906,8.7137,8.6832,8.682,8.6361,8.5018,8.5288,8.5165,8.4075,8.4435,8.4709,8.4609,8.4939,8.5159,8.5159,8.593,8.6371,8.6371,8.6371,8.6591,8.6978,8.6978,8.7029,8.7169,8.7169,8.7234,8.7418,8.7418,8.7501,5.3291,5.5692,5.8991,6.2379,6.4805,6.5993,6.439,6.6222,6.867,7.009,7.0518,7.0829,7.1567,7.2243,7.2692,7.2692,7.2692,7.2692,7.2692,7.3347,7.3865,7.3947,7.5257,7.6132,7.627,7.6822,7.7201,7.7201,7.7201,7.7201,7.7201,7.8031,7.8504,7.8504,7.9428,8.0218,8.0893,8.1035,8.1491,8.2186,8.2186,8.2186,8.2186,8.2186,8.2186,8.2186,8.2186,8.2186,8.2186,8.2333,8.2884,8.3675,8.4499,8.5306,8.6077,8.6775,8.6978,8.6978,8.6978,8.6978,8.6978,8.6978,8.6978,8.6978,8.6978,8.6978,8.6978,8.6978,8.6978,8.6978,8.6978,8.6978,8.6978,8.6978,8.7049,8.7029,8.7029,8.6532,8.6255,8.6971,8.6685,8.6545,8.7208,8.7468,8.753,8.7514,8.753,8.7206,8.6217,8.6217,8.5946,8.4919,8.4973,8.5046,8.5013,8.5637,8.6004,8.6004,8.6628,8.6978,8.6978,8.6978,8.6978,8.6978,8.6978,8.6978,8.6978,8.6978,8.71,8.7254,8.7254,8.7318,5.3291,5.5692,5.8991,6.2379,6.1368,6.0906,6.6233,6.5685,6.5241,6.9514,7.0912,7.1622,7.2381,7.2623,7.2692,7.2692,7.2692,7.2692,7.2692,7.3347,7.4016,7.4684,7.5546,7.6339,7.6994,7.7132,7.7201,7.7201,7.7201,7.7201,7.7201,7.8031,7.8504,7.8504,7.9935,8.0804,8.0911,8.1664,8.2104,8.2186,8.2186,8.2186,8.2186,8.2186,8.2186,8.2186,8.2186,8.2186,8.226,8.2957,8.3711,8.4535,8.5306,8.6114,8.6831,8.6941,8.6978,8.6978,8.6978,8.6978,8.6978,8.6978,8.6978,8.6978,8.6978,8.6978,8.6978,8.6978,8.6978,8.6978,8.6978,8.6978,8.6978,8.6978,8.7152,8.7271,8.7271,8.716,8.7174,8.7398,8.7374,8.7354,8.7427,8.7649,8.7713,8.753,8.7665,8.7336,8.6233,8.6812,8.6869,8.5761,8.6414,8.6872,8.6701,8.6775,8.6848,8.6848,8.6941,8.6978,8.6978,8.6978,8.6978,8.6978,8.6978,8.6978,8.6978,8.6978,8.6995,8.7029,8.7029,8.7132,5.5023,5.575,5.7128,6.4182,6.2044,5.9917,6.6592,6.5894,6.5088,6.948,7.1001,7.176,7.2554,7.2692,7.2692,7.2692,7.2692,7.2692,7.2692,7.3671,7.4546,7.4856,7.596,7.6856,7.7166,7.7201,7.7201,7.7201,7.7201,7.7201,7.7201,7.8031,7.8732,7.915,8.0292,8.1106,8.161,8.2002,8.2186,8.2186,8.2186,8.2186,8.2186,8.2186,8.2186,8.2186,8.2186,8.2186,8.226,8.3067,8.3858,8.4682,8.549,8.6297,8.6978,8.6978,8.6978,8.6978,8.6978,8.6978,8.6978,8.6978,8.6978,8.6978,8.6978,8.6978,8.6978,8.6978,8.6978,8.7049,8.7152,8.7186,8.7166,8.7285,8.7368,8.7452,8.7551,8.7485,8.7485,8.7612,8.7563,8.7563,8.7794,8.773,8.7628,8.7681,8.7583,8.7341,8.6843,8.703,8.7019,8.6535,8.688,8.7118,8.7031,8.6978,8.6978,8.6978,8.6978,8.6978,8.6978,8.6978,8.6978,8.6978,8.6978,8.6978,8.6978,8.6978,8.6978,8.6978,8.6978,8.7066,5.5016,5.478,5.4936,6.3292,6.1048,5.833,6.4251,6.4131,6.3974,6.8277,7.0254,7.1519,7.2519,7.2692,7.2692,7.2692,7.2692,7.2692,7.2692,7.3981,7.4925,7.4925,7.627,7.7201,7.7201,7.7201,7.7201,7.7201,7.7201,7.7201,7.7201,7.8031,7.8759,7.9369,8.0366,8.1212,8.1885,8.2104,8.2186,8.2186,8.2186,8.2186,8.2186,8.2186,8.2186,8.2186,8.2186,8.2186,8.226,8.3287,8.4058,8.4719,8.571,8.6481,8.6978,8.6978,8.6978,8.6978,8.6978,8.6978,8.6978,8.6978,8.6978,8.6995,8.7046,8.71,8.7064,8.7115,8.7132,8.7166,8.7301,8.7338,8.7338,8.7435,8.7431,8.7497,8.7746,8.773,8.7697,8.7778,8.7697,8.7681,8.7889,8.7713,8.753,8.7649,8.7472,8.7288,8.7237,8.7081,8.6978,8.6978,8.6978,8.6978,8.6978,8.6978,8.6978,8.6978,8.6978,8.6978,8.6978,8.6978,8.6978,8.6978,8.6978,8.6978,8.6978,8.6978,8.6978,8.6978,8.6978,8.6978,5.1291,5.199,5.2867,5.7028,5.546,5.3895,5.7806,5.8606,5.9905,6.476,6.8247,7.0932,7.2416,7.2692,7.2692,7.2692,7.2692,7.2692,7.2692,7.3981,7.4925,7.4925,7.627,7.7201,7.7201,7.7201,7.7201,7.7201,7.7201,7.7201,7.7201,7.8031,7.8525,7.8566,8.0068,8.0929,8.0964,8.1782,8.2186,8.2186,8.2186,8.2186,8.2186,8.2186,8.2186,8.2186,8.2186,8.2186,8.2333,8.3875,8.4572,8.4756,8.6317,8.6941,8.6978,8.6978,8.6978,8.6978,8.6978,8.6978,8.6978,8.6978,8.6978,8.7049,8.7237,8.7288,8.7285,8.7431,8.7481,8.7481,8.7497,8.7402,8.7305,8.7321,8.7321,8.7422,8.7713,8.7958,8.8021,8.781,8.7778,8.773,8.7563,8.7514,8.7448,8.7318,8.7321,8.7237,8.7029,8.7031,8.6978,8.6978,8.6978,8.6978,8.6978,8.6978,8.6978,8.6978,8.6978,8.6978,8.6978,8.6978,8.6978,8.6978,8.6978,8.6978,8.6978,8.6978,8.6978,8.6978,8.6978,8.6978,5.1354,5.0532,5.0024,5.5622,5.3201,5.0713,5.5812,5.7614,5.8535,5.9781,6.5572,6.9929,6.8324,7.0568,7.2692,7.2692,7.2692,7.2692,7.2692,7.3981,7.4925,7.4925,7.627,7.7201,7.7201,7.7201,7.7201,7.7201,7.4828,7.4489,7.7051,7.5039,7.5253,7.8399,7.9565,8.0641,8.1731,8.2035,8.2186,8.2186,8.2186,8.2186,8.2186,8.2186,8.2186,8.2186,8.2186,8.2186,8.2333,8.3948,8.4609,8.4756,8.6371,8.6978,8.6978,8.6978,8.6978,8.6995,8.7169,8.7203,8.722,8.7265,8.7315,8.7315,8.7435,8.7452,8.7415,8.7497,8.7415,8.7402,8.7481,8.7402,8.7301,8.7418,8.7452,8.7448,8.7563,8.7644,8.7676,8.7612,8.7534,8.7468,8.7497,8.7315,8.72,8.7305,8.7203,8.7064,8.7031,8.6978,8.6978,8.6978,8.6978,8.6978,8.6978,8.6978,8.6978,8.6978,8.6978,8.6978,8.6978,8.6978,8.6978,8.6978,8.6978,8.6978,8.6978,8.6978,8.6978,8.6978,8.6978,8.6978,4.9806,4.8452,4.7498,5.208,5.0171,4.822,5.2422,5.5737,5.7942,5.7848,6.434,6.9514,6.7768,7.0119,7.2381,7.2657,7.2692,7.2692,7.2692,7.374,7.4615,7.4891,7.6029,7.6925,7.7166,7.7201,7.7201,7.7201,7.4724,7.4371,7.7051,7.4676,7.4965,7.8776,7.9971,8.1072,8.2186,8.2186,8.2186,8.2186,8.2186,8.2186,8.2186,8.2186,8.2219,8.2267,8.2267,8.2251,8.2296,8.3654,8.4352,8.4719,8.6077,8.6775,8.7031,8.71,8.7081,8.7152,8.7301,8.7368,8.7385,8.7464,8.7514,8.7514,8.7579,8.7579,8.7595,8.766,8.7583,8.7485,8.76,8.7501,8.7368,8.7315,8.7365,8.7398,8.7332,8.7415,8.7497,8.7431,8.7352,8.7285,8.7352,8.7149,8.7066,8.7203,8.71,8.6978,8.6978,8.6978,8.6978,8.6978,8.6978,8.6978,8.6978,8.6978,8.6978,8.6978,8.6978,8.6978,8.6978,8.6978,8.6978,8.6978,8.6978,8.6978,8.6978,8.6978,8.6978,8.6978,8.6978,8.6925,0.0,0.0,0.0,4.6055,4.6204,4.6447,4.732,5.2594,5.7689,5.8895,6.4463,6.9552,7.0967,7.1381,7.176,7.2554,7.2692,7.2692,7.2692,7.3347,7.405,7.4787,7.5615,7.6373,7.7097,7.7201,7.7201,7.7201,7.7085,7.7085,7.7201,7.7223,7.7996,7.9702,8.1318,8.217,8.2186,8.2186,8.2203,8.2203,8.2203,8.2203,8.2203,8.2203,8.23,8.2407,8.2407,8.2348,8.2276,8.3067,8.3875,8.4662,8.547,8.6278,8.7029,8.7254,8.7321,8.7338,8.7448,8.7514,8.7514,8.7514,8.7514,8.753,8.773,8.7778,8.781,8.8021,8.7942,8.7778,8.7762,8.7649,8.7398,8.7081,8.7169,8.7254,8.7029,8.7268,8.7431,8.7338,8.7305,8.7237,8.7012,8.6978,8.6978,8.6978,8.6978,8.6978,8.6978,8.6978,8.6978,8.6978,8.6978,8.6978,8.6978,8.6978,8.6978,8.6978,8.6978,8.6978,8.6978,8.6978,8.6978,8.6978,8.6978,8.6978,8.6978,8.6978,8.6978,8.6978,8.6978,8.6768,4.6253,0.0,0.0,0.0,0.0,0.0,4.5717,4.9735,5.3352,5.2803,5.9429,6.5361,6.5411,6.8754,7.1567,7.1795,7.2312,7.2692,7.2692,7.3347,7.3899,7.4085,7.5292,7.6166,7.6373,7.6891,7.7201,7.7201,7.4489,7.4135,7.7051,7.7793,7.8867,8.0495,8.1,8.1559,8.2186,8.2186,8.2251,8.2327,8.2327,8.2428,8.2555,8.2555,8.2571,8.2618,8.2618,8.2586,8.2629,8.344,8.3882,8.4214,8.5615,8.6279,8.6574,8.7193,8.7431,8.7464,8.7665,8.7612,8.753,8.7681,8.7612,8.7514,8.7563,8.7579,8.7579,8.7628,8.7551,8.7385,8.7251,8.7183,8.7115,8.7012,8.7029,8.7083,8.6995,8.7064,8.7132,8.7081,8.7064,8.7083,8.6995,8.6978,8.6978,8.6978,8.6978,8.6978,8.6978,8.6978,8.6978,8.6978,8.6978,8.6978,8.6978,8.6978,8.6978,8.6978,8.6978,8.6978,8.6978,8.6978,8.6978,8.6978,8.6978,8.6978,8.6978,8.6978,8.6978,8.6978,8.6697,8.6519,0.0,0.0,4.4996,4.5328,0.0,0.0,4.5376,4.9938,5.4048,5.3153,5.9711,6.5068,6.3415,6.6056,6.8589,6.8901,6.9629,7.0747,7.2458,7.3071,7.3451,7.3761,7.4602,7.5257,7.558,7.627,7.6896,7.722,7.5372,7.5443,7.8189,7.8826,7.9721,8.0982,8.1368,8.1762,8.2284,8.2364,8.2444,8.2539,8.2539,8.2602,8.2696,8.2696,8.2727,8.2804,8.2804,8.2804,8.2841,8.3399,8.3707,8.3988,8.4912,8.5724,8.6352,8.6832,8.7218,8.7514,8.7612,8.7579,8.753,8.7649,8.7579,8.7514,8.7514,8.7514,8.7514,8.7514,8.7418,8.7271,8.7029,8.7046,8.7081,8.6995,8.7046,8.7081,8.6995,8.6978,8.6978,8.6978,8.6978,8.6978,8.6978,8.6978,8.6978,8.6978,8.6978,8.6978,8.6978,8.6978,8.6978,8.6978,8.6978,8.6978,8.6978,8.6978,8.6978,8.6978,8.6978,8.6978,8.6978,8.6978,8.6908,8.675,8.675,8.668,8.6519,8.668,8.6662,8.6501,8.6247,8.6044,0.0,0.0,0.0,4.51,4.5683,0.0,4.5831,5.1233,5.63,5.6474,6.1771,6.5593,6.3031,6.3204,6.4008,6.4743,6.546,6.7355,7.1442,7.2423,7.2782,7.2983,7.3472,7.405,7.4718,7.5511,7.6331,7.7145,7.8047,7.9009,8.0015,8.0107,8.0514,8.1351,8.208,8.2423,8.2423,8.2618,8.2696,8.2711,8.2711,8.2727,8.2742,8.2742,8.2835,8.2934,8.2919,8.2919,8.2919,8.3091,8.3401,8.3767,8.3893,8.478,8.6057,8.6241,8.6759,8.7403,8.7477,8.7497,8.7481,8.7481,8.7464,8.7448,8.7448,8.7448,8.7448,8.7448,8.7368,8.7237,8.7066,8.7152,8.7237,8.7029,8.7152,8.7237,8.7049,8.6978,8.6978,8.6978,8.6978,8.6978,8.6978,8.6978,8.6978,8.6978,8.6978,8.6978,8.6978,8.6978,8.6978,8.6978,8.6978,8.6978,8.6978,8.6978,8.6978,8.6978,8.6978,8.6978,8.6978,8.6943,8.6768,8.6429,8.6375,8.6118,8.5725,8.6118,8.6137,8.5782,8.5744,8.5514,0.0,0.0,0.0,4.4471,4.5053,0.0,4.603,4.7371,4.9491,5.2777,5.4688,5.6488,5.8749,5.9794,6.0607,6.14,6.1616,6.3117,6.7199,7.0629,7.1545,6.8392,7.144,7.3865,7.3981,7.4684,7.5526,7.6504,7.8068,7.9608,8.1033,8.1103,8.152,8.2391,8.2571,8.2633,8.2633,8.2665,8.2758,8.2859,8.2859,8.2934,8.3091,8.3091,8.3106,8.3136,8.2964,8.2919,8.2904,8.2835,8.2869,8.2991,8.3775,8.4188,8.4542,8.5798,8.6389,8.6611,8.7276,8.7415,8.7335,8.7335,8.7217,8.7098,8.7098,8.7098,8.7098,8.7098,8.7064,8.7066,8.6995,8.7012,8.7066,8.7031,8.7012,8.7066,8.7031,8.6978,8.6978,8.6978,8.6978,8.6978,8.6978,8.6978,8.6978,8.6978,8.6978,8.6978,8.6978,8.6978,8.6978,8.6978,8.6978,8.6978,8.6978,8.6978,8.6978,8.6978,8.6978,8.6978,8.6978,8.6697,8.6501,8.6411,8.6063,8.5706,8.5336,8.5706,8.5857,8.5782,8.5492,8.5277,0.0,0.0,4.3332,4.4104,4.4744,0.0,0.0,4.761,4.9981,5.1657,5.3864,5.5426,5.521,5.5808,5.6487,5.6866,5.7209,5.8296,6.0772,6.6127,6.9853,6.9931,7.2094,7.3518,7.3413,7.4168,7.538,7.7026,7.8494,7.9973,8.1464,8.1569,8.1958,8.2767,8.2782,8.2782,8.2782,8.2896,8.2986,8.3039,8.3039,8.3106,8.3195,8.3195,8.3195,8.318,8.3106,8.2994,8.2867,8.2828,8.269,8.2623,8.3164,8.3623,8.3973,8.4668,8.5484,8.6242,8.6528,8.6886,8.7169,8.7169,8.7064,8.6978,8.6978,8.6978,8.6943,8.675,8.6838,8.6891,8.6519,8.6697,8.6943,8.675,8.6697,8.6697,8.6697,8.6555,8.6411,8.6411,8.6411,8.6537,8.6925,8.6978,8.6978,8.6978,8.6978,8.6978,8.6978,8.6978,8.6978,8.6978,8.6978,8.6908,8.6715,8.6697,8.6626,8.6392,8.6411,8.6411,8.6411,8.6192,8.5988,8.5801,8.5414,8.51,8.4879,8.51,8.5199,8.5199,8.498,8.4879,0.0,4.2428,4.2604,4.3611,4.4614,4.5293,0.0,0.0,0.0,5.0938,5.3745,5.5289,5.198,5.1892,5.2278,5.2063,5.2713,5.3701,5.4998,6.0751,6.6127,6.9699,7.0542,7.0826,7.0843,7.2335,7.4601,7.772,7.8799,8.0019,8.1667,8.1813,8.217,8.2949,8.2964,8.2964,8.2964,8.3121,8.3195,8.3195,8.3195,8.3195,8.3195,8.3195,8.318,8.3136,8.3106,8.3001,8.2813,8.2782,8.2612,8.2375,8.2571,8.3024,8.3582,8.3549,8.442,8.5581,8.5577,8.6114,8.6775,8.6775,8.6867,8.7014,8.6891,8.6873,8.6803,8.6411,8.6537,8.6626,8.5951,8.6265,8.6697,8.6338,8.6265,8.6265,8.6265,8.6026,8.5782,8.5782,8.5782,8.6026,8.6768,8.6821,8.6803,8.6873,8.6821,8.6768,8.6768,8.6768,8.6768,8.6768,8.6768,8.6644,8.6302,8.6265,8.6137,8.5801,8.5782,8.5782,8.5782,8.558,8.5187,8.4633,8.4309,8.4125,8.4125,8.4125,8.4324,8.4589,8.4589,8.4589,4.1728,4.2623,4.3454,4.2488,4.4471,4.649,4.5777,0.0,4.8253,4.8599,0.0,4.9281,4.8802,0.0,0.0,4.7924,4.8473,5.0086,5.3289,5.577,5.7588,5.8551,6.0635,6.2232,6.2904,6.6689,7.1587,7.762,7.8414,7.9583,8.1844,8.1978,8.2349,8.3128,8.3165,8.3165,8.3165,8.318,8.3195,8.3195,8.3195,8.3195,8.3195,8.3195,8.3106,8.2934,8.2819,8.2649,8.2455,8.2348,8.2251,8.2235,8.2359,8.2417,8.2472,8.3174,8.3524,8.3818,8.4499,8.527,8.593,8.593,8.6407,8.6925,8.6591,8.6483,8.6356,8.597,8.5895,8.5914,8.5819,8.5857,8.5914,8.5876,8.5857,8.5857,8.5857,8.5819,8.5782,8.5782,8.5782,8.5932,8.6374,8.6155,8.6044,8.6392,8.6155,8.5932,8.5932,8.5932,8.5932,8.5932,8.5932,8.5914,8.5857,8.5857,8.5838,8.5801,8.5782,8.5782,8.5782,8.4771,8.3663,8.2549,8.2489,8.2469,8.2469,8.2469,8.3218,8.4589,8.4589,8.4589,4.5128,4.5956,4.6266,4.6187,4.7225,4.8246,4.8339,4.7592,4.6944,4.7163,0.0,0.0,0.0,0.0,0.0,0.0,4.8076,4.8998,5.0962,5.1405,5.3646,5.936,6.139,6.3222,6.5594,6.5117,6.6887,7.2173,7.3988,7.526,7.6148,7.9897,8.2154,8.2489,8.2972,8.3195,8.3195,8.3195,8.3195,8.3195,8.3195,8.3136,8.3009,8.3009,8.2919,8.2788,8.2727,8.2649,8.2571,8.2412,8.2332,8.2295,8.23,8.2251,8.2223,8.259,8.2994,8.3454,8.3785,8.4425,8.5159,8.5637,8.604,8.6336,8.6657,8.6591,8.6338,8.5895,8.5782,8.5687,8.5238,8.5437,8.5725,8.5531,8.5437,8.5437,8.5437,8.5277,8.51,8.51,8.51,8.5238,8.5629,8.5744,8.5838,8.6026,8.5895,8.5782,8.5782,8.5782,8.5619,8.5149,8.5095,8.482,8.4104,8.4049,8.3954,8.3738,8.3719,8.3719,8.3719,8.3239,8.2739,8.2219,8.2183,8.2183,8.2183,8.2183,8.254,8.3218,8.3218,8.3218,4.9722,5.0392,5.0084,4.911,4.9383,4.9679,4.8783,4.7397,4.6339,4.6557,4.7314,0.0,0.0,0.0,4.815,4.7709,0.0,4.8379,4.8573,4.8646,5.1265,5.8375,6.0372,6.2434,6.5611,6.3418,6.3358,6.7171,7.0179,7.1878,7.2002,7.7937,8.1523,8.2006,8.2563,8.2972,8.3195,8.3151,8.3121,8.3121,8.3076,8.3001,8.2843,8.2843,8.2752,8.2618,8.2618,8.2602,8.2539,8.2428,8.2327,8.2364,8.2235,8.2186,8.2186,8.2186,8.2553,8.3067,8.3067,8.3618,8.4389,8.5196,8.5453,8.5546,8.603,8.6132,8.5974,8.5568,8.5637,8.5629,8.494,8.5199,8.5514,8.5139,8.504,8.4968,8.4753,8.4476,8.4217,8.3983,8.3947,8.4013,8.4334,8.5009,8.5423,8.5321,8.5208,8.5059,8.4843,8.4807,8.4609,8.4015,8.3943,8.3593,8.271,8.2655,8.2519,8.2203,8.2183,8.2112,8.1898,8.1898,8.1791,8.1577,8.1577,8.1577,8.1577,8.1577,8.1577,8.1577,8.2005,8.2183,5.4968,5.5489,5.4844,4.9394,4.9899,5.0402,4.5431,4.5128,4.6159,4.691,4.7103,4.7369,4.815,4.8296,0.0,0.0,4.7278,0.0,0.0,4.8059,4.9958,5.1045,5.3506,5.5994,5.8295,6.0168,6.2171,6.4451,6.8568,7.1253,7.1965,7.6824,8.0334,8.1969,8.2043,8.2415,8.3195,8.2994,8.2919,8.2919,8.2788,8.2696,8.2696,8.2696,8.2602,8.2407,8.2407,8.2348,8.2203,8.2203,8.2203,8.2203,8.2203,8.2186,8.2186,8.2186,8.2223,8.2223,8.2223,8.2774,8.3564,8.4389,8.4646,8.4578,8.4218,8.4642,8.5136,8.4753,8.5221,8.5687,8.5297,8.5199,8.5119,8.4733,8.461,8.4416,8.3631,8.3452,8.3203,8.2433,8.229,8.229,8.2275,8.3595,8.4508,8.412,8.3717,8.3187,8.2402,8.233,8.2294,8.2294,8.2294,8.2259,8.2203,8.2203,8.2203,8.2183,8.2183,8.1862,8.1148,8.1148,8.0756,7.9987,7.9971,7.9971,7.9971,7.9971,7.9971,7.9987,8.1505,8.2183,5.8413,5.9218,5.8976,5.7096,5.5318,5.3582,5.1825,4.816,4.5177,4.5471,4.6342,4.7186,4.7443,0.0,0.0,0.0,0.0,0.0,0.0,4.8196,4.904,4.9848,5.1245,5.3565,5.7194,5.5593,5.5593,5.8641,6.0628,6.1579,6.1274,6.9692,7.4802,7.5359,7.9697,8.2117,8.2415,8.2876,8.3024,8.2919,8.2859,8.2705,8.2487,8.2487,8.2428,8.2284,8.2284,8.2251,8.2186,8.2186,8.2186,8.2186,8.2186,8.2186,8.2186,8.2186,8.2186,8.2186,8.2186,8.237,8.2704,8.3222,8.36,8.3794,8.3699,8.3847,8.3937,8.3529,8.3404,8.3402,8.3264,8.3224,8.3184,8.3044,8.3004,8.2933,8.2647,8.2611,8.254,8.2255,8.2183,8.2183,8.2183,8.2647,8.2973,8.2811,8.2676,8.2504,8.2255,8.2183,8.2005,8.1505,8.147,8.1255,8.072,8.0684,8.0684,8.0684,8.0684,8.0577,8.0328,8.0328,8.0185,7.9935,7.988,7.988,7.988,7.988,7.988,7.9916,8.0435,8.0684,6.3184,6.3726,6.3346,6.1635,5.9315,5.7056,5.5549,5.1683,4.8532,4.8784,4.9708,5.0087,0.0,0.0,0.0,0.0,0.0,0.0,0.0,4.8296,4.8489,4.9003,5.0686,5.2609,5.4732,5.3546,5.2948,5.3665,5.6018,5.6944,5.5876,6.5841,7.1695,7.1991,7.8165,8.1621,8.1881,8.2579,8.2843,8.2736,8.2674,8.2534,8.2311,8.2311,8.23,8.2186,8.2186,8.2186,8.2186,8.2186,8.2186,8.2186,8.2186,8.2186,8.2186,8.2186,8.2186,8.2186,8.2186,8.2104,8.2045,8.2267,8.245,8.2559,8.2613,8.2776,8.2993,8.3005,8.2907,8.2826,8.2858,8.2734,8.2558,8.2263,8.2183,8.2148,8.1862,8.1791,8.1719,8.1434,8.1398,8.1398,8.1398,8.1398,8.147,8.1755,8.1791,8.1719,8.1434,8.1398,8.122,8.072,8.0684,8.047,7.9916,7.988,7.988,7.988,7.988,7.988,7.988,7.988,7.988,7.988,7.988,7.988,7.988,7.988,7.988,7.988,7.988,7.988]}]]